<?xml version="1.0" encoding="UTF-8"?>
<gpx version="1.1" creator="https://www.www-youtrack-es.amenigma.com" xsi:schemaLocation="http://www.topografix.com/GPX/1/1 http://www.topografix.com/GPX/1/1/gpx.xsd http://www.garmin.com/xmlschemas/GpxExtensions/v3 http://www.garmin.com/xmlschemas/GpxExtensionsv3.xsd http://www.garmin.com/xmlschemas/TrackPointExtension/v1 http://www.garmin.com/xmlschemas/TrackPointExtensionv1.xsd" xmlns:gpxtpx="http://www.garmin.com/xmlschemas/TrackPointExtension/v1" xmlns:gpxx="http://www.garmin.com/xmlschemas/GpxExtensions/v3" xmlns:xsi="http://www.w3.org/2001/XMLSchema-instance">
  <metadata>
    <link href="https://www.www-youtrack-es.amenigma.com">
      <text>YouTrack.es</text>
    </link>
    <time>2026-08-31T18:53:30Z</time>
  </metadata>
  <trk>
    <src>https://www.www-youtrack-es.amenigma.com</src>
    <link href="https://www.www-youtrack-es.amenigma.com/ruta/9411-volta-per-calella">
      <text>YouTrack.es</text>
    </link>
    <trkseg>
      <trkpt lat="41.616461" lon="2.672979">
        <ele>7</ele>
        <time>2019-11-08T14:32:09Z</time>
      </trkpt>
      <trkpt lat="41.616462" lon="2.672979">
        <ele>7</ele>
        <time>2019-11-08T14:32:10Z</time>
      </trkpt>
      <trkpt lat="41.616481" lon="2.673121">
        <ele>6.6</ele>
        <time>2019-11-08T14:32:16Z</time>
      </trkpt>
      <trkpt lat="41.616471" lon="2.67328">
        <ele>6.5</ele>
        <time>2019-11-08T14:32:21Z</time>
      </trkpt>
      <trkpt lat="41.61647" lon="2.673313">
        <ele>6.5</ele>
        <time>2019-11-08T14:32:22Z</time>
      </trkpt>
      <trkpt lat="41.616472" lon="2.673347">
        <ele>6.4</ele>
        <time>2019-11-08T14:32:23Z</time>
      </trkpt>
      <trkpt lat="41.61649" lon="2.673443">
        <ele>6.3</ele>
        <time>2019-11-08T14:32:26Z</time>
      </trkpt>
      <trkpt lat="41.616509" lon="2.673537">
        <ele>6.3</ele>
        <time>2019-11-08T14:32:29Z</time>
      </trkpt>
      <trkpt lat="41.616524" lon="2.673597">
        <ele>6.2</ele>
        <time>2019-11-08T14:32:31Z</time>
      </trkpt>
      <trkpt lat="41.616558" lon="2.673751">
        <ele>6.3</ele>
        <time>2019-11-08T14:32:36Z</time>
      </trkpt>
      <trkpt lat="41.616594" lon="2.673934">
        <ele>6.5</ele>
        <time>2019-11-08T14:32:42Z</time>
      </trkpt>
      <trkpt lat="41.616601" lon="2.673963">
        <ele>6.5</ele>
        <time>2019-11-08T14:32:43Z</time>
      </trkpt>
      <trkpt lat="41.616635" lon="2.674108">
        <ele>6.5</ele>
        <time>2019-11-08T14:32:48Z</time>
      </trkpt>
      <trkpt lat="41.61666" lon="2.674196">
        <ele>6.5</ele>
        <time>2019-11-08T14:32:51Z</time>
      </trkpt>
      <trkpt lat="41.616702" lon="2.674378">
        <ele>6.4</ele>
        <time>2019-11-08T14:32:57Z</time>
      </trkpt>
      <trkpt lat="41.616746" lon="2.67462">
        <ele>6.5</ele>
        <time>2019-11-08T14:33:05Z</time>
      </trkpt>
      <trkpt lat="41.616826" lon="2.674845">
        <ele>6.3</ele>
        <time>2019-11-08T14:33:13Z</time>
      </trkpt>
      <trkpt lat="41.616927" lon="2.674897">
        <ele>6</ele>
        <time>2019-11-08T14:33:18Z</time>
      </trkpt>
      <trkpt lat="41.616995" lon="2.675065">
        <ele>5.8</ele>
        <time>2019-11-08T14:33:24Z</time>
      </trkpt>
      <trkpt lat="41.617032" lon="2.675213">
        <ele>5.7</ele>
        <time>2019-11-08T14:33:29Z</time>
      </trkpt>
      <trkpt lat="41.617084" lon="2.675448">
        <ele>5.6</ele>
        <time>2019-11-08T14:33:37Z</time>
      </trkpt>
      <trkpt lat="41.617138" lon="2.675712">
        <ele>5.6</ele>
        <time>2019-11-08T14:33:46Z</time>
      </trkpt>
      <trkpt lat="41.617199" lon="2.675939">
        <ele>5.6</ele>
        <time>2019-11-08T14:33:54Z</time>
      </trkpt>
      <trkpt lat="41.617261" lon="2.676168">
        <ele>5.5</ele>
        <time>2019-11-08T14:34:02Z</time>
      </trkpt>
      <trkpt lat="41.617318" lon="2.67641">
        <ele>4.9</ele>
        <time>2019-11-08T14:34:10Z</time>
      </trkpt>
      <trkpt lat="41.617373" lon="2.676643">
        <ele>3.7</ele>
        <time>2019-11-08T14:34:18Z</time>
      </trkpt>
      <trkpt lat="41.617422" lon="2.676884">
        <ele>2.7</ele>
        <time>2019-11-08T14:34:26Z</time>
      </trkpt>
      <trkpt lat="41.617488" lon="2.677129">
        <ele>2.6</ele>
        <time>2019-11-08T14:34:34Z</time>
      </trkpt>
      <trkpt lat="41.617558" lon="2.677371">
        <ele>2.6</ele>
        <time>2019-11-08T14:34:42Z</time>
      </trkpt>
      <trkpt lat="41.617616" lon="2.677606">
        <ele>2.6</ele>
        <time>2019-11-08T14:34:50Z</time>
      </trkpt>
      <trkpt lat="41.617672" lon="2.677846">
        <ele>2.5</ele>
        <time>2019-11-08T14:34:58Z</time>
      </trkpt>
      <trkpt lat="41.617727" lon="2.678088">
        <ele>2.2</ele>
        <time>2019-11-08T14:35:06Z</time>
      </trkpt>
      <trkpt lat="41.617774" lon="2.678343">
        <ele>2.9</ele>
        <time>2019-11-08T14:35:14Z</time>
      </trkpt>
      <trkpt lat="41.617776" lon="2.678414">
        <ele>3.3</ele>
        <time>2019-11-08T14:35:16Z</time>
      </trkpt>
      <trkpt lat="41.617771" lon="2.678636">
        <ele>3.8</ele>
        <time>2019-11-08T14:35:23Z</time>
      </trkpt>
      <trkpt lat="41.617798" lon="2.678758">
        <ele>3.4</ele>
        <time>2019-11-08T14:35:27Z</time>
      </trkpt>
      <trkpt lat="41.617831" lon="2.67901">
        <ele>2.7</ele>
        <time>2019-11-08T14:35:35Z</time>
      </trkpt>
      <trkpt lat="41.617863" lon="2.679265">
        <ele>2.9</ele>
        <time>2019-11-08T14:35:43Z</time>
      </trkpt>
      <trkpt lat="41.617928" lon="2.679511">
        <ele>3.2</ele>
        <time>2019-11-08T14:35:51Z</time>
      </trkpt>
      <trkpt lat="41.618" lon="2.679756">
        <ele>2.9</ele>
        <time>2019-11-08T14:35:59Z</time>
      </trkpt>
      <trkpt lat="41.618043" lon="2.680006">
        <ele>2.9</ele>
        <time>2019-11-08T14:36:07Z</time>
      </trkpt>
      <trkpt lat="41.618043" lon="2.68027">
        <ele>3.4</ele>
        <time>2019-11-08T14:36:15Z</time>
      </trkpt>
      <trkpt lat="41.618126" lon="2.680514">
        <ele>3.5</ele>
        <time>2019-11-08T14:36:23Z</time>
      </trkpt>
      <trkpt lat="41.61821" lon="2.680751">
        <ele>3.5</ele>
        <time>2019-11-08T14:36:31Z</time>
      </trkpt>
      <trkpt lat="41.618342" lon="2.680946">
        <ele>3.5</ele>
        <time>2019-11-08T14:36:39Z</time>
      </trkpt>
      <trkpt lat="41.618403" lon="2.681197">
        <ele>3.4</ele>
        <time>2019-11-08T14:36:47Z</time>
      </trkpt>
      <trkpt lat="41.618445" lon="2.681454">
        <ele>3.5</ele>
        <time>2019-11-08T14:36:55Z</time>
      </trkpt>
      <trkpt lat="41.618517" lon="2.681701">
        <ele>3.7</ele>
        <time>2019-11-08T14:37:03Z</time>
      </trkpt>
      <trkpt lat="41.618571" lon="2.681963">
        <ele>3.5</ele>
        <time>2019-11-08T14:37:11Z</time>
      </trkpt>
      <trkpt lat="41.618646" lon="2.682208">
        <ele>3.3</ele>
        <time>2019-11-08T14:37:19Z</time>
      </trkpt>
      <trkpt lat="41.618724" lon="2.682456">
        <ele>3.3</ele>
        <time>2019-11-08T14:37:27Z</time>
      </trkpt>
      <trkpt lat="41.618799" lon="2.682711">
        <ele>3.3</ele>
        <time>2019-11-08T14:37:35Z</time>
      </trkpt>
      <trkpt lat="41.618855" lon="2.682942">
        <ele>3.3</ele>
        <time>2019-11-08T14:37:42Z</time>
      </trkpt>
      <trkpt lat="41.61891" lon="2.683202">
        <ele>3.3</ele>
        <time>2019-11-08T14:37:50Z</time>
      </trkpt>
      <trkpt lat="41.618978" lon="2.683451">
        <ele>3.5</ele>
        <time>2019-11-08T14:37:58Z</time>
      </trkpt>
      <trkpt lat="41.619063" lon="2.683692">
        <ele>4</ele>
        <time>2019-11-08T14:38:06Z</time>
      </trkpt>
      <trkpt lat="41.619125" lon="2.683825">
        <ele>4.1</ele>
        <time>2019-11-08T14:38:11Z</time>
      </trkpt>
      <trkpt lat="41.619208" lon="2.684056">
        <ele>4.2</ele>
        <time>2019-11-08T14:38:19Z</time>
      </trkpt>
      <trkpt lat="41.619254" lon="2.684213">
        <ele>4.2</ele>
        <time>2019-11-08T14:38:24Z</time>
      </trkpt>
      <trkpt lat="41.619265" lon="2.684243">
        <ele>4.2</ele>
        <time>2019-11-08T14:38:25Z</time>
      </trkpt>
      <trkpt lat="41.619346" lon="2.684467">
        <ele>3.8</ele>
        <time>2019-11-08T14:38:33Z</time>
      </trkpt>
      <trkpt lat="41.619414" lon="2.684614">
        <ele>3.6</ele>
        <time>2019-11-08T14:38:38Z</time>
      </trkpt>
      <trkpt lat="41.619484" lon="2.684847">
        <ele>3.3</ele>
        <time>2019-11-08T14:38:46Z</time>
      </trkpt>
      <trkpt lat="41.619509" lon="2.684935">
        <ele>3.3</ele>
        <time>2019-11-08T14:38:49Z</time>
      </trkpt>
      <trkpt lat="41.61957" lon="2.685188">
        <ele>2.9</ele>
        <time>2019-11-08T14:38:57Z</time>
      </trkpt>
      <trkpt lat="41.619619" lon="2.68545">
        <ele>2.4</ele>
        <time>2019-11-08T14:39:05Z</time>
      </trkpt>
      <trkpt lat="41.619704" lon="2.685691">
        <ele>2.4</ele>
        <time>2019-11-08T14:39:13Z</time>
      </trkpt>
      <trkpt lat="41.619755" lon="2.685937">
        <ele>2.6</ele>
        <time>2019-11-08T14:39:21Z</time>
      </trkpt>
      <trkpt lat="41.619822" lon="2.686188">
        <ele>2.7</ele>
        <time>2019-11-08T14:39:29Z</time>
      </trkpt>
      <trkpt lat="41.619858" lon="2.686311">
        <ele>2.8</ele>
        <time>2019-11-08T14:39:33Z</time>
      </trkpt>
      <trkpt lat="41.619917" lon="2.686553">
        <ele>2.9</ele>
        <time>2019-11-08T14:39:41Z</time>
      </trkpt>
      <trkpt lat="41.619991" lon="2.686791">
        <ele>3.2</ele>
        <time>2019-11-08T14:39:49Z</time>
      </trkpt>
      <trkpt lat="41.620071" lon="2.687023">
        <ele>3.6</ele>
        <time>2019-11-08T14:39:57Z</time>
      </trkpt>
      <trkpt lat="41.620126" lon="2.687203">
        <ele>4.1</ele>
        <time>2019-11-08T14:40:03Z</time>
      </trkpt>
      <trkpt lat="41.620237" lon="2.687418">
        <ele>3.8</ele>
        <time>2019-11-08T14:40:11Z</time>
      </trkpt>
      <trkpt lat="41.62035" lon="2.687645">
        <ele>3.3</ele>
        <time>2019-11-08T14:40:19Z</time>
      </trkpt>
      <trkpt lat="41.620417" lon="2.687825">
        <ele>3.1</ele>
        <time>2019-11-08T14:40:25Z</time>
      </trkpt>
      <trkpt lat="41.62049" lon="2.688072">
        <ele>3.1</ele>
        <time>2019-11-08T14:40:33Z</time>
      </trkpt>
      <trkpt lat="41.620579" lon="2.688309">
        <ele>3.2</ele>
        <time>2019-11-08T14:40:41Z</time>
      </trkpt>
      <trkpt lat="41.620648" lon="2.688548">
        <ele>3.2</ele>
        <time>2019-11-08T14:40:49Z</time>
      </trkpt>
      <trkpt lat="41.620699" lon="2.688805">
        <ele>3.5</ele>
        <time>2019-11-08T14:40:57Z</time>
      </trkpt>
      <trkpt lat="41.620717" lon="2.68897">
        <ele>3.8</ele>
        <time>2019-11-08T14:41:02Z</time>
      </trkpt>
      <trkpt lat="41.620768" lon="2.689198">
        <ele>4.2</ele>
        <time>2019-11-08T14:41:10Z</time>
      </trkpt>
      <trkpt lat="41.620776" lon="2.689336">
        <ele>4.5</ele>
        <time>2019-11-08T14:41:32Z</time>
      </trkpt>
      <trkpt lat="41.620789" lon="2.689354">
        <ele>4.5</ele>
        <time>2019-11-08T14:41:33Z</time>
      </trkpt>
      <trkpt lat="41.620837" lon="2.689473">
        <ele>4.7</ele>
        <time>2019-11-08T14:41:37Z</time>
      </trkpt>
      <trkpt lat="41.620859" lon="2.689535">
        <ele>4.8</ele>
        <time>2019-11-08T14:41:39Z</time>
      </trkpt>
      <trkpt lat="41.620922" lon="2.689773">
        <ele>5.1</ele>
        <time>2019-11-08T14:41:46Z</time>
      </trkpt>
      <trkpt lat="41.620998" lon="2.690008">
        <ele>5.2</ele>
        <time>2019-11-08T14:41:53Z</time>
      </trkpt>
      <trkpt lat="41.621057" lon="2.690248">
        <ele>5.2</ele>
        <time>2019-11-08T14:42:00Z</time>
      </trkpt>
      <trkpt lat="41.621127" lon="2.690502">
        <ele>5.1</ele>
        <time>2019-11-08T14:42:08Z</time>
      </trkpt>
      <trkpt lat="41.621189" lon="2.690735">
        <ele>5.2</ele>
        <time>2019-11-08T14:42:15Z</time>
      </trkpt>
      <trkpt lat="41.62125" lon="2.690941">
        <ele>5.2</ele>
        <time>2019-11-08T14:42:22Z</time>
      </trkpt>
      <trkpt lat="41.621245" lon="2.690956">
        <ele>5.2</ele>
        <time>2019-11-08T14:42:28Z</time>
      </trkpt>
      <trkpt lat="41.621327" lon="2.691201">
        <ele>5.3</ele>
        <time>2019-11-08T14:42:36Z</time>
      </trkpt>
      <trkpt lat="41.621422" lon="2.691427">
        <ele>5.3</ele>
        <time>2019-11-08T14:42:43Z</time>
      </trkpt>
      <trkpt lat="41.621498" lon="2.691614">
        <ele>5.4</ele>
        <time>2019-11-08T14:42:49Z</time>
      </trkpt>
      <trkpt lat="41.621582" lon="2.691864">
        <ele>4.6</ele>
        <time>2019-11-08T14:42:57Z</time>
      </trkpt>
      <trkpt lat="41.621675" lon="2.692076">
        <ele>4.3</ele>
        <time>2019-11-08T14:43:04Z</time>
      </trkpt>
      <trkpt lat="41.621747" lon="2.692294">
        <ele>4.2</ele>
        <time>2019-11-08T14:43:11Z</time>
      </trkpt>
      <trkpt lat="41.621801" lon="2.692548">
        <ele>4.2</ele>
        <time>2019-11-08T14:43:19Z</time>
      </trkpt>
      <trkpt lat="41.621824" lon="2.692645">
        <ele>4.2</ele>
        <time>2019-11-08T14:43:22Z</time>
      </trkpt>
      <trkpt lat="41.62189" lon="2.692903">
        <ele>4.1</ele>
        <time>2019-11-08T14:43:30Z</time>
      </trkpt>
      <trkpt lat="41.621956" lon="2.693141">
        <ele>4.1</ele>
        <time>2019-11-08T14:43:38Z</time>
      </trkpt>
      <trkpt lat="41.621965" lon="2.693157">
        <ele>4.1</ele>
        <time>2019-11-08T14:43:39Z</time>
      </trkpt>
      <trkpt lat="41.62212" lon="2.693116">
        <ele>6.5</ele>
        <time>2019-11-08T14:45:32Z</time>
      </trkpt>
      <trkpt lat="41.622138" lon="2.693116">
        <ele>6.6</ele>
        <time>2019-11-08T14:45:33Z</time>
      </trkpt>
      <trkpt lat="41.622293" lon="2.693084">
        <ele>8.3</ele>
        <time>2019-11-08T14:45:39Z</time>
      </trkpt>
      <trkpt lat="41.62236" lon="2.693095">
        <ele>8.4</ele>
        <time>2019-11-08T14:45:42Z</time>
      </trkpt>
      <trkpt lat="41.622479" lon="2.692981">
        <ele>9.2</ele>
        <time>2019-11-08T14:45:48Z</time>
      </trkpt>
      <trkpt lat="41.622534" lon="2.692779">
        <ele>9.4</ele>
        <time>2019-11-08T14:45:54Z</time>
      </trkpt>
      <trkpt lat="41.622561" lon="2.692731">
        <ele>9.5</ele>
        <time>2019-11-08T14:45:56Z</time>
      </trkpt>
      <trkpt lat="41.622691" lon="2.692636">
        <ele>9.2</ele>
        <time>2019-11-08T14:46:03Z</time>
      </trkpt>
      <trkpt lat="41.622739" lon="2.692591">
        <ele>9.1</ele>
        <time>2019-11-08T14:46:06Z</time>
      </trkpt>
      <trkpt lat="41.622911" lon="2.692495">
        <ele>8.7</ele>
        <time>2019-11-08T14:46:14Z</time>
      </trkpt>
      <trkpt lat="41.623057" lon="2.692383">
        <ele>8.9</ele>
        <time>2019-11-08T14:46:20Z</time>
      </trkpt>
      <trkpt lat="41.623236" lon="2.692276">
        <ele>9.2</ele>
        <time>2019-11-08T14:46:28Z</time>
      </trkpt>
      <trkpt lat="41.623414" lon="2.692172">
        <ele>9</ele>
        <time>2019-11-08T14:46:36Z</time>
      </trkpt>
      <trkpt lat="41.623599" lon="2.692085">
        <ele>8.2</ele>
        <time>2019-11-08T14:46:44Z</time>
      </trkpt>
      <trkpt lat="41.623672" lon="2.692031">
        <ele>7.8</ele>
        <time>2019-11-08T14:46:47Z</time>
      </trkpt>
      <trkpt lat="41.623858" lon="2.691953">
        <ele>7</ele>
        <time>2019-11-08T14:46:54Z</time>
      </trkpt>
      <trkpt lat="41.62403" lon="2.691847">
        <ele>7.2</ele>
        <time>2019-11-08T14:47:01Z</time>
      </trkpt>
      <trkpt lat="41.624208" lon="2.691717">
        <ele>7.6</ele>
        <time>2019-11-08T14:47:09Z</time>
      </trkpt>
      <trkpt lat="41.624368" lon="2.691596">
        <ele>7.9</ele>
        <time>2019-11-08T14:47:16Z</time>
      </trkpt>
      <trkpt lat="41.624535" lon="2.691489">
        <ele>8.5</ele>
        <time>2019-11-08T14:47:23Z</time>
      </trkpt>
      <trkpt lat="41.624715" lon="2.691368">
        <ele>8.9</ele>
        <time>2019-11-08T14:47:31Z</time>
      </trkpt>
      <trkpt lat="41.624899" lon="2.691248">
        <ele>9.4</ele>
        <time>2019-11-08T14:47:39Z</time>
      </trkpt>
      <trkpt lat="41.625051" lon="2.691117">
        <ele>9.9</ele>
        <time>2019-11-08T14:47:46Z</time>
      </trkpt>
      <trkpt lat="41.625215" lon="2.690996">
        <ele>9.8</ele>
        <time>2019-11-08T14:47:53Z</time>
      </trkpt>
      <trkpt lat="41.625379" lon="2.690863">
        <ele>9.8</ele>
        <time>2019-11-08T14:48:01Z</time>
      </trkpt>
      <trkpt lat="41.625542" lon="2.690726">
        <ele>10</ele>
        <time>2019-11-08T14:48:09Z</time>
      </trkpt>
      <trkpt lat="41.625711" lon="2.690588">
        <ele>10.1</ele>
        <time>2019-11-08T14:48:18Z</time>
      </trkpt>
      <trkpt lat="41.625859" lon="2.690515">
        <ele>10.2</ele>
        <time>2019-11-08T14:48:25Z</time>
      </trkpt>
      <trkpt lat="41.626029" lon="2.690403">
        <ele>10.2</ele>
        <time>2019-11-08T14:48:33Z</time>
      </trkpt>
      <trkpt lat="41.626196" lon="2.690297">
        <ele>10.2</ele>
        <time>2019-11-08T14:48:41Z</time>
      </trkpt>
      <trkpt lat="41.626374" lon="2.690235">
        <ele>10.2</ele>
        <time>2019-11-08T14:48:49Z</time>
      </trkpt>
      <trkpt lat="41.62656" lon="2.690154">
        <ele>10.3</ele>
        <time>2019-11-08T14:48:57Z</time>
      </trkpt>
      <trkpt lat="41.626705" lon="2.689982">
        <ele>10.8</ele>
        <time>2019-11-08T14:49:04Z</time>
      </trkpt>
      <trkpt lat="41.626876" lon="2.689859">
        <ele>11.3</ele>
        <time>2019-11-08T14:49:12Z</time>
      </trkpt>
      <trkpt lat="41.627049" lon="2.689734">
        <ele>11.8</ele>
        <time>2019-11-08T14:49:20Z</time>
      </trkpt>
      <trkpt lat="41.627215" lon="2.6896">
        <ele>12</ele>
        <time>2019-11-08T14:49:26Z</time>
      </trkpt>
      <trkpt lat="41.627391" lon="2.689456">
        <ele>12.4</ele>
        <time>2019-11-08T14:49:33Z</time>
      </trkpt>
      <trkpt lat="41.627558" lon="2.689326">
        <ele>13.1</ele>
        <time>2019-11-08T14:49:40Z</time>
      </trkpt>
      <trkpt lat="41.62763" lon="2.689297">
        <ele>13.4</ele>
        <time>2019-11-08T14:49:44Z</time>
      </trkpt>
      <trkpt lat="41.627734" lon="2.689461">
        <ele>13.5</ele>
        <time>2019-11-08T14:49:50Z</time>
      </trkpt>
      <trkpt lat="41.627868" lon="2.68968">
        <ele>13.8</ele>
        <time>2019-11-08T14:49:58Z</time>
      </trkpt>
      <trkpt lat="41.627952" lon="2.689788">
        <ele>13.8</ele>
        <time>2019-11-08T14:50:03Z</time>
      </trkpt>
      <trkpt lat="41.628128" lon="2.689716">
        <ele>14.5</ele>
        <time>2019-11-08T14:50:11Z</time>
      </trkpt>
      <trkpt lat="41.62817" lon="2.689695">
        <ele>14.6</ele>
        <time>2019-11-08T14:50:13Z</time>
      </trkpt>
      <trkpt lat="41.628293" lon="2.689667">
        <ele>14.9</ele>
        <time>2019-11-08T14:50:18Z</time>
      </trkpt>
      <trkpt lat="41.628436" lon="2.689766">
        <ele>15.2</ele>
        <time>2019-11-08T14:50:25Z</time>
      </trkpt>
      <trkpt lat="41.628598" lon="2.68966">
        <ele>15.5</ele>
        <time>2019-11-08T14:50:34Z</time>
      </trkpt>
      <trkpt lat="41.628674" lon="2.689594">
        <ele>15.6</ele>
        <time>2019-11-08T14:50:38Z</time>
      </trkpt>
      <trkpt lat="41.62873" lon="2.689476">
        <ele>15.8</ele>
        <time>2019-11-08T14:51:06Z</time>
      </trkpt>
      <trkpt lat="41.628735" lon="2.68948">
        <ele>15.8</ele>
        <time>2019-11-08T14:51:07Z</time>
      </trkpt>
      <trkpt lat="41.628936" lon="2.689433">
        <ele>15.9</ele>
        <time>2019-11-08T14:51:16Z</time>
      </trkpt>
      <trkpt lat="41.628991" lon="2.689506">
        <ele>15.9</ele>
        <time>2019-11-08T14:51:20Z</time>
      </trkpt>
      <trkpt lat="41.629048" lon="2.689618">
        <ele>16</ele>
        <time>2019-11-08T14:51:27Z</time>
      </trkpt>
      <trkpt lat="41.629131" lon="2.689858">
        <ele>15.3</ele>
        <time>2019-11-08T14:51:34Z</time>
      </trkpt>
      <trkpt lat="41.629207" lon="2.690084">
        <ele>14.7</ele>
        <time>2019-11-08T14:51:41Z</time>
      </trkpt>
      <trkpt lat="41.629274" lon="2.690305">
        <ele>14.1</ele>
        <time>2019-11-08T14:51:49Z</time>
      </trkpt>
      <trkpt lat="41.629358" lon="2.690555">
        <ele>13.5</ele>
        <time>2019-11-08T14:51:57Z</time>
      </trkpt>
      <trkpt lat="41.629422" lon="2.690785">
        <ele>13.2</ele>
        <time>2019-11-08T14:52:04Z</time>
      </trkpt>
      <trkpt lat="41.62948" lon="2.690995">
        <ele>12.9</ele>
        <time>2019-11-08T14:52:10Z</time>
      </trkpt>
      <trkpt lat="41.629534" lon="2.69124">
        <ele>12.6</ele>
        <time>2019-11-08T14:52:18Z</time>
      </trkpt>
      <trkpt lat="41.629594" lon="2.69147">
        <ele>12.3</ele>
        <time>2019-11-08T14:52:25Z</time>
      </trkpt>
      <trkpt lat="41.629641" lon="2.691729">
        <ele>12.3</ele>
        <time>2019-11-08T14:52:32Z</time>
      </trkpt>
      <trkpt lat="41.62969" lon="2.691965">
        <ele>12.3</ele>
        <time>2019-11-08T14:52:39Z</time>
      </trkpt>
      <trkpt lat="41.629783" lon="2.692198">
        <ele>12.2</ele>
        <time>2019-11-08T14:52:47Z</time>
      </trkpt>
      <trkpt lat="41.629819" lon="2.692269">
        <ele>12.2</ele>
        <time>2019-11-08T14:52:50Z</time>
      </trkpt>
      <trkpt lat="41.629827" lon="2.692259">
        <ele>12.2</ele>
        <time>2019-11-08T14:52:52Z</time>
      </trkpt>
      <trkpt lat="41.629796" lon="2.692178">
        <ele>12.2</ele>
        <time>2019-11-08T14:52:55Z</time>
      </trkpt>
      <trkpt lat="41.629734" lon="2.691974">
        <ele>12.2</ele>
        <time>2019-11-08T14:53:03Z</time>
      </trkpt>
      <trkpt lat="41.629791" lon="2.692119">
        <ele>12.2</ele>
        <time>2019-11-08T14:53:08Z</time>
      </trkpt>
      <trkpt lat="41.629854" lon="2.692202">
        <ele>12.3</ele>
        <time>2019-11-08T14:53:14Z</time>
      </trkpt>
      <trkpt lat="41.629965" lon="2.692225">
        <ele>12.3</ele>
        <time>2019-11-08T14:53:22Z</time>
      </trkpt>
      <trkpt lat="41.629925" lon="2.692056">
        <ele>12.3</ele>
        <time>2019-11-08T14:53:28Z</time>
      </trkpt>
      <trkpt lat="41.62992" lon="2.692028">
        <ele>12.3</ele>
        <time>2019-11-08T14:53:29Z</time>
      </trkpt>
      <trkpt lat="41.6299" lon="2.691949">
        <ele>12.2</ele>
        <time>2019-11-08T14:53:32Z</time>
      </trkpt>
      <trkpt lat="41.629908" lon="2.691926">
        <ele>12.2</ele>
        <time>2019-11-08T14:53:33Z</time>
      </trkpt>
      <trkpt lat="41.630072" lon="2.692055">
        <ele>12.2</ele>
        <time>2019-11-08T14:53:41Z</time>
      </trkpt>
      <trkpt lat="41.630083" lon="2.692086">
        <ele>12.2</ele>
        <time>2019-11-08T14:53:42Z</time>
      </trkpt>
      <trkpt lat="41.630138" lon="2.692241">
        <ele>12.4</ele>
        <time>2019-11-08T14:53:47Z</time>
      </trkpt>
      <trkpt lat="41.630225" lon="2.692384">
        <ele>12.7</ele>
        <time>2019-11-08T14:53:53Z</time>
      </trkpt>
      <trkpt lat="41.63035" lon="2.692451">
        <ele>12.8</ele>
        <time>2019-11-08T14:54:00Z</time>
      </trkpt>
      <trkpt lat="41.630339" lon="2.692583">
        <ele>12.8</ele>
        <time>2019-11-08T14:54:04Z</time>
      </trkpt>
      <trkpt lat="41.630201" lon="2.692757">
        <ele>12.5</ele>
        <time>2019-11-08T14:54:12Z</time>
      </trkpt>
      <trkpt lat="41.63021" lon="2.692823">
        <ele>12.4</ele>
        <time>2019-11-08T14:54:14Z</time>
      </trkpt>
      <trkpt lat="41.630285" lon="2.693054">
        <ele>11.9</ele>
        <time>2019-11-08T14:54:21Z</time>
      </trkpt>
      <trkpt lat="41.630328" lon="2.69331">
        <ele>11</ele>
        <time>2019-11-08T14:54:29Z</time>
      </trkpt>
      <trkpt lat="41.630376" lon="2.69345">
        <ele>10.5</ele>
        <time>2019-11-08T14:54:33Z</time>
      </trkpt>
      <trkpt lat="41.630459" lon="2.693669">
        <ele>10.1</ele>
        <time>2019-11-08T14:54:40Z</time>
      </trkpt>
      <trkpt lat="41.630544" lon="2.693891">
        <ele>10</ele>
        <time>2019-11-08T14:54:48Z</time>
      </trkpt>
      <trkpt lat="41.630629" lon="2.694111">
        <ele>9.9</ele>
        <time>2019-11-08T14:54:56Z</time>
      </trkpt>
      <trkpt lat="41.630696" lon="2.694342">
        <ele>9.9</ele>
        <time>2019-11-08T14:55:04Z</time>
      </trkpt>
      <trkpt lat="41.630747" lon="2.694584">
        <ele>9.9</ele>
        <time>2019-11-08T14:55:11Z</time>
      </trkpt>
      <trkpt lat="41.630811" lon="2.694812">
        <ele>10</ele>
        <time>2019-11-08T14:55:18Z</time>
      </trkpt>
      <trkpt lat="41.630874" lon="2.695045">
        <ele>10.1</ele>
        <time>2019-11-08T14:55:25Z</time>
      </trkpt>
      <trkpt lat="41.630925" lon="2.695207">
        <ele>10.4</ele>
        <time>2019-11-08T14:55:30Z</time>
      </trkpt>
      <trkpt lat="41.631031" lon="2.695437">
        <ele>10.7</ele>
        <time>2019-11-08T14:55:38Z</time>
      </trkpt>
      <trkpt lat="41.631104" lon="2.695678">
        <ele>11</ele>
        <time>2019-11-08T14:55:46Z</time>
      </trkpt>
      <trkpt lat="41.631189" lon="2.695912">
        <ele>11.5</ele>
        <time>2019-11-08T14:55:54Z</time>
      </trkpt>
      <trkpt lat="41.631221" lon="2.696082">
        <ele>11.7</ele>
        <time>2019-11-08T14:56:00Z</time>
      </trkpt>
      <trkpt lat="41.631288" lon="2.696326">
        <ele>12.2</ele>
        <time>2019-11-08T14:56:08Z</time>
      </trkpt>
      <trkpt lat="41.631367" lon="2.696562">
        <ele>12.8</ele>
        <time>2019-11-08T14:56:16Z</time>
      </trkpt>
      <trkpt lat="41.631539" lon="2.696627">
        <ele>14.6</ele>
        <time>2019-11-08T14:56:25Z</time>
      </trkpt>
      <trkpt lat="41.631697" lon="2.696503">
        <ele>16</ele>
        <time>2019-11-08T14:56:33Z</time>
      </trkpt>
      <trkpt lat="41.631819" lon="2.696475">
        <ele>16.9</ele>
        <time>2019-11-08T14:56:38Z</time>
      </trkpt>
      <trkpt lat="41.631885" lon="2.696576">
        <ele>17.9</ele>
        <time>2019-11-08T14:56:42Z</time>
      </trkpt>
      <trkpt lat="41.631972" lon="2.696802">
        <ele>19.7</ele>
        <time>2019-11-08T14:56:50Z</time>
      </trkpt>
      <trkpt lat="41.632006" lon="2.696976">
        <ele>21</ele>
        <time>2019-11-08T14:56:56Z</time>
      </trkpt>
      <trkpt lat="41.632046" lon="2.697132">
        <ele>22.3</ele>
        <time>2019-11-08T14:57:02Z</time>
      </trkpt>
      <trkpt lat="41.63216" lon="2.697136">
        <ele>23.5</ele>
        <time>2019-11-08T14:57:08Z</time>
      </trkpt>
      <trkpt lat="41.632338" lon="2.697065">
        <ele>25.6</ele>
        <time>2019-11-08T14:57:18Z</time>
      </trkpt>
      <trkpt lat="41.632355" lon="2.697072">
        <ele>25.8</ele>
        <time>2019-11-08T14:57:19Z</time>
      </trkpt>
      <trkpt lat="41.632332" lon="2.69721">
        <ele>27.3</ele>
        <time>2019-11-08T14:57:25Z</time>
      </trkpt>
      <trkpt lat="41.632246" lon="2.697408">
        <ele>29.8</ele>
        <time>2019-11-08T14:57:34Z</time>
      </trkpt>
      <trkpt lat="41.632305" lon="2.697642">
        <ele>33.1</ele>
        <time>2019-11-08T14:57:45Z</time>
      </trkpt>
      <trkpt lat="41.632425" lon="2.6977">
        <ele>35.6</ele>
        <time>2019-11-08T14:57:55Z</time>
      </trkpt>
      <trkpt lat="41.632499" lon="2.69767">
        <ele>37.1</ele>
        <time>2019-11-08T14:58:01Z</time>
      </trkpt>
      <trkpt lat="41.632589" lon="2.697639">
        <ele>38.8</ele>
        <time>2019-11-08T14:58:10Z</time>
      </trkpt>
      <trkpt lat="41.632645" lon="2.697608">
        <ele>39.9</ele>
        <time>2019-11-08T14:58:16Z</time>
      </trkpt>
      <trkpt lat="41.632835" lon="2.697562">
        <ele>43.2</ele>
        <time>2019-11-08T14:58:31Z</time>
      </trkpt>
      <trkpt lat="41.632848" lon="2.697558">
        <ele>43.4</ele>
        <time>2019-11-08T14:58:32Z</time>
      </trkpt>
      <trkpt lat="41.632884" lon="2.697534">
        <ele>44</ele>
        <time>2019-11-08T14:58:36Z</time>
      </trkpt>
      <trkpt lat="41.6331" lon="2.697439">
        <ele>47.2</ele>
        <time>2019-11-08T14:58:54Z</time>
      </trkpt>
      <trkpt lat="41.633282" lon="2.697386">
        <ele>49.7</ele>
        <time>2019-11-08T14:59:10Z</time>
      </trkpt>
      <trkpt lat="41.633404" lon="2.69731">
        <ele>51.4</ele>
        <time>2019-11-08T14:59:21Z</time>
      </trkpt>
      <trkpt lat="41.633516" lon="2.697277">
        <ele>52.8</ele>
        <time>2019-11-08T14:59:30Z</time>
      </trkpt>
      <trkpt lat="41.633615" lon="2.697249">
        <ele>54</ele>
        <time>2019-11-08T14:59:38Z</time>
      </trkpt>
      <trkpt lat="41.633806" lon="2.697208">
        <ele>56.4</ele>
        <time>2019-11-08T14:59:51Z</time>
      </trkpt>
      <trkpt lat="41.633995" lon="2.697204">
        <ele>58.1</ele>
        <time>2019-11-08T15:00:04Z</time>
      </trkpt>
      <trkpt lat="41.634085" lon="2.697232">
        <ele>58.8</ele>
        <time>2019-11-08T15:00:10Z</time>
      </trkpt>
      <trkpt lat="41.634262" lon="2.697333">
        <ele>59.9</ele>
        <time>2019-11-08T15:00:20Z</time>
      </trkpt>
      <trkpt lat="41.634402" lon="2.697508">
        <ele>60.6</ele>
        <time>2019-11-08T15:00:28Z</time>
      </trkpt>
      <trkpt lat="41.634471" lon="2.697745">
        <ele>60.7</ele>
        <time>2019-11-08T15:00:36Z</time>
      </trkpt>
      <trkpt lat="41.634381" lon="2.697967">
        <ele>61.2</ele>
        <time>2019-11-08T15:00:43Z</time>
      </trkpt>
      <trkpt lat="41.634224" lon="2.698125">
        <ele>61.5</ele>
        <time>2019-11-08T15:00:51Z</time>
      </trkpt>
      <trkpt lat="41.63408" lon="2.698245">
        <ele>61.6</ele>
        <time>2019-11-08T15:00:58Z</time>
      </trkpt>
      <trkpt lat="41.634033" lon="2.698274">
        <ele>61.6</ele>
        <time>2019-11-08T15:01:00Z</time>
      </trkpt>
      <trkpt lat="41.633944" lon="2.698325">
        <ele>61.8</ele>
        <time>2019-11-08T15:01:04Z</time>
      </trkpt>
      <trkpt lat="41.633807" lon="2.698161">
        <ele>62.7</ele>
        <time>2019-11-08T15:01:12Z</time>
      </trkpt>
      <trkpt lat="41.633878" lon="2.697912">
        <ele>63.5</ele>
        <time>2019-11-08T15:01:19Z</time>
      </trkpt>
      <trkpt lat="41.633976" lon="2.697669">
        <ele>63.7</ele>
        <time>2019-11-08T15:01:26Z</time>
      </trkpt>
      <trkpt lat="41.634157" lon="2.697659">
        <ele>63.1</ele>
        <time>2019-11-08T15:01:32Z</time>
      </trkpt>
      <trkpt lat="41.634183" lon="2.697686">
        <ele>63</ele>
        <time>2019-11-08T15:01:33Z</time>
      </trkpt>
      <trkpt lat="41.634231" lon="2.697905">
        <ele>62.9</ele>
        <time>2019-11-08T15:01:39Z</time>
      </trkpt>
      <trkpt lat="41.634096" lon="2.698084">
        <ele>62.4</ele>
        <time>2019-11-08T15:01:45Z</time>
      </trkpt>
      <trkpt lat="41.633971" lon="2.698257">
        <ele>61.6</ele>
        <time>2019-11-08T15:01:52Z</time>
      </trkpt>
      <trkpt lat="41.634062" lon="2.698233">
        <ele>61.6</ele>
        <time>2019-11-08T15:01:56Z</time>
      </trkpt>
      <trkpt lat="41.634211" lon="2.698083">
        <ele>61.5</ele>
        <time>2019-11-08T15:02:02Z</time>
      </trkpt>
      <trkpt lat="41.634351" lon="2.69791">
        <ele>61.1</ele>
        <time>2019-11-08T15:02:08Z</time>
      </trkpt>
      <trkpt lat="41.634444" lon="2.697708">
        <ele>60.7</ele>
        <time>2019-11-08T15:02:14Z</time>
      </trkpt>
      <trkpt lat="41.634408" lon="2.69754">
        <ele>60.6</ele>
        <time>2019-11-08T15:02:19Z</time>
      </trkpt>
      <trkpt lat="41.634382" lon="2.69748">
        <ele>60.6</ele>
        <time>2019-11-08T15:02:21Z</time>
      </trkpt>
      <trkpt lat="41.634516" lon="2.697485">
        <ele>61.4</ele>
        <time>2019-11-08T15:02:28Z</time>
      </trkpt>
      <trkpt lat="41.63455" lon="2.697541">
        <ele>61.6</ele>
        <time>2019-11-08T15:02:30Z</time>
      </trkpt>
      <trkpt lat="41.634671" lon="2.69772">
        <ele>62.1</ele>
        <time>2019-11-08T15:02:37Z</time>
      </trkpt>
      <trkpt lat="41.634816" lon="2.697795">
        <ele>62.6</ele>
        <time>2019-11-08T15:02:43Z</time>
      </trkpt>
      <trkpt lat="41.635019" lon="2.697783">
        <ele>62.9</ele>
        <time>2019-11-08T15:02:50Z</time>
      </trkpt>
      <trkpt lat="41.635178" lon="2.697782">
        <ele>62.6</ele>
        <time>2019-11-08T15:02:56Z</time>
      </trkpt>
      <trkpt lat="41.63537" lon="2.697777">
        <ele>61.1</ele>
        <time>2019-11-08T15:03:06Z</time>
      </trkpt>
      <trkpt lat="41.635392" lon="2.697773">
        <ele>61</ele>
        <time>2019-11-08T15:03:07Z</time>
      </trkpt>
      <trkpt lat="41.635459" lon="2.697784">
        <ele>60.8</ele>
        <time>2019-11-08T15:03:11Z</time>
      </trkpt>
      <trkpt lat="41.635518" lon="2.697794">
        <ele>60.7</ele>
        <time>2019-11-08T15:03:15Z</time>
      </trkpt>
      <trkpt lat="41.635544" lon="2.697815">
        <ele>60.8</ele>
        <time>2019-11-08T15:03:17Z</time>
      </trkpt>
      <trkpt lat="41.635655" lon="2.697827">
        <ele>61.4</ele>
        <time>2019-11-08T15:03:26Z</time>
      </trkpt>
      <trkpt lat="41.635806" lon="2.697795">
        <ele>63.9</ele>
        <time>2019-11-08T15:03:36Z</time>
      </trkpt>
      <trkpt lat="41.635934" lon="2.697719">
        <ele>67.1</ele>
        <time>2019-11-08T15:03:45Z</time>
      </trkpt>
      <trkpt lat="41.635982" lon="2.69766">
        <ele>68.5</ele>
        <time>2019-11-08T15:03:50Z</time>
      </trkpt>
      <trkpt lat="41.63601" lon="2.697588">
        <ele>69.7</ele>
        <time>2019-11-08T15:03:53Z</time>
      </trkpt>
      <trkpt lat="41.636072" lon="2.697506">
        <ele>71.6</ele>
        <time>2019-11-08T15:03:58Z</time>
      </trkpt>
      <trkpt lat="41.636083" lon="2.697501">
        <ele>71.8</ele>
        <time>2019-11-08T15:03:59Z</time>
      </trkpt>
      <trkpt lat="41.636123" lon="2.697468">
        <ele>72.7</ele>
        <time>2019-11-08T15:04:04Z</time>
      </trkpt>
      <trkpt lat="41.636186" lon="2.697415">
        <ele>74.3</ele>
        <time>2019-11-08T15:04:11Z</time>
      </trkpt>
      <trkpt lat="41.636255" lon="2.69736">
        <ele>75.9</ele>
        <time>2019-11-08T15:04:19Z</time>
      </trkpt>
      <trkpt lat="41.636306" lon="2.697286">
        <ele>77.7</ele>
        <time>2019-11-08T15:04:27Z</time>
      </trkpt>
      <trkpt lat="41.636342" lon="2.697254">
        <ele>78.8</ele>
        <time>2019-11-08T15:04:31Z</time>
      </trkpt>
      <trkpt lat="41.636519" lon="2.697142">
        <ele>82.9</ele>
        <time>2019-11-08T15:04:49Z</time>
      </trkpt>
      <trkpt lat="41.636597" lon="2.697094">
        <ele>84.4</ele>
        <time>2019-11-08T15:04:54Z</time>
      </trkpt>
      <trkpt lat="41.636699" lon="2.696935">
        <ele>86.1</ele>
        <time>2019-11-08T15:05:02Z</time>
      </trkpt>
      <trkpt lat="41.636848" lon="2.696775">
        <ele>87</ele>
        <time>2019-11-08T15:05:11Z</time>
      </trkpt>
      <trkpt lat="41.636987" lon="2.69662">
        <ele>87.8</ele>
        <time>2019-11-08T15:05:19Z</time>
      </trkpt>
      <trkpt lat="41.637144" lon="2.69646">
        <ele>87.8</ele>
        <time>2019-11-08T15:05:27Z</time>
      </trkpt>
      <trkpt lat="41.637281" lon="2.696288">
        <ele>87.8</ele>
        <time>2019-11-08T15:05:35Z</time>
      </trkpt>
      <trkpt lat="41.637434" lon="2.696107">
        <ele>87.8</ele>
        <time>2019-11-08T15:05:43Z</time>
      </trkpt>
      <trkpt lat="41.637589" lon="2.695961">
        <ele>87.8</ele>
        <time>2019-11-08T15:05:51Z</time>
      </trkpt>
      <trkpt lat="41.637744" lon="2.695826">
        <ele>87.7</ele>
        <time>2019-11-08T15:05:59Z</time>
      </trkpt>
      <trkpt lat="41.63788" lon="2.695622">
        <ele>87.7</ele>
        <time>2019-11-08T15:06:07Z</time>
      </trkpt>
      <trkpt lat="41.638016" lon="2.695442">
        <ele>87.6</ele>
        <time>2019-11-08T15:06:14Z</time>
      </trkpt>
      <trkpt lat="41.638176" lon="2.695279">
        <ele>87.4</ele>
        <time>2019-11-08T15:06:22Z</time>
      </trkpt>
      <trkpt lat="41.638322" lon="2.69511">
        <ele>86.9</ele>
        <time>2019-11-08T15:06:31Z</time>
      </trkpt>
      <trkpt lat="41.638369" lon="2.695054">
        <ele>86.5</ele>
        <time>2019-11-08T15:06:34Z</time>
      </trkpt>
      <trkpt lat="41.638418" lon="2.694951">
        <ele>85.7</ele>
        <time>2019-11-08T15:06:39Z</time>
      </trkpt>
      <trkpt lat="41.638518" lon="2.694727">
        <ele>87.6</ele>
        <time>2019-11-08T15:06:49Z</time>
      </trkpt>
      <trkpt lat="41.638533" lon="2.694681">
        <ele>88.2</ele>
        <time>2019-11-08T15:06:51Z</time>
      </trkpt>
      <trkpt lat="41.638644" lon="2.694534">
        <ele>90</ele>
        <time>2019-11-08T15:06:58Z</time>
      </trkpt>
      <trkpt lat="41.638788" lon="2.694432">
        <ele>91.1</ele>
        <time>2019-11-08T15:07:06Z</time>
      </trkpt>
      <trkpt lat="41.638879" lon="2.694308">
        <ele>91.9</ele>
        <time>2019-11-08T15:07:11Z</time>
      </trkpt>
      <trkpt lat="41.638958" lon="2.694078">
        <ele>93.8</ele>
        <time>2019-11-08T15:07:20Z</time>
      </trkpt>
      <trkpt lat="41.63897" lon="2.694039">
        <ele>94.3</ele>
        <time>2019-11-08T15:07:22Z</time>
      </trkpt>
      <trkpt lat="41.639013" lon="2.693957">
        <ele>95.4</ele>
        <time>2019-11-08T15:07:26Z</time>
      </trkpt>
      <trkpt lat="41.639175" lon="2.693811">
        <ele>97.7</ele>
        <time>2019-11-08T15:07:36Z</time>
      </trkpt>
      <trkpt lat="41.639325" lon="2.693711">
        <ele>100</ele>
        <time>2019-11-08T15:07:44Z</time>
      </trkpt>
      <trkpt lat="41.639442" lon="2.693529">
        <ele>103.4</ele>
        <time>2019-11-08T15:07:55Z</time>
      </trkpt>
      <trkpt lat="41.639471" lon="2.69329">
        <ele>105.8</ele>
        <time>2019-11-08T15:08:05Z</time>
      </trkpt>
      <trkpt lat="41.639482" lon="2.693237">
        <ele>106.4</ele>
        <time>2019-11-08T15:08:08Z</time>
      </trkpt>
      <trkpt lat="41.639634" lon="2.693093">
        <ele>121</ele>
        <time>2019-11-08T15:08:22Z</time>
      </trkpt>
      <trkpt lat="41.639752" lon="2.692894">
        <ele>122.5</ele>
        <time>2019-11-08T15:08:37Z</time>
      </trkpt>
      <trkpt lat="41.639816" lon="2.692676">
        <ele>124.1</ele>
        <time>2019-11-08T15:08:52Z</time>
      </trkpt>
      <trkpt lat="41.639827" lon="2.692595">
        <ele>124.5</ele>
        <time>2019-11-08T15:08:57Z</time>
      </trkpt>
      <trkpt lat="41.639824" lon="2.692536">
        <ele>124.7</ele>
        <time>2019-11-08T15:09:01Z</time>
      </trkpt>
      <trkpt lat="41.639775" lon="2.692286">
        <ele>125.4</ele>
        <time>2019-11-08T15:09:11Z</time>
      </trkpt>
      <trkpt lat="41.639694" lon="2.692043">
        <ele>126</ele>
        <time>2019-11-08T15:09:20Z</time>
      </trkpt>
      <trkpt lat="41.63964" lon="2.691942">
        <ele>126.2</ele>
        <time>2019-11-08T15:09:24Z</time>
      </trkpt>
      <trkpt lat="41.639578" lon="2.691859">
        <ele>126.5</ele>
        <time>2019-11-08T15:09:28Z</time>
      </trkpt>
      <trkpt lat="41.639412" lon="2.69172">
        <ele>126.8</ele>
        <time>2019-11-08T15:09:38Z</time>
      </trkpt>
      <trkpt lat="41.639231" lon="2.691667">
        <ele>126.7</ele>
        <time>2019-11-08T15:09:46Z</time>
      </trkpt>
      <trkpt lat="41.639124" lon="2.691644">
        <ele>126.6</ele>
        <time>2019-11-08T15:09:52Z</time>
      </trkpt>
      <trkpt lat="41.639028" lon="2.691608">
        <ele>126.4</ele>
        <time>2019-11-08T15:10:32Z</time>
      </trkpt>
      <trkpt lat="41.639014" lon="2.691392">
        <ele>126.3</ele>
        <time>2019-11-08T15:10:39Z</time>
      </trkpt>
      <trkpt lat="41.639078" lon="2.691141">
        <ele>126.3</ele>
        <time>2019-11-08T15:10:47Z</time>
      </trkpt>
      <trkpt lat="41.639139" lon="2.690897">
        <ele>127.4</ele>
        <time>2019-11-08T15:10:55Z</time>
      </trkpt>
      <trkpt lat="41.639173" lon="2.690697">
        <ele>128.3</ele>
        <time>2019-11-08T15:11:01Z</time>
      </trkpt>
      <trkpt lat="41.639231" lon="2.690465">
        <ele>129.2</ele>
        <time>2019-11-08T15:11:08Z</time>
      </trkpt>
      <trkpt lat="41.639365" lon="2.690228">
        <ele>130</ele>
        <time>2019-11-08T15:11:16Z</time>
      </trkpt>
      <trkpt lat="41.639465" lon="2.690002">
        <ele>130.8</ele>
        <time>2019-11-08T15:11:23Z</time>
      </trkpt>
      <trkpt lat="41.639556" lon="2.689774">
        <ele>131.4</ele>
        <time>2019-11-08T15:11:30Z</time>
      </trkpt>
      <trkpt lat="41.639629" lon="2.689535">
        <ele>130.5</ele>
        <time>2019-11-08T15:11:37Z</time>
      </trkpt>
      <trkpt lat="41.639656" lon="2.689421">
        <ele>129.3</ele>
        <time>2019-11-08T15:11:42Z</time>
      </trkpt>
      <trkpt lat="41.639653" lon="2.689418">
        <ele>129.2</ele>
        <time>2019-11-08T15:11:44Z</time>
      </trkpt>
      <trkpt lat="41.639678" lon="2.689429">
        <ele>128.8</ele>
        <time>2019-11-08T15:12:37Z</time>
      </trkpt>
      <trkpt lat="41.639675" lon="2.689424">
        <ele>128.8</ele>
        <time>2019-11-08T15:12:38Z</time>
      </trkpt>
      <trkpt lat="41.639655" lon="2.689378">
        <ele>128.1</ele>
        <time>2019-11-08T15:12:42Z</time>
      </trkpt>
      <trkpt lat="41.639646" lon="2.689348">
        <ele>127.7</ele>
        <time>2019-11-08T15:12:44Z</time>
      </trkpt>
      <trkpt lat="41.639625" lon="2.689263">
        <ele>126.3</ele>
        <time>2019-11-08T15:12:49Z</time>
      </trkpt>
      <trkpt lat="41.639608" lon="2.689186">
        <ele>124.9</ele>
        <time>2019-11-08T15:12:53Z</time>
      </trkpt>
      <trkpt lat="41.63951" lon="2.689041">
        <ele>120.7</ele>
        <time>2019-11-08T15:13:03Z</time>
      </trkpt>
      <trkpt lat="41.639465" lon="2.688945">
        <ele>118.1</ele>
        <time>2019-11-08T15:13:09Z</time>
      </trkpt>
      <trkpt lat="41.639463" lon="2.6889">
        <ele>117.1</ele>
        <time>2019-11-08T15:13:14Z</time>
      </trkpt>
      <trkpt lat="41.639382" lon="2.68884">
        <ele>114.2</ele>
        <time>2019-11-08T15:13:23Z</time>
      </trkpt>
      <trkpt lat="41.63935" lon="2.688687">
        <ele>110.6</ele>
        <time>2019-11-08T15:13:37Z</time>
      </trkpt>
      <trkpt lat="41.639192" lon="2.688665">
        <ele>105.6</ele>
        <time>2019-11-08T15:13:44Z</time>
      </trkpt>
      <trkpt lat="41.639152" lon="2.688651">
        <ele>104.2</ele>
        <time>2019-11-08T15:13:47Z</time>
      </trkpt>
      <trkpt lat="41.639065" lon="2.688635">
        <ele>101</ele>
        <time>2019-11-08T15:13:54Z</time>
      </trkpt>
      <trkpt lat="41.639036" lon="2.688581">
        <ele>99.2</ele>
        <time>2019-11-08T15:13:58Z</time>
      </trkpt>
      <trkpt lat="41.63898" lon="2.688523">
        <ele>96.5</ele>
        <time>2019-11-08T15:14:04Z</time>
      </trkpt>
      <trkpt lat="41.638892" lon="2.688451">
        <ele>92.6</ele>
        <time>2019-11-08T15:14:12Z</time>
      </trkpt>
      <trkpt lat="41.638881" lon="2.688443">
        <ele>92.2</ele>
        <time>2019-11-08T15:14:13Z</time>
      </trkpt>
      <trkpt lat="41.638849" lon="2.688377">
        <ele>90.5</ele>
        <time>2019-11-08T15:14:17Z</time>
      </trkpt>
      <trkpt lat="41.638844" lon="2.688354">
        <ele>89.9</ele>
        <time>2019-11-08T15:14:19Z</time>
      </trkpt>
      <trkpt lat="41.638804" lon="2.688338">
        <ele>88.7</ele>
        <time>2019-11-08T15:14:23Z</time>
      </trkpt>
      <trkpt lat="41.638792" lon="2.688333">
        <ele>88.3</ele>
        <time>2019-11-08T15:14:24Z</time>
      </trkpt>
      <trkpt lat="41.638752" lon="2.688292">
        <ele>86.8</ele>
        <time>2019-11-08T15:14:28Z</time>
      </trkpt>
      <trkpt lat="41.638743" lon="2.688289">
        <ele>86.6</ele>
        <time>2019-11-08T15:14:29Z</time>
      </trkpt>
      <trkpt lat="41.638716" lon="2.688386">
        <ele>85.7</ele>
        <time>2019-11-08T15:15:02Z</time>
      </trkpt>
      <trkpt lat="41.638719" lon="2.688371">
        <ele>85.6</ele>
        <time>2019-11-08T15:15:03Z</time>
      </trkpt>
      <trkpt lat="41.638736" lon="2.688291">
        <ele>85.4</ele>
        <time>2019-11-08T15:15:06Z</time>
      </trkpt>
      <trkpt lat="41.63874" lon="2.68826">
        <ele>85.3</ele>
        <time>2019-11-08T15:15:07Z</time>
      </trkpt>
      <trkpt lat="41.63881" lon="2.688062">
        <ele>85.6</ele>
        <time>2019-11-08T15:15:16Z</time>
      </trkpt>
      <trkpt lat="41.638934" lon="2.687983">
        <ele>86.2</ele>
        <time>2019-11-08T15:15:21Z</time>
      </trkpt>
      <trkpt lat="41.639006" lon="2.687882">
        <ele>86.5</ele>
        <time>2019-11-08T15:15:26Z</time>
      </trkpt>
      <trkpt lat="41.638997" lon="2.687717">
        <ele>86.7</ele>
        <time>2019-11-08T15:15:31Z</time>
      </trkpt>
      <trkpt lat="41.638953" lon="2.687449">
        <ele>87.2</ele>
        <time>2019-11-08T15:15:39Z</time>
      </trkpt>
      <trkpt lat="41.63895" lon="2.687383">
        <ele>87.4</ele>
        <time>2019-11-08T15:15:41Z</time>
      </trkpt>
      <trkpt lat="41.63901" lon="2.687297">
        <ele>87.9</ele>
        <time>2019-11-08T15:15:45Z</time>
      </trkpt>
      <trkpt lat="41.639047" lon="2.68727">
        <ele>88.1</ele>
        <time>2019-11-08T15:15:47Z</time>
      </trkpt>
      <trkpt lat="41.63911" lon="2.687264">
        <ele>88.6</ele>
        <time>2019-11-08T15:15:50Z</time>
      </trkpt>
      <trkpt lat="41.639172" lon="2.687243">
        <ele>89.2</ele>
        <time>2019-11-08T15:15:53Z</time>
      </trkpt>
      <trkpt lat="41.639243" lon="2.687214">
        <ele>89.8</ele>
        <time>2019-11-08T15:15:57Z</time>
      </trkpt>
      <trkpt lat="41.639298" lon="2.6872">
        <ele>90.4</ele>
        <time>2019-11-08T15:16:01Z</time>
      </trkpt>
      <trkpt lat="41.639368" lon="2.687195">
        <ele>91.1</ele>
        <time>2019-11-08T15:16:06Z</time>
      </trkpt>
      <trkpt lat="41.639426" lon="2.687192">
        <ele>91.6</ele>
        <time>2019-11-08T15:16:10Z</time>
      </trkpt>
      <trkpt lat="41.639503" lon="2.687194">
        <ele>92.3</ele>
        <time>2019-11-08T15:16:15Z</time>
      </trkpt>
      <trkpt lat="41.63964" lon="2.687115">
        <ele>93.8</ele>
        <time>2019-11-08T15:16:23Z</time>
      </trkpt>
      <trkpt lat="41.639708" lon="2.687072">
        <ele>94.6</ele>
        <time>2019-11-08T15:16:27Z</time>
      </trkpt>
      <trkpt lat="41.639788" lon="2.687047">
        <ele>95.5</ele>
        <time>2019-11-08T15:16:32Z</time>
      </trkpt>
      <trkpt lat="41.639882" lon="2.686933">
        <ele>96.8</ele>
        <time>2019-11-08T15:16:38Z</time>
      </trkpt>
      <trkpt lat="41.639989" lon="2.686805">
        <ele>98.1</ele>
        <time>2019-11-08T15:16:45Z</time>
      </trkpt>
      <trkpt lat="41.639926" lon="2.686685">
        <ele>98.9</ele>
        <time>2019-11-08T15:16:51Z</time>
      </trkpt>
      <trkpt lat="41.639751" lon="2.686546">
        <ele>100.1</ele>
        <time>2019-11-08T15:17:00Z</time>
      </trkpt>
      <trkpt lat="41.639631" lon="2.686351">
        <ele>100.8</ele>
        <time>2019-11-08T15:17:08Z</time>
      </trkpt>
      <trkpt lat="41.639606" lon="2.686244">
        <ele>101.2</ele>
        <time>2019-11-08T15:17:12Z</time>
      </trkpt>
      <trkpt lat="41.639671" lon="2.68614">
        <ele>101.5</ele>
        <time>2019-11-08T15:17:17Z</time>
      </trkpt>
      <trkpt lat="41.639729" lon="2.686094">
        <ele>101.7</ele>
        <time>2019-11-08T15:17:20Z</time>
      </trkpt>
      <trkpt lat="41.639836" lon="2.686069">
        <ele>102.3</ele>
        <time>2019-11-08T15:17:24Z</time>
      </trkpt>
      <trkpt lat="41.639949" lon="2.68604">
        <ele>103</ele>
        <time>2019-11-08T15:17:29Z</time>
      </trkpt>
      <trkpt lat="41.64012" lon="2.685927">
        <ele>103.9</ele>
        <time>2019-11-08T15:17:36Z</time>
      </trkpt>
      <trkpt lat="41.640287" lon="2.685802">
        <ele>104.8</ele>
        <time>2019-11-08T15:17:44Z</time>
      </trkpt>
      <trkpt lat="41.64045" lon="2.685663">
        <ele>105.1</ele>
        <time>2019-11-08T15:17:51Z</time>
      </trkpt>
      <trkpt lat="41.640511" lon="2.685585">
        <ele>105.1</ele>
        <time>2019-11-08T15:17:55Z</time>
      </trkpt>
      <trkpt lat="41.640499" lon="2.685568">
        <ele>105</ele>
        <time>2019-11-08T15:17:56Z</time>
      </trkpt>
      <trkpt lat="41.640593" lon="2.685429">
        <ele>104.8</ele>
        <time>2019-11-08T15:18:04Z</time>
      </trkpt>
      <trkpt lat="41.640618" lon="2.685435">
        <ele>104.7</ele>
        <time>2019-11-08T15:18:05Z</time>
      </trkpt>
      <trkpt lat="41.640764" lon="2.68554">
        <ele>104.4</ele>
        <time>2019-11-08T15:18:12Z</time>
      </trkpt>
      <trkpt lat="41.640817" lon="2.685527">
        <ele>104.3</ele>
        <time>2019-11-08T15:18:14Z</time>
      </trkpt>
      <trkpt lat="41.64101" lon="2.685462">
        <ele>104.1</ele>
        <time>2019-11-08T15:18:22Z</time>
      </trkpt>
      <trkpt lat="41.641042" lon="2.685441">
        <ele>104.1</ele>
        <time>2019-11-08T15:18:24Z</time>
      </trkpt>
      <trkpt lat="41.641124" lon="2.685426">
        <ele>104.1</ele>
        <time>2019-11-08T15:18:28Z</time>
      </trkpt>
      <trkpt lat="41.641326" lon="2.685447">
        <ele>104.2</ele>
        <time>2019-11-08T15:18:36Z</time>
      </trkpt>
      <trkpt lat="41.641428" lon="2.685466">
        <ele>104.3</ele>
        <time>2019-11-08T15:18:42Z</time>
      </trkpt>
      <trkpt lat="41.641484" lon="2.685372">
        <ele>104.4</ele>
        <time>2019-11-08T15:18:46Z</time>
      </trkpt>
      <trkpt lat="41.641397" lon="2.685148">
        <ele>101.5</ele>
        <time>2019-11-08T15:18:56Z</time>
      </trkpt>
      <trkpt lat="41.641284" lon="2.68494">
        <ele>97.4</ele>
        <time>2019-11-08T15:19:05Z</time>
      </trkpt>
      <trkpt lat="41.641176" lon="2.684882">
        <ele>95.6</ele>
        <time>2019-11-08T15:19:12Z</time>
      </trkpt>
      <trkpt lat="41.641111" lon="2.684772">
        <ele>94.2</ele>
        <time>2019-11-08T15:19:17Z</time>
      </trkpt>
      <trkpt lat="41.640994" lon="2.684585">
        <ele>91.8</ele>
        <time>2019-11-08T15:19:26Z</time>
      </trkpt>
      <trkpt lat="41.640953" lon="2.684496">
        <ele>90.5</ele>
        <time>2019-11-08T15:19:30Z</time>
      </trkpt>
      <trkpt lat="41.641006" lon="2.684296">
        <ele>87.5</ele>
        <time>2019-11-08T15:19:38Z</time>
      </trkpt>
      <trkpt lat="41.641058" lon="2.684062">
        <ele>88.1</ele>
        <time>2019-11-08T15:19:46Z</time>
      </trkpt>
      <trkpt lat="41.641183" lon="2.683878">
        <ele>88.8</ele>
        <time>2019-11-08T15:19:54Z</time>
      </trkpt>
      <trkpt lat="41.641372" lon="2.683835">
        <ele>89.2</ele>
        <time>2019-11-08T15:20:02Z</time>
      </trkpt>
      <trkpt lat="41.641402" lon="2.683813">
        <ele>89.2</ele>
        <time>2019-11-08T15:20:04Z</time>
      </trkpt>
      <trkpt lat="41.641571" lon="2.683794">
        <ele>89.5</ele>
        <time>2019-11-08T15:20:14Z</time>
      </trkpt>
      <trkpt lat="41.641763" lon="2.683806">
        <ele>90</ele>
        <time>2019-11-08T15:20:25Z</time>
      </trkpt>
      <trkpt lat="41.641954" lon="2.68374">
        <ele>90</ele>
        <time>2019-11-08T15:20:33Z</time>
      </trkpt>
      <trkpt lat="41.642038" lon="2.683748">
        <ele>89.9</ele>
        <time>2019-11-08T15:20:37Z</time>
      </trkpt>
      <trkpt lat="41.642181" lon="2.683728">
        <ele>89.2</ele>
        <time>2019-11-08T15:20:45Z</time>
      </trkpt>
      <trkpt lat="41.642281" lon="2.683659">
        <ele>88</ele>
        <time>2019-11-08T15:20:50Z</time>
      </trkpt>
      <trkpt lat="41.642465" lon="2.683615">
        <ele>85.7</ele>
        <time>2019-11-08T15:20:57Z</time>
      </trkpt>
      <trkpt lat="41.642631" lon="2.68361">
        <ele>84.1</ele>
        <time>2019-11-08T15:21:04Z</time>
      </trkpt>
      <trkpt lat="41.642659" lon="2.68347">
        <ele>83.4</ele>
        <time>2019-11-08T15:21:09Z</time>
      </trkpt>
      <trkpt lat="41.642647" lon="2.683439">
        <ele>83.2</ele>
        <time>2019-11-08T15:21:10Z</time>
      </trkpt>
      <trkpt lat="41.642495" lon="2.683279">
        <ele>82.9</ele>
        <time>2019-11-08T15:21:19Z</time>
      </trkpt>
      <trkpt lat="41.642345" lon="2.683133">
        <ele>83.5</ele>
        <time>2019-11-08T15:21:27Z</time>
      </trkpt>
      <trkpt lat="41.642334" lon="2.683111">
        <ele>83.7</ele>
        <time>2019-11-08T15:21:28Z</time>
      </trkpt>
      <trkpt lat="41.64234" lon="2.68301">
        <ele>84.3</ele>
        <time>2019-11-08T15:21:32Z</time>
      </trkpt>
      <trkpt lat="41.642346" lon="2.682958">
        <ele>84.8</ele>
        <time>2019-11-08T15:21:36Z</time>
      </trkpt>
      <trkpt lat="41.642299" lon="2.682719">
        <ele>87.1</ele>
        <time>2019-11-08T15:21:48Z</time>
      </trkpt>
      <trkpt lat="41.642278" lon="2.68261">
        <ele>87.6</ele>
        <time>2019-11-08T15:21:52Z</time>
      </trkpt>
      <trkpt lat="41.642268" lon="2.682518">
        <ele>87.6</ele>
        <time>2019-11-08T15:21:55Z</time>
      </trkpt>
      <trkpt lat="41.642169" lon="2.682316">
        <ele>86.6</ele>
        <time>2019-11-08T15:22:04Z</time>
      </trkpt>
      <trkpt lat="41.642129" lon="2.682266">
        <ele>85.9</ele>
        <time>2019-11-08T15:22:07Z</time>
      </trkpt>
      <trkpt lat="41.642137" lon="2.682172">
        <ele>84.9</ele>
        <time>2019-11-08T15:22:11Z</time>
      </trkpt>
      <trkpt lat="41.642194" lon="2.681926">
        <ele>82.4</ele>
        <time>2019-11-08T15:22:18Z</time>
      </trkpt>
      <trkpt lat="41.642243" lon="2.681827">
        <ele>81.7</ele>
        <time>2019-11-08T15:22:21Z</time>
      </trkpt>
      <trkpt lat="41.642331" lon="2.681584">
        <ele>80</ele>
        <time>2019-11-08T15:22:28Z</time>
      </trkpt>
      <trkpt lat="41.642414" lon="2.681326">
        <ele>78.5</ele>
        <time>2019-11-08T15:22:35Z</time>
      </trkpt>
      <trkpt lat="41.642511" lon="2.681094">
        <ele>77.5</ele>
        <time>2019-11-08T15:22:42Z</time>
      </trkpt>
      <trkpt lat="41.642574" lon="2.680849">
        <ele>76.7</ele>
        <time>2019-11-08T15:22:49Z</time>
      </trkpt>
      <trkpt lat="41.642646" lon="2.680601">
        <ele>76</ele>
        <time>2019-11-08T15:22:56Z</time>
      </trkpt>
      <trkpt lat="41.64276" lon="2.680383">
        <ele>74.8</ele>
        <time>2019-11-08T15:23:03Z</time>
      </trkpt>
      <trkpt lat="41.642866" lon="2.680179">
        <ele>73.6</ele>
        <time>2019-11-08T15:23:09Z</time>
      </trkpt>
      <trkpt lat="41.643012" lon="2.68">
        <ele>72.9</ele>
        <time>2019-11-08T15:23:17Z</time>
      </trkpt>
      <trkpt lat="41.64317" lon="2.679861">
        <ele>72.1</ele>
        <time>2019-11-08T15:23:27Z</time>
      </trkpt>
      <trkpt lat="41.643226" lon="2.679816">
        <ele>71.7</ele>
        <time>2019-11-08T15:23:31Z</time>
      </trkpt>
      <trkpt lat="41.643342" lon="2.679725">
        <ele>70.7</ele>
        <time>2019-11-08T15:23:39Z</time>
      </trkpt>
      <trkpt lat="41.643447" lon="2.679606">
        <ele>69.2</ele>
        <time>2019-11-08T15:23:46Z</time>
      </trkpt>
      <trkpt lat="41.64359" lon="2.679428">
        <ele>66.3</ele>
        <time>2019-11-08T15:23:55Z</time>
      </trkpt>
      <trkpt lat="41.643616" lon="2.679398">
        <ele>65.6</ele>
        <time>2019-11-08T15:23:58Z</time>
      </trkpt>
      <trkpt lat="41.643748" lon="2.679264">
        <ele>62.5</ele>
        <time>2019-11-08T15:24:08Z</time>
      </trkpt>
      <trkpt lat="41.643859" lon="2.679097">
        <ele>59.3</ele>
        <time>2019-11-08T15:24:17Z</time>
      </trkpt>
      <trkpt lat="41.643889" lon="2.678836">
        <ele>56.1</ele>
        <time>2019-11-08T15:24:27Z</time>
      </trkpt>
      <trkpt lat="41.643891" lon="2.678636">
        <ele>54.3</ele>
        <time>2019-11-08T15:24:34Z</time>
      </trkpt>
      <trkpt lat="41.643904" lon="2.678506">
        <ele>53.6</ele>
        <time>2019-11-08T15:24:40Z</time>
      </trkpt>
      <trkpt lat="41.643887" lon="2.678295">
        <ele>53</ele>
        <time>2019-11-08T15:24:49Z</time>
      </trkpt>
      <trkpt lat="41.643895" lon="2.678024">
        <ele>52.7</ele>
        <time>2019-11-08T15:24:58Z</time>
      </trkpt>
      <trkpt lat="41.643907" lon="2.677951">
        <ele>52.7</ele>
        <time>2019-11-08T15:25:00Z</time>
      </trkpt>
      <trkpt lat="41.644018" lon="2.677759">
        <ele>52.8</ele>
        <time>2019-11-08T15:25:08Z</time>
      </trkpt>
      <trkpt lat="41.644152" lon="2.677588">
        <ele>53.1</ele>
        <time>2019-11-08T15:25:16Z</time>
      </trkpt>
      <trkpt lat="41.644285" lon="2.677409">
        <ele>53.4</ele>
        <time>2019-11-08T15:25:25Z</time>
      </trkpt>
      <trkpt lat="41.644428" lon="2.677289">
        <ele>53.9</ele>
        <time>2019-11-08T15:25:32Z</time>
      </trkpt>
      <trkpt lat="41.644533" lon="2.677212">
        <ele>54.2</ele>
        <time>2019-11-08T15:25:37Z</time>
      </trkpt>
      <trkpt lat="41.64471" lon="2.67716">
        <ele>55</ele>
        <time>2019-11-08T15:25:44Z</time>
      </trkpt>
      <trkpt lat="41.644889" lon="2.677171">
        <ele>56.4</ele>
        <time>2019-11-08T15:25:52Z</time>
      </trkpt>
      <trkpt lat="41.645071" lon="2.677246">
        <ele>58.3</ele>
        <time>2019-11-08T15:25:59Z</time>
      </trkpt>
      <trkpt lat="41.64514" lon="2.677283">
        <ele>59</ele>
        <time>2019-11-08T15:26:02Z</time>
      </trkpt>
      <trkpt lat="41.645277" lon="2.677467">
        <ele>61</ele>
        <time>2019-11-08T15:26:13Z</time>
      </trkpt>
      <trkpt lat="41.645295" lon="2.677478">
        <ele>61.3</ele>
        <time>2019-11-08T15:26:14Z</time>
      </trkpt>
      <trkpt lat="41.645379" lon="2.677526">
        <ele>62.3</ele>
        <time>2019-11-08T15:26:18Z</time>
      </trkpt>
      <trkpt lat="41.645563" lon="2.677625">
        <ele>64.6</ele>
        <time>2019-11-08T15:26:27Z</time>
      </trkpt>
      <trkpt lat="41.645702" lon="2.677718">
        <ele>66.5</ele>
        <time>2019-11-08T15:26:38Z</time>
      </trkpt>
      <trkpt lat="41.645727" lon="2.677723">
        <ele>66.8</ele>
        <time>2019-11-08T15:26:40Z</time>
      </trkpt>
      <trkpt lat="41.645783" lon="2.677602">
        <ele>66.3</ele>
        <time>2019-11-08T15:29:07Z</time>
      </trkpt>
      <trkpt lat="41.645775" lon="2.677603">
        <ele>66.2</ele>
        <time>2019-11-08T15:29:08Z</time>
      </trkpt>
      <trkpt lat="41.645763" lon="2.677592">
        <ele>66</ele>
        <time>2019-11-08T15:29:09Z</time>
      </trkpt>
      <trkpt lat="41.645706" lon="2.677529">
        <ele>65</ele>
        <time>2019-11-08T15:29:12Z</time>
      </trkpt>
      <trkpt lat="41.645583" lon="2.677319">
        <ele>62.6</ele>
        <time>2019-11-08T15:29:18Z</time>
      </trkpt>
      <trkpt lat="41.645563" lon="2.677288">
        <ele>62.2</ele>
        <time>2019-11-08T15:29:19Z</time>
      </trkpt>
      <trkpt lat="41.645542" lon="2.67726">
        <ele>61.4</ele>
        <time>2019-11-08T15:29:20Z</time>
      </trkpt>
      <trkpt lat="41.645514" lon="2.6772">
        <ele>61.1</ele>
        <time>2019-11-08T15:29:22Z</time>
      </trkpt>
      <trkpt lat="41.645539" lon="2.676949">
        <ele>59.7</ele>
        <time>2019-11-08T15:29:29Z</time>
      </trkpt>
      <trkpt lat="41.645555" lon="2.676878">
        <ele>59.4</ele>
        <time>2019-11-08T15:29:31Z</time>
      </trkpt>
      <trkpt lat="41.645684" lon="2.676679">
        <ele>58.4</ele>
        <time>2019-11-08T15:29:38Z</time>
      </trkpt>
      <trkpt lat="41.645842" lon="2.676498">
        <ele>57.6</ele>
        <time>2019-11-08T15:29:45Z</time>
      </trkpt>
      <trkpt lat="41.645919" lon="2.676335">
        <ele>56.8</ele>
        <time>2019-11-08T15:29:50Z</time>
      </trkpt>
      <trkpt lat="41.645977" lon="2.676067">
        <ele>55.9</ele>
        <time>2019-11-08T15:29:57Z</time>
      </trkpt>
      <trkpt lat="41.646129" lon="2.675877">
        <ele>56.6</ele>
        <time>2019-11-08T15:30:04Z</time>
      </trkpt>
      <trkpt lat="41.646275" lon="2.675685">
        <ele>57.5</ele>
        <time>2019-11-08T15:30:11Z</time>
      </trkpt>
      <trkpt lat="41.646372" lon="2.675467">
        <ele>57.5</ele>
        <time>2019-11-08T15:30:18Z</time>
      </trkpt>
      <trkpt lat="41.646422" lon="2.675238">
        <ele>57.5</ele>
        <time>2019-11-08T15:30:25Z</time>
      </trkpt>
      <trkpt lat="41.646446" lon="2.675053">
        <ele>57.8</ele>
        <time>2019-11-08T15:30:32Z</time>
      </trkpt>
      <trkpt lat="41.646478" lon="2.674953">
        <ele>57.9</ele>
        <time>2019-11-08T15:30:36Z</time>
      </trkpt>
      <trkpt lat="41.646539" lon="2.674872">
        <ele>58.3</ele>
        <time>2019-11-08T15:30:40Z</time>
      </trkpt>
      <trkpt lat="41.646673" lon="2.674727">
        <ele>58.8</ele>
        <time>2019-11-08T15:30:47Z</time>
      </trkpt>
      <trkpt lat="41.646744" lon="2.674643">
        <ele>59</ele>
        <time>2019-11-08T15:30:51Z</time>
      </trkpt>
      <trkpt lat="41.646848" lon="2.674513">
        <ele>59.3</ele>
        <time>2019-11-08T15:30:57Z</time>
      </trkpt>
      <trkpt lat="41.646984" lon="2.674321">
        <ele>59.8</ele>
        <time>2019-11-08T15:31:05Z</time>
      </trkpt>
      <trkpt lat="41.647063" lon="2.674166">
        <ele>60.3</ele>
        <time>2019-11-08T15:31:11Z</time>
      </trkpt>
      <trkpt lat="41.647128" lon="2.673961">
        <ele>60.9</ele>
        <time>2019-11-08T15:31:19Z</time>
      </trkpt>
      <trkpt lat="41.646996" lon="2.674115">
        <ele>61.5</ele>
        <time>2019-11-08T15:31:28Z</time>
      </trkpt>
      <trkpt lat="41.646983" lon="2.674137">
        <ele>61.5</ele>
        <time>2019-11-08T15:31:29Z</time>
      </trkpt>
      <trkpt lat="41.646826" lon="2.674272">
        <ele>62.1</ele>
        <time>2019-11-08T15:31:37Z</time>
      </trkpt>
      <trkpt lat="41.646653" lon="2.674348">
        <ele>62.6</ele>
        <time>2019-11-08T15:31:46Z</time>
      </trkpt>
      <trkpt lat="41.646477" lon="2.674427">
        <ele>63.7</ele>
        <time>2019-11-08T15:31:57Z</time>
      </trkpt>
      <trkpt lat="41.646296" lon="2.674356">
        <ele>65</ele>
        <time>2019-11-08T15:32:08Z</time>
      </trkpt>
      <trkpt lat="41.646161" lon="2.674152">
        <ele>66.2</ele>
        <time>2019-11-08T15:32:17Z</time>
      </trkpt>
      <trkpt lat="41.645992" lon="2.674008">
        <ele>66.7</ele>
        <time>2019-11-08T15:32:25Z</time>
      </trkpt>
      <trkpt lat="41.645823" lon="2.674079">
        <ele>68.2</ele>
        <time>2019-11-08T15:32:35Z</time>
      </trkpt>
      <trkpt lat="41.645748" lon="2.674191">
        <ele>69.7</ele>
        <time>2019-11-08T15:32:42Z</time>
      </trkpt>
      <trkpt lat="41.645597" lon="2.674185">
        <ele>72.2</ele>
        <time>2019-11-08T15:32:52Z</time>
      </trkpt>
      <trkpt lat="41.64559" lon="2.674162">
        <ele>72.4</ele>
        <time>2019-11-08T15:32:53Z</time>
      </trkpt>
      <trkpt lat="41.645509" lon="2.673936">
        <ele>74.3</ele>
        <time>2019-11-08T15:33:03Z</time>
      </trkpt>
      <trkpt lat="41.645463" lon="2.673694">
        <ele>76.3</ele>
        <time>2019-11-08T15:33:13Z</time>
      </trkpt>
      <trkpt lat="41.64542" lon="2.673545">
        <ele>77.5</ele>
        <time>2019-11-08T15:33:19Z</time>
      </trkpt>
      <trkpt lat="41.645344" lon="2.673325">
        <ele>79.2</ele>
        <time>2019-11-08T15:33:28Z</time>
      </trkpt>
      <trkpt lat="41.64532" lon="2.673081">
        <ele>80.8</ele>
        <time>2019-11-08T15:33:37Z</time>
      </trkpt>
      <trkpt lat="41.64529" lon="2.672863">
        <ele>82.3</ele>
        <time>2019-11-08T15:33:46Z</time>
      </trkpt>
      <trkpt lat="41.645219" lon="2.672699">
        <ele>83.7</ele>
        <time>2019-11-08T15:33:54Z</time>
      </trkpt>
      <trkpt lat="41.64518" lon="2.672649">
        <ele>84.2</ele>
        <time>2019-11-08T15:33:57Z</time>
      </trkpt>
      <trkpt lat="41.645054" lon="2.672476">
        <ele>85.9</ele>
        <time>2019-11-08T15:34:06Z</time>
      </trkpt>
      <trkpt lat="41.644996" lon="2.672247">
        <ele>87.7</ele>
        <time>2019-11-08T15:34:16Z</time>
      </trkpt>
      <trkpt lat="41.645004" lon="2.672224">
        <ele>87.9</ele>
        <time>2019-11-08T15:34:17Z</time>
      </trkpt>
      <trkpt lat="41.645165" lon="2.672145">
        <ele>89.4</ele>
        <time>2019-11-08T15:34:28Z</time>
      </trkpt>
      <trkpt lat="41.645368" lon="2.672131">
        <ele>91.3</ele>
        <time>2019-11-08T15:34:38Z</time>
      </trkpt>
      <trkpt lat="41.64554" lon="2.672104">
        <ele>93.2</ele>
        <time>2019-11-08T15:34:46Z</time>
      </trkpt>
      <trkpt lat="41.645698" lon="2.672036">
        <ele>94.9</ele>
        <time>2019-11-08T15:34:57Z</time>
      </trkpt>
      <trkpt lat="41.645695" lon="2.671898">
        <ele>95.9</ele>
        <time>2019-11-08T15:35:04Z</time>
      </trkpt>
      <trkpt lat="41.645557" lon="2.671743">
        <ele>97.6</ele>
        <time>2019-11-08T15:35:17Z</time>
      </trkpt>
      <trkpt lat="41.645377" lon="2.67175">
        <ele>99.1</ele>
        <time>2019-11-08T15:35:29Z</time>
      </trkpt>
      <trkpt lat="41.645332" lon="2.671718">
        <ele>99.5</ele>
        <time>2019-11-08T15:35:32Z</time>
      </trkpt>
      <trkpt lat="41.64534" lon="2.671471">
        <ele>101.4</ele>
        <time>2019-11-08T15:35:43Z</time>
      </trkpt>
      <trkpt lat="41.645344" lon="2.671222">
        <ele>103.7</ele>
        <time>2019-11-08T15:35:53Z</time>
      </trkpt>
      <trkpt lat="41.64532" lon="2.671001">
        <ele>105.3</ele>
        <time>2019-11-08T15:36:02Z</time>
      </trkpt>
      <trkpt lat="41.645297" lon="2.670896">
        <ele>106.1</ele>
        <time>2019-11-08T15:36:07Z</time>
      </trkpt>
      <trkpt lat="41.645265" lon="2.670797">
        <ele>107</ele>
        <time>2019-11-08T15:36:11Z</time>
      </trkpt>
      <trkpt lat="41.645202" lon="2.670572">
        <ele>108.7</ele>
        <time>2019-11-08T15:36:21Z</time>
      </trkpt>
      <trkpt lat="41.645093" lon="2.670372">
        <ele>110</ele>
        <time>2019-11-08T15:36:32Z</time>
      </trkpt>
      <trkpt lat="41.644964" lon="2.670188">
        <ele>111.2</ele>
        <time>2019-11-08T15:36:43Z</time>
      </trkpt>
      <trkpt lat="41.644924" lon="2.670174">
        <ele>111.5</ele>
        <time>2019-11-08T15:36:45Z</time>
      </trkpt>
      <trkpt lat="41.644798" lon="2.669974">
        <ele>112.9</ele>
        <time>2019-11-08T15:36:56Z</time>
      </trkpt>
      <trkpt lat="41.644732" lon="2.669739">
        <ele>114.4</ele>
        <time>2019-11-08T15:37:07Z</time>
      </trkpt>
      <trkpt lat="41.644788" lon="2.669512">
        <ele>116.1</ele>
        <time>2019-11-08T15:37:17Z</time>
      </trkpt>
      <trkpt lat="41.644821" lon="2.669275">
        <ele>118.1</ele>
        <time>2019-11-08T15:37:28Z</time>
      </trkpt>
      <trkpt lat="41.644765" lon="2.669093">
        <ele>119.8</ele>
        <time>2019-11-08T15:37:37Z</time>
      </trkpt>
      <trkpt lat="41.644592" lon="2.669118">
        <ele>122</ele>
        <time>2019-11-08T15:37:49Z</time>
      </trkpt>
      <trkpt lat="41.64446" lon="2.669309">
        <ele>124.5</ele>
        <time>2019-11-08T15:37:59Z</time>
      </trkpt>
      <trkpt lat="41.644388" lon="2.669542">
        <ele>127.4</ele>
        <time>2019-11-08T15:38:08Z</time>
      </trkpt>
      <trkpt lat="41.644376" lon="2.669786">
        <ele>129.8</ele>
        <time>2019-11-08T15:38:16Z</time>
      </trkpt>
      <trkpt lat="41.644389" lon="2.670024">
        <ele>132.5</ele>
        <time>2019-11-08T15:38:24Z</time>
      </trkpt>
      <trkpt lat="41.644467" lon="2.670239">
        <ele>134.5</ele>
        <time>2019-11-08T15:38:32Z</time>
      </trkpt>
      <trkpt lat="41.64459" lon="2.670426">
        <ele>136.3</ele>
        <time>2019-11-08T15:38:40Z</time>
      </trkpt>
      <trkpt lat="41.644654" lon="2.670674">
        <ele>138.2</ele>
        <time>2019-11-08T15:38:48Z</time>
      </trkpt>
      <trkpt lat="41.644582" lon="2.670917">
        <ele>140</ele>
        <time>2019-11-08T15:38:56Z</time>
      </trkpt>
      <trkpt lat="41.644431" lon="2.671068">
        <ele>141.9</ele>
        <time>2019-11-08T15:39:04Z</time>
      </trkpt>
      <trkpt lat="41.644305" lon="2.671251">
        <ele>143.2</ele>
        <time>2019-11-08T15:39:12Z</time>
      </trkpt>
      <trkpt lat="41.644208" lon="2.671463">
        <ele>144.9</ele>
        <time>2019-11-08T15:39:20Z</time>
      </trkpt>
      <trkpt lat="41.644048" lon="2.671579">
        <ele>147.2</ele>
        <time>2019-11-08T15:39:32Z</time>
      </trkpt>
      <trkpt lat="41.644009" lon="2.671601">
        <ele>148.1</ele>
        <time>2019-11-08T15:39:36Z</time>
      </trkpt>
      <trkpt lat="41.643875" lon="2.671741">
        <ele>151.2</ele>
        <time>2019-11-08T15:39:49Z</time>
      </trkpt>
      <trkpt lat="41.643771" lon="2.671858">
        <ele>152.8</ele>
        <time>2019-11-08T15:39:57Z</time>
      </trkpt>
      <trkpt lat="41.643653" lon="2.672024">
        <ele>155.5</ele>
        <time>2019-11-08T15:40:08Z</time>
      </trkpt>
      <trkpt lat="41.643545" lon="2.672228">
        <ele>158.7</ele>
        <time>2019-11-08T15:40:19Z</time>
      </trkpt>
      <trkpt lat="41.643531" lon="2.672232">
        <ele>159</ele>
        <time>2019-11-08T15:40:20Z</time>
      </trkpt>
      <trkpt lat="41.643507" lon="2.672166">
        <ele>160.1</ele>
        <time>2019-11-08T15:40:24Z</time>
      </trkpt>
      <trkpt lat="41.643508" lon="2.672096">
        <ele>163.2</ele>
        <time>2019-11-08T15:40:28Z</time>
      </trkpt>
      <trkpt lat="41.64352" lon="2.671852">
        <ele>165.9</ele>
        <time>2019-11-08T15:40:45Z</time>
      </trkpt>
      <trkpt lat="41.643535" lon="2.671749">
        <ele>167.1</ele>
        <time>2019-11-08T15:40:51Z</time>
      </trkpt>
      <trkpt lat="41.643544" lon="2.671609">
        <ele>168.6</ele>
        <time>2019-11-08T15:41:00Z</time>
      </trkpt>
      <trkpt lat="41.643541" lon="2.671531">
        <ele>169.4</ele>
        <time>2019-11-08T15:41:04Z</time>
      </trkpt>
      <trkpt lat="41.643552" lon="2.671475">
        <ele>170.1</ele>
        <time>2019-11-08T15:41:08Z</time>
      </trkpt>
      <trkpt lat="41.643568" lon="2.671399">
        <ele>171.2</ele>
        <time>2019-11-08T15:41:13Z</time>
      </trkpt>
      <trkpt lat="41.643588" lon="2.671285">
        <ele>172.5</ele>
        <time>2019-11-08T15:41:20Z</time>
      </trkpt>
      <trkpt lat="41.64363" lon="2.671073">
        <ele>174.6</ele>
        <time>2019-11-08T15:41:30Z</time>
      </trkpt>
      <trkpt lat="41.643651" lon="2.670899">
        <ele>176</ele>
        <time>2019-11-08T15:41:37Z</time>
      </trkpt>
      <trkpt lat="41.643649" lon="2.670879">
        <ele>176.2</ele>
        <time>2019-11-08T15:41:38Z</time>
      </trkpt>
      <trkpt lat="41.643648" lon="2.670789">
        <ele>177</ele>
        <time>2019-11-08T15:41:42Z</time>
      </trkpt>
      <trkpt lat="41.64364" lon="2.670679">
        <ele>177.3</ele>
        <time>2019-11-08T15:41:47Z</time>
      </trkpt>
      <trkpt lat="41.643612" lon="2.670596">
        <ele>177</ele>
        <time>2019-11-08T15:41:51Z</time>
      </trkpt>
      <trkpt lat="41.643594" lon="2.670558">
        <ele>176.9</ele>
        <time>2019-11-08T15:41:53Z</time>
      </trkpt>
      <trkpt lat="41.643561" lon="2.670308">
        <ele>176.5</ele>
        <time>2019-11-08T15:42:02Z</time>
      </trkpt>
      <trkpt lat="41.643576" lon="2.670033">
        <ele>176.4</ele>
        <time>2019-11-08T15:42:09Z</time>
      </trkpt>
      <trkpt lat="41.643543" lon="2.66982">
        <ele>176.5</ele>
        <time>2019-11-08T15:42:15Z</time>
      </trkpt>
      <trkpt lat="41.643547" lon="2.669604">
        <ele>176.7</ele>
        <time>2019-11-08T15:42:21Z</time>
      </trkpt>
      <trkpt lat="41.643546" lon="2.669327">
        <ele>177.4</ele>
        <time>2019-11-08T15:42:28Z</time>
      </trkpt>
      <trkpt lat="41.64354" lon="2.66914">
        <ele>178.2</ele>
        <time>2019-11-08T15:42:33Z</time>
      </trkpt>
      <trkpt lat="41.643531" lon="2.668953">
        <ele>179.4</ele>
        <time>2019-11-08T15:42:39Z</time>
      </trkpt>
      <trkpt lat="41.643502" lon="2.668696">
        <ele>181.3</ele>
        <time>2019-11-08T15:42:48Z</time>
      </trkpt>
      <trkpt lat="41.643353" lon="2.668529">
        <ele>183.6</ele>
        <time>2019-11-08T15:42:56Z</time>
      </trkpt>
      <trkpt lat="41.643295" lon="2.668306">
        <ele>185.5</ele>
        <time>2019-11-08T15:43:06Z</time>
      </trkpt>
      <trkpt lat="41.643295" lon="2.668206">
        <ele>186.2</ele>
        <time>2019-11-08T15:43:11Z</time>
      </trkpt>
      <trkpt lat="41.643289" lon="2.668141">
        <ele>186.7</ele>
        <time>2019-11-08T15:43:15Z</time>
      </trkpt>
      <trkpt lat="41.643248" lon="2.668037">
        <ele>187.8</ele>
        <time>2019-11-08T15:43:23Z</time>
      </trkpt>
      <trkpt lat="41.643243" lon="2.667964">
        <ele>188.6</ele>
        <time>2019-11-08T15:43:28Z</time>
      </trkpt>
      <trkpt lat="41.643278" lon="2.667835">
        <ele>189.8</ele>
        <time>2019-11-08T15:43:37Z</time>
      </trkpt>
      <trkpt lat="41.643304" lon="2.66776">
        <ele>190.6</ele>
        <time>2019-11-08T15:43:42Z</time>
      </trkpt>
      <trkpt lat="41.643338" lon="2.667524">
        <ele>192.6</ele>
        <time>2019-11-08T15:43:56Z</time>
      </trkpt>
      <trkpt lat="41.64328" lon="2.667324">
        <ele>193.8</ele>
        <time>2019-11-08T15:44:12Z</time>
      </trkpt>
      <trkpt lat="41.643132" lon="2.667192">
        <ele>194.2</ele>
        <time>2019-11-08T15:44:26Z</time>
      </trkpt>
      <trkpt lat="41.642962" lon="2.667097">
        <ele>194.1</ele>
        <time>2019-11-08T15:44:38Z</time>
      </trkpt>
      <trkpt lat="41.642758" lon="2.66712">
        <ele>194</ele>
        <time>2019-11-08T15:44:45Z</time>
      </trkpt>
      <trkpt lat="41.642589" lon="2.667221">
        <ele>194.6</ele>
        <time>2019-11-08T15:44:52Z</time>
      </trkpt>
      <trkpt lat="41.642496" lon="2.667206">
        <ele>194.9</ele>
        <time>2019-11-08T15:44:58Z</time>
      </trkpt>
      <trkpt lat="41.642449" lon="2.66717">
        <ele>195.1</ele>
        <time>2019-11-08T15:45:01Z</time>
      </trkpt>
      <trkpt lat="41.642289" lon="2.667046">
        <ele>195.2</ele>
        <time>2019-11-08T15:45:10Z</time>
      </trkpt>
      <trkpt lat="41.642225" lon="2.666976">
        <ele>195</ele>
        <time>2019-11-08T15:45:14Z</time>
      </trkpt>
      <trkpt lat="41.64206" lon="2.666818">
        <ele>194.1</ele>
        <time>2019-11-08T15:45:22Z</time>
      </trkpt>
      <trkpt lat="41.642018" lon="2.666577">
        <ele>192</ele>
        <time>2019-11-08T15:45:29Z</time>
      </trkpt>
      <trkpt lat="41.642046" lon="2.666315">
        <ele>190.3</ele>
        <time>2019-11-08T15:45:35Z</time>
      </trkpt>
      <trkpt lat="41.642059" lon="2.666063">
        <ele>190.5</ele>
        <time>2019-11-08T15:45:43Z</time>
      </trkpt>
      <trkpt lat="41.641999" lon="2.665817">
        <ele>191.2</ele>
        <time>2019-11-08T15:45:53Z</time>
      </trkpt>
      <trkpt lat="41.641799" lon="2.665702">
        <ele>191.3</ele>
        <time>2019-11-08T15:46:02Z</time>
      </trkpt>
      <trkpt lat="41.641618" lon="2.665643">
        <ele>191.6</ele>
        <time>2019-11-08T15:46:09Z</time>
      </trkpt>
      <trkpt lat="41.641439" lon="2.665598">
        <ele>192.9</ele>
        <time>2019-11-08T15:46:17Z</time>
      </trkpt>
      <trkpt lat="41.641281" lon="2.665477">
        <ele>194.2</ele>
        <time>2019-11-08T15:46:26Z</time>
      </trkpt>
      <trkpt lat="41.641158" lon="2.665286">
        <ele>195.5</ele>
        <time>2019-11-08T15:46:33Z</time>
      </trkpt>
      <trkpt lat="41.641045" lon="2.665092">
        <ele>197</ele>
        <time>2019-11-08T15:46:40Z</time>
      </trkpt>
      <trkpt lat="41.641023" lon="2.664867">
        <ele>198.7</ele>
        <time>2019-11-08T15:46:47Z</time>
      </trkpt>
      <trkpt lat="41.640986" lon="2.664628">
        <ele>200</ele>
        <time>2019-11-08T15:46:56Z</time>
      </trkpt>
      <trkpt lat="41.640967" lon="2.66441">
        <ele>201.1</ele>
        <time>2019-11-08T15:47:04Z</time>
      </trkpt>
      <trkpt lat="41.641034" lon="2.664149">
        <ele>201.8</ele>
        <time>2019-11-08T15:47:12Z</time>
      </trkpt>
      <trkpt lat="41.641046" lon="2.663908">
        <ele>202.4</ele>
        <time>2019-11-08T15:47:19Z</time>
      </trkpt>
      <trkpt lat="41.641042" lon="2.663656">
        <ele>202.9</ele>
        <time>2019-11-08T15:47:27Z</time>
      </trkpt>
      <trkpt lat="41.641075" lon="2.663419">
        <ele>203.3</ele>
        <time>2019-11-08T15:47:34Z</time>
      </trkpt>
      <trkpt lat="41.64104" lon="2.66315">
        <ele>203.7</ele>
        <time>2019-11-08T15:47:42Z</time>
      </trkpt>
      <trkpt lat="41.641005" lon="2.662898">
        <ele>204</ele>
        <time>2019-11-08T15:47:49Z</time>
      </trkpt>
      <trkpt lat="41.640917" lon="2.662649">
        <ele>204.1</ele>
        <time>2019-11-08T15:47:57Z</time>
      </trkpt>
      <trkpt lat="41.640783" lon="2.662458">
        <ele>204.1</ele>
        <time>2019-11-08T15:48:04Z</time>
      </trkpt>
      <trkpt lat="41.640767" lon="2.66239">
        <ele>204.1</ele>
        <time>2019-11-08T15:48:06Z</time>
      </trkpt>
      <trkpt lat="41.640761" lon="2.662137">
        <ele>204.1</ele>
        <time>2019-11-08T15:48:13Z</time>
      </trkpt>
      <trkpt lat="41.640669" lon="2.66193">
        <ele>204.3</ele>
        <time>2019-11-08T15:48:20Z</time>
      </trkpt>
      <trkpt lat="41.640532" lon="2.661754">
        <ele>204.9</ele>
        <time>2019-11-08T15:48:28Z</time>
      </trkpt>
      <trkpt lat="41.640405" lon="2.661552">
        <ele>205.8</ele>
        <time>2019-11-08T15:48:37Z</time>
      </trkpt>
      <trkpt lat="41.640267" lon="2.661383">
        <ele>207.1</ele>
        <time>2019-11-08T15:48:46Z</time>
      </trkpt>
      <trkpt lat="41.640125" lon="2.661213">
        <ele>208.3</ele>
        <time>2019-11-08T15:48:54Z</time>
      </trkpt>
      <trkpt lat="41.640037" lon="2.660989">
        <ele>209.5</ele>
        <time>2019-11-08T15:49:02Z</time>
      </trkpt>
      <trkpt lat="41.640006" lon="2.660755">
        <ele>210.2</ele>
        <time>2019-11-08T15:49:09Z</time>
      </trkpt>
      <trkpt lat="41.639999" lon="2.660724">
        <ele>210.2</ele>
        <time>2019-11-08T15:49:10Z</time>
      </trkpt>
      <trkpt lat="41.640007" lon="2.660462">
        <ele>210.9</ele>
        <time>2019-11-08T15:49:18Z</time>
      </trkpt>
      <trkpt lat="41.640082" lon="2.660215">
        <ele>211.8</ele>
        <time>2019-11-08T15:49:26Z</time>
      </trkpt>
      <trkpt lat="41.640138" lon="2.659972">
        <ele>212.7</ele>
        <time>2019-11-08T15:49:34Z</time>
      </trkpt>
      <trkpt lat="41.640064" lon="2.659727">
        <ele>213.5</ele>
        <time>2019-11-08T15:49:42Z</time>
      </trkpt>
      <trkpt lat="41.640042" lon="2.659703">
        <ele>213.6</ele>
        <time>2019-11-08T15:49:43Z</time>
      </trkpt>
      <trkpt lat="41.639891" lon="2.659565">
        <ele>214.1</ele>
        <time>2019-11-08T15:49:51Z</time>
      </trkpt>
      <trkpt lat="41.639845" lon="2.659564">
        <ele>214.2</ele>
        <time>2019-11-08T15:49:53Z</time>
      </trkpt>
      <trkpt lat="41.639678" lon="2.659546">
        <ele>214.4</ele>
        <time>2019-11-08T15:50:00Z</time>
      </trkpt>
      <trkpt lat="41.639664" lon="2.659516">
        <ele>214.4</ele>
        <time>2019-11-08T15:50:01Z</time>
      </trkpt>
      <trkpt lat="41.639668" lon="2.65931">
        <ele>214.5</ele>
        <time>2019-11-08T15:50:07Z</time>
      </trkpt>
      <trkpt lat="41.639759" lon="2.659094">
        <ele>214.7</ele>
        <time>2019-11-08T15:50:14Z</time>
      </trkpt>
      <trkpt lat="41.639812" lon="2.658839">
        <ele>215.8</ele>
        <time>2019-11-08T15:50:21Z</time>
      </trkpt>
      <trkpt lat="41.639756" lon="2.658573">
        <ele>217.3</ele>
        <time>2019-11-08T15:50:28Z</time>
      </trkpt>
      <trkpt lat="41.639811" lon="2.658378">
        <ele>218.5</ele>
        <time>2019-11-08T15:50:33Z</time>
      </trkpt>
      <trkpt lat="41.639894" lon="2.658129">
        <ele>220.2</ele>
        <time>2019-11-08T15:50:40Z</time>
      </trkpt>
      <trkpt lat="41.639835" lon="2.657876">
        <ele>222.1</ele>
        <time>2019-11-08T15:50:47Z</time>
      </trkpt>
      <trkpt lat="41.63973" lon="2.657648">
        <ele>223.7</ele>
        <time>2019-11-08T15:50:54Z</time>
      </trkpt>
      <trkpt lat="41.639654" lon="2.657423">
        <ele>224.6</ele>
        <time>2019-11-08T15:51:03Z</time>
      </trkpt>
      <trkpt lat="41.639651" lon="2.657408">
        <ele>224.7</ele>
        <time>2019-11-08T15:51:04Z</time>
      </trkpt>
      <trkpt lat="41.639657" lon="2.65737">
        <ele>224.8</ele>
        <time>2019-11-08T15:51:16Z</time>
      </trkpt>
      <trkpt lat="41.639623" lon="2.657283">
        <ele>225.3</ele>
        <time>2019-11-08T15:51:20Z</time>
      </trkpt>
      <trkpt lat="41.63952" lon="2.65714">
        <ele>226.4</ele>
        <time>2019-11-08T15:51:28Z</time>
      </trkpt>
      <trkpt lat="41.639345" lon="2.65706">
        <ele>227.8</ele>
        <time>2019-11-08T15:51:40Z</time>
      </trkpt>
      <trkpt lat="41.63934" lon="2.657038">
        <ele>228</ele>
        <time>2019-11-08T15:51:41Z</time>
      </trkpt>
      <trkpt lat="41.639374" lon="2.656944">
        <ele>228.6</ele>
        <time>2019-11-08T15:51:46Z</time>
      </trkpt>
      <trkpt lat="41.639393" lon="2.65691">
        <ele>228.9</ele>
        <time>2019-11-08T15:51:48Z</time>
      </trkpt>
      <trkpt lat="41.639471" lon="2.656825">
        <ele>229.7</ele>
        <time>2019-11-08T15:51:54Z</time>
      </trkpt>
      <trkpt lat="41.639482" lon="2.65681">
        <ele>229.8</ele>
        <time>2019-11-08T15:51:55Z</time>
      </trkpt>
      <trkpt lat="41.639513" lon="2.656741">
        <ele>230.3</ele>
        <time>2019-11-08T15:51:59Z</time>
      </trkpt>
      <trkpt lat="41.639519" lon="2.656591">
        <ele>231.3</ele>
        <time>2019-11-08T15:52:05Z</time>
      </trkpt>
      <trkpt lat="41.639509" lon="2.656501">
        <ele>231.9</ele>
        <time>2019-11-08T15:52:08Z</time>
      </trkpt>
      <trkpt lat="41.639494" lon="2.656383">
        <ele>232.9</ele>
        <time>2019-11-08T15:52:12Z</time>
      </trkpt>
      <trkpt lat="41.639459" lon="2.65614">
        <ele>234.8</ele>
        <time>2019-11-08T15:52:20Z</time>
      </trkpt>
      <trkpt lat="41.639431" lon="2.655886">
        <ele>237</ele>
        <time>2019-11-08T15:52:29Z</time>
      </trkpt>
      <trkpt lat="41.63955" lon="2.655676">
        <ele>239</ele>
        <time>2019-11-08T15:52:36Z</time>
      </trkpt>
      <trkpt lat="41.639587" lon="2.655439">
        <ele>241.2</ele>
        <time>2019-11-08T15:52:43Z</time>
      </trkpt>
      <trkpt lat="41.639604" lon="2.65542">
        <ele>241.4</ele>
        <time>2019-11-08T15:52:44Z</time>
      </trkpt>
      <trkpt lat="41.639762" lon="2.655284">
        <ele>243.5</ele>
        <time>2019-11-08T15:52:55Z</time>
      </trkpt>
      <trkpt lat="41.639909" lon="2.655122">
        <ele>245.4</ele>
        <time>2019-11-08T15:53:06Z</time>
      </trkpt>
      <trkpt lat="41.640001" lon="2.654961">
        <ele>247.1</ele>
        <time>2019-11-08T15:53:15Z</time>
      </trkpt>
      <trkpt lat="41.640041" lon="2.654828">
        <ele>248.4</ele>
        <time>2019-11-08T15:53:22Z</time>
      </trkpt>
      <trkpt lat="41.640076" lon="2.654691">
        <ele>249.5</ele>
        <time>2019-11-08T15:53:30Z</time>
      </trkpt>
      <trkpt lat="41.640171" lon="2.654502">
        <ele>251.5</ele>
        <time>2019-11-08T15:53:49Z</time>
      </trkpt>
      <trkpt lat="41.640201" lon="2.654498">
        <ele>251.9</ele>
        <time>2019-11-08T15:53:52Z</time>
      </trkpt>
      <trkpt lat="41.640303" lon="2.654593">
        <ele>253.8</ele>
        <time>2019-11-08T15:54:04Z</time>
      </trkpt>
      <trkpt lat="41.640319" lon="2.654647">
        <ele>254.5</ele>
        <time>2019-11-08T15:54:10Z</time>
      </trkpt>
      <trkpt lat="41.640344" lon="2.654692">
        <ele>255.3</ele>
        <time>2019-11-08T15:54:16Z</time>
      </trkpt>
      <trkpt lat="41.640349" lon="2.654725">
        <ele>255.7</ele>
        <time>2019-11-08T15:54:19Z</time>
      </trkpt>
      <trkpt lat="41.640375" lon="2.654791">
        <ele>257</ele>
        <time>2019-11-08T15:54:25Z</time>
      </trkpt>
      <trkpt lat="41.640373" lon="2.65484">
        <ele>257.3</ele>
        <time>2019-11-08T15:54:28Z</time>
      </trkpt>
      <trkpt lat="41.640375" lon="2.654858">
        <ele>257.4</ele>
        <time>2019-11-08T15:54:29Z</time>
      </trkpt>
      <trkpt lat="41.640371" lon="2.654876">
        <ele>257.5</ele>
        <time>2019-11-08T15:54:30Z</time>
      </trkpt>
      <trkpt lat="41.640362" lon="2.654911">
        <ele>257.7</ele>
        <time>2019-11-08T15:54:32Z</time>
      </trkpt>
      <trkpt lat="41.640405" lon="2.655138">
        <ele>259.1</ele>
        <time>2019-11-08T15:54:42Z</time>
      </trkpt>
      <trkpt lat="41.640469" lon="2.655362">
        <ele>260.5</ele>
        <time>2019-11-08T15:54:51Z</time>
      </trkpt>
      <trkpt lat="41.640546" lon="2.655596">
        <ele>262.3</ele>
        <time>2019-11-08T15:55:01Z</time>
      </trkpt>
      <trkpt lat="41.640614" lon="2.655775">
        <ele>263.8</ele>
        <time>2019-11-08T15:55:09Z</time>
      </trkpt>
      <trkpt lat="41.64067" lon="2.655858">
        <ele>264.4</ele>
        <time>2019-11-08T15:55:14Z</time>
      </trkpt>
      <trkpt lat="41.640837" lon="2.655994">
        <ele>266.2</ele>
        <time>2019-11-08T15:55:26Z</time>
      </trkpt>
      <trkpt lat="41.640978" lon="2.656138">
        <ele>267.9</ele>
        <time>2019-11-08T15:55:37Z</time>
      </trkpt>
      <trkpt lat="41.641103" lon="2.656319">
        <ele>270</ele>
        <time>2019-11-08T15:55:48Z</time>
      </trkpt>
      <trkpt lat="41.641276" lon="2.656381">
        <ele>271.8</ele>
        <time>2019-11-08T15:55:59Z</time>
      </trkpt>
      <trkpt lat="41.641282" lon="2.656391">
        <ele>271.9</ele>
        <time>2019-11-08T15:56:01Z</time>
      </trkpt>
      <trkpt lat="41.641493" lon="2.656452">
        <ele>274.2</ele>
        <time>2019-11-08T15:56:16Z</time>
      </trkpt>
      <trkpt lat="41.641665" lon="2.656542">
        <ele>276.1</ele>
        <time>2019-11-08T15:56:26Z</time>
      </trkpt>
      <trkpt lat="41.641783" lon="2.656679">
        <ele>277.3</ele>
        <time>2019-11-08T15:56:35Z</time>
      </trkpt>
      <trkpt lat="41.641897" lon="2.656884">
        <ele>278.3</ele>
        <time>2019-11-08T15:56:44Z</time>
      </trkpt>
      <trkpt lat="41.642066" lon="2.657017">
        <ele>279</ele>
        <time>2019-11-08T15:56:53Z</time>
      </trkpt>
      <trkpt lat="41.642219" lon="2.657121">
        <ele>278.9</ele>
        <time>2019-11-08T15:57:01Z</time>
      </trkpt>
      <trkpt lat="41.642359" lon="2.657239">
        <ele>278</ele>
        <time>2019-11-08T15:57:08Z</time>
      </trkpt>
      <trkpt lat="41.642487" lon="2.657351">
        <ele>276.8</ele>
        <time>2019-11-08T15:57:14Z</time>
      </trkpt>
      <trkpt lat="41.642577" lon="2.657432">
        <ele>276.4</ele>
        <time>2019-11-08T15:57:18Z</time>
      </trkpt>
      <trkpt lat="41.642745" lon="2.65752">
        <ele>276.3</ele>
        <time>2019-11-08T15:57:25Z</time>
      </trkpt>
      <trkpt lat="41.642856" lon="2.657519">
        <ele>277.4</ele>
        <time>2019-11-08T15:57:32Z</time>
      </trkpt>
      <trkpt lat="41.642918" lon="2.657511">
        <ele>278.2</ele>
        <time>2019-11-08T15:57:40Z</time>
      </trkpt>
      <trkpt lat="41.643044" lon="2.657449">
        <ele>280.1</ele>
        <time>2019-11-08T15:57:55Z</time>
      </trkpt>
      <trkpt lat="41.643172" lon="2.65742">
        <ele>282</ele>
        <time>2019-11-08T15:58:08Z</time>
      </trkpt>
      <trkpt lat="41.643207" lon="2.657433">
        <ele>282.5</ele>
        <time>2019-11-08T15:58:11Z</time>
      </trkpt>
      <trkpt lat="41.643254" lon="2.657473">
        <ele>283.2</ele>
        <time>2019-11-08T15:58:16Z</time>
      </trkpt>
      <trkpt lat="41.643276" lon="2.657515">
        <ele>283.6</ele>
        <time>2019-11-08T15:58:20Z</time>
      </trkpt>
      <trkpt lat="41.643334" lon="2.65757">
        <ele>284.3</ele>
        <time>2019-11-08T15:58:25Z</time>
      </trkpt>
      <trkpt lat="41.643427" lon="2.657696">
        <ele>285.5</ele>
        <time>2019-11-08T15:58:36Z</time>
      </trkpt>
      <trkpt lat="41.64349" lon="2.657796">
        <ele>286.3</ele>
        <time>2019-11-08T15:58:44Z</time>
      </trkpt>
      <trkpt lat="41.643498" lon="2.65781">
        <ele>286.4</ele>
        <time>2019-11-08T15:58:45Z</time>
      </trkpt>
      <trkpt lat="41.643525" lon="2.657867">
        <ele>286.8</ele>
        <time>2019-11-08T15:58:50Z</time>
      </trkpt>
      <trkpt lat="41.64363" lon="2.65808">
        <ele>287.6</ele>
        <time>2019-11-08T15:59:06Z</time>
      </trkpt>
      <trkpt lat="41.643752" lon="2.658252">
        <ele>288.6</ele>
        <time>2019-11-08T15:59:20Z</time>
      </trkpt>
      <trkpt lat="41.643908" lon="2.658392">
        <ele>289.8</ele>
        <time>2019-11-08T15:59:34Z</time>
      </trkpt>
      <trkpt lat="41.643912" lon="2.6584">
        <ele>289.8</ele>
        <time>2019-11-08T15:59:35Z</time>
      </trkpt>
      <trkpt lat="41.64397" lon="2.658453">
        <ele>290.3</ele>
        <time>2019-11-08T15:59:42Z</time>
      </trkpt>
      <trkpt lat="41.644143" lon="2.658508">
        <ele>291.4</ele>
        <time>2019-11-08T16:00:01Z</time>
      </trkpt>
      <trkpt lat="41.644207" lon="2.658489">
        <ele>291.7</ele>
        <time>2019-11-08T16:00:08Z</time>
      </trkpt>
      <trkpt lat="41.644246" lon="2.658493">
        <ele>292</ele>
        <time>2019-11-08T16:00:27Z</time>
      </trkpt>
      <trkpt lat="41.644253" lon="2.658458">
        <ele>292.2</ele>
        <time>2019-11-08T16:00:30Z</time>
      </trkpt>
      <trkpt lat="41.644275" lon="2.658401">
        <ele>292.9</ele>
        <time>2019-11-08T16:00:34Z</time>
      </trkpt>
      <trkpt lat="41.644282" lon="2.658367">
        <ele>293.2</ele>
        <time>2019-11-08T16:00:36Z</time>
      </trkpt>
      <trkpt lat="41.644179" lon="2.658163">
        <ele>295.8</ele>
        <time>2019-11-08T16:00:48Z</time>
      </trkpt>
      <trkpt lat="41.644086" lon="2.657928">
        <ele>297.3</ele>
        <time>2019-11-08T16:00:58Z</time>
      </trkpt>
      <trkpt lat="41.644034" lon="2.657677">
        <ele>297.9</ele>
        <time>2019-11-08T16:01:06Z</time>
      </trkpt>
      <trkpt lat="41.643984" lon="2.657447">
        <ele>298.1</ele>
        <time>2019-11-08T16:01:13Z</time>
      </trkpt>
      <trkpt lat="41.643939" lon="2.657206">
        <ele>298.1</ele>
        <time>2019-11-08T16:01:20Z</time>
      </trkpt>
      <trkpt lat="41.643863" lon="2.656976">
        <ele>298.3</ele>
        <time>2019-11-08T16:01:27Z</time>
      </trkpt>
      <trkpt lat="41.643763" lon="2.656754">
        <ele>298.9</ele>
        <time>2019-11-08T16:01:35Z</time>
      </trkpt>
      <trkpt lat="41.643648" lon="2.656566">
        <ele>299.6</ele>
        <time>2019-11-08T16:01:43Z</time>
      </trkpt>
      <trkpt lat="41.643514" lon="2.656381">
        <ele>300.5</ele>
        <time>2019-11-08T16:01:52Z</time>
      </trkpt>
      <trkpt lat="41.643404" lon="2.656178">
        <ele>301.5</ele>
        <time>2019-11-08T16:02:00Z</time>
      </trkpt>
      <trkpt lat="41.643309" lon="2.656">
        <ele>302.3</ele>
        <time>2019-11-08T16:02:07Z</time>
      </trkpt>
      <trkpt lat="41.643201" lon="2.655797">
        <ele>303.1</ele>
        <time>2019-11-08T16:02:15Z</time>
      </trkpt>
      <trkpt lat="41.643017" lon="2.655703">
        <ele>304.2</ele>
        <time>2019-11-08T16:02:24Z</time>
      </trkpt>
      <trkpt lat="41.642924" lon="2.655667">
        <ele>304.7</ele>
        <time>2019-11-08T16:02:29Z</time>
      </trkpt>
      <trkpt lat="41.642814" lon="2.655522">
        <ele>305.6</ele>
        <time>2019-11-08T16:02:36Z</time>
      </trkpt>
      <trkpt lat="41.642717" lon="2.655298">
        <ele>307.2</ele>
        <time>2019-11-08T16:02:44Z</time>
      </trkpt>
      <trkpt lat="41.642599" lon="2.655098">
        <ele>307.3</ele>
        <time>2019-11-08T16:02:51Z</time>
      </trkpt>
      <trkpt lat="41.642451" lon="2.654915">
        <ele>308.6</ele>
        <time>2019-11-08T16:02:59Z</time>
      </trkpt>
      <trkpt lat="41.64235" lon="2.654706">
        <ele>308.3</ele>
        <time>2019-11-08T16:03:06Z</time>
      </trkpt>
      <trkpt lat="41.642286" lon="2.654469">
        <ele>306.7</ele>
        <time>2019-11-08T16:03:13Z</time>
      </trkpt>
      <trkpt lat="41.642244" lon="2.654206">
        <ele>305.2</ele>
        <time>2019-11-08T16:03:20Z</time>
      </trkpt>
      <trkpt lat="41.642232" lon="2.653966">
        <ele>305.2</ele>
        <time>2019-11-08T16:03:26Z</time>
      </trkpt>
      <trkpt lat="41.642226" lon="2.653721">
        <ele>304.6</ele>
        <time>2019-11-08T16:03:32Z</time>
      </trkpt>
      <trkpt lat="41.642205" lon="2.653472">
        <ele>308</ele>
        <time>2019-11-08T16:03:40Z</time>
      </trkpt>
      <trkpt lat="41.642127" lon="2.653253">
        <ele>313.1</ele>
        <time>2019-11-08T16:03:49Z</time>
      </trkpt>
      <trkpt lat="41.641977" lon="2.653123">
        <ele>316.3</ele>
        <time>2019-11-08T16:03:59Z</time>
      </trkpt>
      <trkpt lat="41.641804" lon="2.653014">
        <ele>319.1</ele>
        <time>2019-11-08T16:04:10Z</time>
      </trkpt>
      <trkpt lat="41.641626" lon="2.652958">
        <ele>321.4</ele>
        <time>2019-11-08T16:04:18Z</time>
      </trkpt>
      <trkpt lat="41.641436" lon="2.652904">
        <ele>323.9</ele>
        <time>2019-11-08T16:04:26Z</time>
      </trkpt>
      <trkpt lat="41.641274" lon="2.652779">
        <ele>326.2</ele>
        <time>2019-11-08T16:04:34Z</time>
      </trkpt>
      <trkpt lat="41.641075" lon="2.652774">
        <ele>328.5</ele>
        <time>2019-11-08T16:04:42Z</time>
      </trkpt>
      <trkpt lat="41.640891" lon="2.652733">
        <ele>330.6</ele>
        <time>2019-11-08T16:04:50Z</time>
      </trkpt>
      <trkpt lat="41.640716" lon="2.652612">
        <ele>332.7</ele>
        <time>2019-11-08T16:04:57Z</time>
      </trkpt>
      <trkpt lat="41.640544" lon="2.652481">
        <ele>334.7</ele>
        <time>2019-11-08T16:05:04Z</time>
      </trkpt>
      <trkpt lat="41.640443" lon="2.652261">
        <ele>336.8</ele>
        <time>2019-11-08T16:05:10Z</time>
      </trkpt>
      <trkpt lat="41.640417" lon="2.65216">
        <ele>337.6</ele>
        <time>2019-11-08T16:05:13Z</time>
      </trkpt>
      <trkpt lat="41.640383" lon="2.65207">
        <ele>338.4</ele>
        <time>2019-11-08T16:05:16Z</time>
      </trkpt>
      <trkpt lat="41.640231" lon="2.651933">
        <ele>340.2</ele>
        <time>2019-11-08T16:05:26Z</time>
      </trkpt>
      <trkpt lat="41.640181" lon="2.651916">
        <ele>340.7</ele>
        <time>2019-11-08T16:05:29Z</time>
      </trkpt>
      <trkpt lat="41.640279" lon="2.651855">
        <ele>341.9</ele>
        <time>2019-11-08T16:05:35Z</time>
      </trkpt>
      <trkpt lat="41.640392" lon="2.651948">
        <ele>344</ele>
        <time>2019-11-08T16:05:41Z</time>
      </trkpt>
      <trkpt lat="41.640447" lon="2.652022">
        <ele>344.4</ele>
        <time>2019-11-08T16:05:46Z</time>
      </trkpt>
      <trkpt lat="41.640589" lon="2.652166">
        <ele>344.9</ele>
        <time>2019-11-08T16:06:04Z</time>
      </trkpt>
      <trkpt lat="41.640752" lon="2.652252">
        <ele>345.1</ele>
        <time>2019-11-08T16:06:16Z</time>
      </trkpt>
      <trkpt lat="41.640873" lon="2.6523">
        <ele>345.2</ele>
        <time>2019-11-08T16:06:23Z</time>
      </trkpt>
      <trkpt lat="41.641065" lon="2.652351">
        <ele>345.7</ele>
        <time>2019-11-08T16:06:34Z</time>
      </trkpt>
      <trkpt lat="41.64117" lon="2.652374">
        <ele>346</ele>
        <time>2019-11-08T16:06:40Z</time>
      </trkpt>
      <trkpt lat="41.641228" lon="2.652403">
        <ele>346.2</ele>
        <time>2019-11-08T16:06:44Z</time>
      </trkpt>
      <trkpt lat="41.641404" lon="2.652475">
        <ele>346.9</ele>
        <time>2019-11-08T16:06:53Z</time>
      </trkpt>
      <trkpt lat="41.641597" lon="2.652556">
        <ele>347.7</ele>
        <time>2019-11-08T16:07:01Z</time>
      </trkpt>
      <trkpt lat="41.641779" lon="2.652616">
        <ele>348.3</ele>
        <time>2019-11-08T16:07:09Z</time>
      </trkpt>
      <trkpt lat="41.641956" lon="2.652437">
        <ele>349</ele>
        <time>2019-11-08T16:07:18Z</time>
      </trkpt>
      <trkpt lat="41.641955" lon="2.652406">
        <ele>349.1</ele>
        <time>2019-11-08T16:07:19Z</time>
      </trkpt>
      <trkpt lat="41.641953" lon="2.652146">
        <ele>349.7</ele>
        <time>2019-11-08T16:07:28Z</time>
      </trkpt>
      <trkpt lat="41.641973" lon="2.651958">
        <ele>349.9</ele>
        <time>2019-11-08T16:07:38Z</time>
      </trkpt>
      <trkpt lat="41.641988" lon="2.651901">
        <ele>350</ele>
        <time>2019-11-08T16:07:42Z</time>
      </trkpt>
      <trkpt lat="41.642039" lon="2.651822">
        <ele>350.1</ele>
        <time>2019-11-08T16:07:47Z</time>
      </trkpt>
      <trkpt lat="41.642117" lon="2.651753">
        <ele>350.2</ele>
        <time>2019-11-08T16:07:55Z</time>
      </trkpt>
      <trkpt lat="41.64221" lon="2.651739">
        <ele>350.5</ele>
        <time>2019-11-08T16:08:00Z</time>
      </trkpt>
      <trkpt lat="41.642226" lon="2.651743">
        <ele>350.5</ele>
        <time>2019-11-08T16:08:01Z</time>
      </trkpt>
      <trkpt lat="41.6423" lon="2.651747">
        <ele>350.7</ele>
        <time>2019-11-08T16:08:06Z</time>
      </trkpt>
      <trkpt lat="41.642378" lon="2.651704">
        <ele>350.8</ele>
        <time>2019-11-08T16:08:15Z</time>
      </trkpt>
      <trkpt lat="41.642559" lon="2.651613">
        <ele>350.9</ele>
        <time>2019-11-08T16:08:26Z</time>
      </trkpt>
      <trkpt lat="41.642603" lon="2.651587">
        <ele>351</ele>
        <time>2019-11-08T16:08:28Z</time>
      </trkpt>
      <trkpt lat="41.642769" lon="2.651485">
        <ele>351</ele>
        <time>2019-11-08T16:08:34Z</time>
      </trkpt>
      <trkpt lat="41.642885" lon="2.651286">
        <ele>351.2</ele>
        <time>2019-11-08T16:08:42Z</time>
      </trkpt>
      <trkpt lat="41.642831" lon="2.6511">
        <ele>351.3</ele>
        <time>2019-11-08T16:08:47Z</time>
      </trkpt>
      <trkpt lat="41.642722" lon="2.650897">
        <ele>351.2</ele>
        <time>2019-11-08T16:08:54Z</time>
      </trkpt>
      <trkpt lat="41.642563" lon="2.650729">
        <ele>350.7</ele>
        <time>2019-11-08T16:09:02Z</time>
      </trkpt>
      <trkpt lat="41.642434" lon="2.650546">
        <ele>350.1</ele>
        <time>2019-11-08T16:09:10Z</time>
      </trkpt>
      <trkpt lat="41.642345" lon="2.650333">
        <ele>349.3</ele>
        <time>2019-11-08T16:09:17Z</time>
      </trkpt>
      <trkpt lat="41.642262" lon="2.650156">
        <ele>348.4</ele>
        <time>2019-11-08T16:09:23Z</time>
      </trkpt>
      <trkpt lat="41.642247" lon="2.649877">
        <ele>347.3</ele>
        <time>2019-11-08T16:09:30Z</time>
      </trkpt>
      <trkpt lat="41.642204" lon="2.64964">
        <ele>346.1</ele>
        <time>2019-11-08T16:09:37Z</time>
      </trkpt>
      <trkpt lat="41.642122" lon="2.64951">
        <ele>345.4</ele>
        <time>2019-11-08T16:09:42Z</time>
      </trkpt>
      <trkpt lat="41.641989" lon="2.649325">
        <ele>344.5</ele>
        <time>2019-11-08T16:09:49Z</time>
      </trkpt>
      <trkpt lat="41.641877" lon="2.649097">
        <ele>343</ele>
        <time>2019-11-08T16:09:56Z</time>
      </trkpt>
      <trkpt lat="41.641812" lon="2.648843">
        <ele>341.7</ele>
        <time>2019-11-08T16:10:03Z</time>
      </trkpt>
      <trkpt lat="41.641737" lon="2.64861">
        <ele>340.6</ele>
        <time>2019-11-08T16:10:10Z</time>
      </trkpt>
      <trkpt lat="41.641609" lon="2.648396">
        <ele>339.1</ele>
        <time>2019-11-08T16:10:17Z</time>
      </trkpt>
      <trkpt lat="41.641474" lon="2.648199">
        <ele>337.9</ele>
        <time>2019-11-08T16:10:24Z</time>
      </trkpt>
      <trkpt lat="41.641418" lon="2.647951">
        <ele>336.8</ele>
        <time>2019-11-08T16:10:31Z</time>
      </trkpt>
      <trkpt lat="41.641373" lon="2.64785">
        <ele>336.3</ele>
        <time>2019-11-08T16:10:35Z</time>
      </trkpt>
      <trkpt lat="41.64131" lon="2.647632">
        <ele>335.5</ele>
        <time>2019-11-08T16:10:43Z</time>
      </trkpt>
      <trkpt lat="41.64137" lon="2.647397">
        <ele>334.7</ele>
        <time>2019-11-08T16:10:50Z</time>
      </trkpt>
      <trkpt lat="41.641487" lon="2.647243">
        <ele>334</ele>
        <time>2019-11-08T16:10:56Z</time>
      </trkpt>
      <trkpt lat="41.641612" lon="2.647066">
        <ele>333.5</ele>
        <time>2019-11-08T16:11:02Z</time>
      </trkpt>
      <trkpt lat="41.641653" lon="2.646809">
        <ele>332.7</ele>
        <time>2019-11-08T16:11:10Z</time>
      </trkpt>
      <trkpt lat="41.641646" lon="2.646552">
        <ele>332.3</ele>
        <time>2019-11-08T16:11:17Z</time>
      </trkpt>
      <trkpt lat="41.641562" lon="2.646326">
        <ele>331.9</ele>
        <time>2019-11-08T16:11:24Z</time>
      </trkpt>
      <trkpt lat="41.641429" lon="2.646162">
        <ele>331.5</ele>
        <time>2019-11-08T16:11:31Z</time>
      </trkpt>
      <trkpt lat="41.64126" lon="2.646051">
        <ele>330.8</ele>
        <time>2019-11-08T16:11:39Z</time>
      </trkpt>
      <trkpt lat="41.641102" lon="2.645967">
        <ele>330</ele>
        <time>2019-11-08T16:11:46Z</time>
      </trkpt>
      <trkpt lat="41.641124" lon="2.645746">
        <ele>329</ele>
        <time>2019-11-08T16:11:52Z</time>
      </trkpt>
      <trkpt lat="41.641167" lon="2.645615">
        <ele>328.5</ele>
        <time>2019-11-08T16:11:56Z</time>
      </trkpt>
      <trkpt lat="41.641172" lon="2.645344">
        <ele>327.4</ele>
        <time>2019-11-08T16:12:03Z</time>
      </trkpt>
      <trkpt lat="41.641218" lon="2.645106">
        <ele>326.2</ele>
        <time>2019-11-08T16:12:09Z</time>
      </trkpt>
      <trkpt lat="41.641278" lon="2.645009">
        <ele>325.6</ele>
        <time>2019-11-08T16:12:12Z</time>
      </trkpt>
      <trkpt lat="41.641356" lon="2.644789">
        <ele>324.5</ele>
        <time>2019-11-08T16:12:19Z</time>
      </trkpt>
      <trkpt lat="41.64133" lon="2.64455">
        <ele>323.9</ele>
        <time>2019-11-08T16:12:26Z</time>
      </trkpt>
      <trkpt lat="41.641338" lon="2.644302">
        <ele>323.3</ele>
        <time>2019-11-08T16:12:32Z</time>
      </trkpt>
      <trkpt lat="41.641407" lon="2.644058">
        <ele>322.5</ele>
        <time>2019-11-08T16:12:39Z</time>
      </trkpt>
      <trkpt lat="41.64147" lon="2.643916">
        <ele>322.2</ele>
        <time>2019-11-08T16:12:44Z</time>
      </trkpt>
      <trkpt lat="41.641436" lon="2.643651">
        <ele>321.6</ele>
        <time>2019-11-08T16:12:51Z</time>
      </trkpt>
      <trkpt lat="41.641401" lon="2.643379">
        <ele>320.6</ele>
        <time>2019-11-08T16:12:58Z</time>
      </trkpt>
      <trkpt lat="41.641331" lon="2.64315">
        <ele>319.8</ele>
        <time>2019-11-08T16:13:05Z</time>
      </trkpt>
      <trkpt lat="41.641279" lon="2.642907">
        <ele>318.6</ele>
        <time>2019-11-08T16:13:12Z</time>
      </trkpt>
      <trkpt lat="41.641262" lon="2.642653">
        <ele>317.7</ele>
        <time>2019-11-08T16:13:20Z</time>
      </trkpt>
      <trkpt lat="41.641329" lon="2.642408">
        <ele>316.2</ele>
        <time>2019-11-08T16:13:27Z</time>
      </trkpt>
      <trkpt lat="41.641428" lon="2.642193">
        <ele>314.4</ele>
        <time>2019-11-08T16:13:34Z</time>
      </trkpt>
      <trkpt lat="41.641414" lon="2.64196">
        <ele>312.2</ele>
        <time>2019-11-08T16:13:40Z</time>
      </trkpt>
      <trkpt lat="41.641457" lon="2.641716">
        <ele>309.9</ele>
        <time>2019-11-08T16:13:47Z</time>
      </trkpt>
      <trkpt lat="41.641472" lon="2.641614">
        <ele>309</ele>
        <time>2019-11-08T16:13:51Z</time>
      </trkpt>
      <trkpt lat="41.641483" lon="2.641419">
        <ele>307.7</ele>
        <time>2019-11-08T16:13:57Z</time>
      </trkpt>
      <trkpt lat="41.64158" lon="2.641196">
        <ele>306.1</ele>
        <time>2019-11-08T16:14:04Z</time>
      </trkpt>
      <trkpt lat="41.641727" lon="2.64104">
        <ele>304.7</ele>
        <time>2019-11-08T16:14:11Z</time>
      </trkpt>
      <trkpt lat="41.641896" lon="2.640934">
        <ele>303.5</ele>
        <time>2019-11-08T16:14:19Z</time>
      </trkpt>
      <trkpt lat="41.641938" lon="2.640887">
        <ele>303.2</ele>
        <time>2019-11-08T16:14:22Z</time>
      </trkpt>
      <trkpt lat="41.64191" lon="2.640652">
        <ele>302.9</ele>
        <time>2019-11-08T16:14:29Z</time>
      </trkpt>
      <trkpt lat="41.641805" lon="2.64042">
        <ele>303.5</ele>
        <time>2019-11-08T16:14:36Z</time>
      </trkpt>
      <trkpt lat="41.641738" lon="2.640226">
        <ele>304.1</ele>
        <time>2019-11-08T16:14:42Z</time>
      </trkpt>
      <trkpt lat="41.641651" lon="2.640009">
        <ele>304.4</ele>
        <time>2019-11-08T16:14:49Z</time>
      </trkpt>
      <trkpt lat="41.641634" lon="2.63985">
        <ele>304.5</ele>
        <time>2019-11-08T16:14:54Z</time>
      </trkpt>
      <trkpt lat="41.641673" lon="2.6398">
        <ele>304.5</ele>
        <time>2019-11-08T16:14:56Z</time>
      </trkpt>
      <trkpt lat="41.641765" lon="2.639723">
        <ele>304.5</ele>
        <time>2019-11-08T16:15:00Z</time>
      </trkpt>
      <trkpt lat="41.641831" lon="2.639471">
        <ele>304.4</ele>
        <time>2019-11-08T16:15:08Z</time>
      </trkpt>
      <trkpt lat="41.641864" lon="2.639317">
        <ele>304.2</ele>
        <time>2019-11-08T16:15:13Z</time>
      </trkpt>
      <trkpt lat="41.641899" lon="2.639202">
        <ele>303.9</ele>
        <time>2019-11-08T16:15:17Z</time>
      </trkpt>
      <trkpt lat="41.641913" lon="2.639104">
        <ele>303.7</ele>
        <time>2019-11-08T16:15:21Z</time>
      </trkpt>
      <trkpt lat="41.641943" lon="2.638851">
        <ele>303</ele>
        <time>2019-11-08T16:15:29Z</time>
      </trkpt>
      <trkpt lat="41.641905" lon="2.638621">
        <ele>302.4</ele>
        <time>2019-11-08T16:15:39Z</time>
      </trkpt>
      <trkpt lat="41.641996" lon="2.638481">
        <ele>301.9</ele>
        <time>2019-11-08T16:15:45Z</time>
      </trkpt>
      <trkpt lat="41.642133" lon="2.638403">
        <ele>301.5</ele>
        <time>2019-11-08T16:15:50Z</time>
      </trkpt>
      <trkpt lat="41.642294" lon="2.638273">
        <ele>301</ele>
        <time>2019-11-08T16:15:56Z</time>
      </trkpt>
      <trkpt lat="41.642409" lon="2.63808">
        <ele>300.6</ele>
        <time>2019-11-08T16:16:03Z</time>
      </trkpt>
      <trkpt lat="41.642485" lon="2.637859">
        <ele>300.3</ele>
        <time>2019-11-08T16:16:10Z</time>
      </trkpt>
      <trkpt lat="41.642581" lon="2.637705">
        <ele>300.2</ele>
        <time>2019-11-08T16:16:16Z</time>
      </trkpt>
      <trkpt lat="41.642712" lon="2.637514">
        <ele>300.5</ele>
        <time>2019-11-08T16:16:24Z</time>
      </trkpt>
      <trkpt lat="41.64271" lon="2.63732">
        <ele>300.9</ele>
        <time>2019-11-08T16:16:29Z</time>
      </trkpt>
      <trkpt lat="41.64258" lon="2.637179">
        <ele>301.5</ele>
        <time>2019-11-08T16:16:36Z</time>
      </trkpt>
      <trkpt lat="41.642387" lon="2.637142">
        <ele>302.6</ele>
        <time>2019-11-08T16:16:45Z</time>
      </trkpt>
      <trkpt lat="41.642371" lon="2.637112">
        <ele>302.8</ele>
        <time>2019-11-08T16:16:46Z</time>
      </trkpt>
      <trkpt lat="41.642296" lon="2.636991">
        <ele>303.7</ele>
        <time>2019-11-08T16:16:50Z</time>
      </trkpt>
      <trkpt lat="41.642159" lon="2.636854">
        <ele>305.3</ele>
        <time>2019-11-08T16:16:56Z</time>
      </trkpt>
      <trkpt lat="41.642125" lon="2.636747">
        <ele>306</ele>
        <time>2019-11-08T16:16:59Z</time>
      </trkpt>
      <trkpt lat="41.642007" lon="2.636559">
        <ele>307.1</ele>
        <time>2019-11-08T16:17:06Z</time>
      </trkpt>
      <trkpt lat="41.642055" lon="2.63642">
        <ele>307.6</ele>
        <time>2019-11-08T16:17:11Z</time>
      </trkpt>
      <trkpt lat="41.642144" lon="2.636284">
        <ele>307.8</ele>
        <time>2019-11-08T16:17:16Z</time>
      </trkpt>
      <trkpt lat="41.642108" lon="2.636022">
        <ele>307.9</ele>
        <time>2019-11-08T16:17:23Z</time>
      </trkpt>
      <trkpt lat="41.642096" lon="2.635981">
        <ele>307.9</ele>
        <time>2019-11-08T16:17:24Z</time>
      </trkpt>
      <trkpt lat="41.642129" lon="2.635813">
        <ele>308</ele>
        <time>2019-11-08T16:17:29Z</time>
      </trkpt>
      <trkpt lat="41.642209" lon="2.635638">
        <ele>308</ele>
        <time>2019-11-08T16:17:35Z</time>
      </trkpt>
      <trkpt lat="41.642238" lon="2.635588">
        <ele>308</ele>
        <time>2019-11-08T16:17:37Z</time>
      </trkpt>
      <trkpt lat="41.64238" lon="2.635395">
        <ele>308</ele>
        <time>2019-11-08T16:17:45Z</time>
      </trkpt>
      <trkpt lat="41.642459" lon="2.635285">
        <ele>308</ele>
        <time>2019-11-08T16:17:50Z</time>
      </trkpt>
      <trkpt lat="41.642402" lon="2.635037">
        <ele>308</ele>
        <time>2019-11-08T16:17:57Z</time>
      </trkpt>
      <trkpt lat="41.642343" lon="2.634868">
        <ele>308.1</ele>
        <time>2019-11-08T16:18:02Z</time>
      </trkpt>
      <trkpt lat="41.642331" lon="2.634623">
        <ele>308.1</ele>
        <time>2019-11-08T16:18:09Z</time>
      </trkpt>
      <trkpt lat="41.642317" lon="2.634367">
        <ele>308.1</ele>
        <time>2019-11-08T16:18:18Z</time>
      </trkpt>
      <trkpt lat="41.642338" lon="2.634233">
        <ele>308.1</ele>
        <time>2019-11-08T16:18:23Z</time>
      </trkpt>
      <trkpt lat="41.64229" lon="2.634077">
        <ele>308.1</ele>
        <time>2019-11-08T16:18:29Z</time>
      </trkpt>
      <trkpt lat="41.642167" lon="2.63389">
        <ele>308.1</ele>
        <time>2019-11-08T16:18:38Z</time>
      </trkpt>
      <trkpt lat="41.642121" lon="2.633666">
        <ele>308.2</ele>
        <time>2019-11-08T16:18:46Z</time>
      </trkpt>
      <trkpt lat="41.642101" lon="2.633551">
        <ele>308.2</ele>
        <time>2019-11-08T16:18:51Z</time>
      </trkpt>
      <trkpt lat="41.642059" lon="2.633438">
        <ele>308.2</ele>
        <time>2019-11-08T16:18:57Z</time>
      </trkpt>
      <trkpt lat="41.642007" lon="2.633289">
        <ele>308.2</ele>
        <time>2019-11-08T16:19:05Z</time>
      </trkpt>
      <trkpt lat="41.641974" lon="2.6332">
        <ele>308.2</ele>
        <time>2019-11-08T16:19:10Z</time>
      </trkpt>
      <trkpt lat="41.641973" lon="2.633083">
        <ele>308.2</ele>
        <time>2019-11-08T16:19:16Z</time>
      </trkpt>
      <trkpt lat="41.641954" lon="2.632818">
        <ele>308.2</ele>
        <time>2019-11-08T16:19:25Z</time>
      </trkpt>
      <trkpt lat="41.641953" lon="2.632559">
        <ele>308.2</ele>
        <time>2019-11-08T16:19:34Z</time>
      </trkpt>
      <trkpt lat="41.641923" lon="2.632422">
        <ele>308.3</ele>
        <time>2019-11-08T16:19:39Z</time>
      </trkpt>
      <trkpt lat="41.641867" lon="2.632168">
        <ele>307.4</ele>
        <time>2019-11-08T16:19:49Z</time>
      </trkpt>
      <trkpt lat="41.642002" lon="2.631972">
        <ele>304.7</ele>
        <time>2019-11-08T16:19:56Z</time>
      </trkpt>
      <trkpt lat="41.642156" lon="2.631799">
        <ele>301.3</ele>
        <time>2019-11-08T16:20:03Z</time>
      </trkpt>
      <trkpt lat="41.642274" lon="2.631583">
        <ele>297.8</ele>
        <time>2019-11-08T16:20:11Z</time>
      </trkpt>
      <trkpt lat="41.642298" lon="2.631289">
        <ele>293.7</ele>
        <time>2019-11-08T16:20:19Z</time>
      </trkpt>
      <trkpt lat="41.642332" lon="2.63105">
        <ele>290.1</ele>
        <time>2019-11-08T16:20:26Z</time>
      </trkpt>
      <trkpt lat="41.642359" lon="2.630887">
        <ele>287.4</ele>
        <time>2019-11-08T16:20:31Z</time>
      </trkpt>
      <trkpt lat="41.642505" lon="2.630711">
        <ele>282.9</ele>
        <time>2019-11-08T16:20:38Z</time>
      </trkpt>
      <trkpt lat="41.642645" lon="2.630594">
        <ele>279.3</ele>
        <time>2019-11-08T16:20:44Z</time>
      </trkpt>
      <trkpt lat="41.642793" lon="2.630489">
        <ele>275.9</ele>
        <time>2019-11-08T16:20:50Z</time>
      </trkpt>
      <trkpt lat="41.64296" lon="2.630353">
        <ele>273.8</ele>
        <time>2019-11-08T16:20:58Z</time>
      </trkpt>
      <trkpt lat="41.642991" lon="2.6301">
        <ele>273</ele>
        <time>2019-11-08T16:21:05Z</time>
      </trkpt>
      <trkpt lat="41.643025" lon="2.62985">
        <ele>272.2</ele>
        <time>2019-11-08T16:21:12Z</time>
      </trkpt>
      <trkpt lat="41.64302" lon="2.629811">
        <ele>272.1</ele>
        <time>2019-11-08T16:21:13Z</time>
      </trkpt>
      <trkpt lat="41.642953" lon="2.629679">
        <ele>272.2</ele>
        <time>2019-11-08T16:21:17Z</time>
      </trkpt>
      <trkpt lat="41.64283" lon="2.62946">
        <ele>273.9</ele>
        <time>2019-11-08T16:21:24Z</time>
      </trkpt>
      <trkpt lat="41.642736" lon="2.629214">
        <ele>275.9</ele>
        <time>2019-11-08T16:21:31Z</time>
      </trkpt>
      <trkpt lat="41.642605" lon="2.629002">
        <ele>277.5</ele>
        <time>2019-11-08T16:21:38Z</time>
      </trkpt>
      <trkpt lat="41.642439" lon="2.628879">
        <ele>278.2</ele>
        <time>2019-11-08T16:21:45Z</time>
      </trkpt>
      <trkpt lat="41.642419" lon="2.628852">
        <ele>278.3</ele>
        <time>2019-11-08T16:21:46Z</time>
      </trkpt>
      <trkpt lat="41.642327" lon="2.62862">
        <ele>279.1</ele>
        <time>2019-11-08T16:21:53Z</time>
      </trkpt>
      <trkpt lat="41.642218" lon="2.628421">
        <ele>280.1</ele>
        <time>2019-11-08T16:22:00Z</time>
      </trkpt>
      <trkpt lat="41.642049" lon="2.6283">
        <ele>281</ele>
        <time>2019-11-08T16:22:08Z</time>
      </trkpt>
      <trkpt lat="41.641868" lon="2.628241">
        <ele>282.1</ele>
        <time>2019-11-08T16:22:16Z</time>
      </trkpt>
      <trkpt lat="41.6418" lon="2.628237">
        <ele>282.5</ele>
        <time>2019-11-08T16:22:19Z</time>
      </trkpt>
      <trkpt lat="41.641618" lon="2.628262">
        <ele>283.6</ele>
        <time>2019-11-08T16:22:28Z</time>
      </trkpt>
      <trkpt lat="41.641481" lon="2.628218">
        <ele>284.8</ele>
        <time>2019-11-08T16:22:36Z</time>
      </trkpt>
      <trkpt lat="41.641345" lon="2.628135">
        <ele>286.7</ele>
        <time>2019-11-08T16:22:43Z</time>
      </trkpt>
      <trkpt lat="41.641215" lon="2.628102">
        <ele>287.7</ele>
        <time>2019-11-08T16:22:48Z</time>
      </trkpt>
      <trkpt lat="41.641025" lon="2.628072">
        <ele>289.1</ele>
        <time>2019-11-08T16:22:57Z</time>
      </trkpt>
      <trkpt lat="41.640884" lon="2.628166">
        <ele>290.1</ele>
        <time>2019-11-08T16:23:07Z</time>
      </trkpt>
      <trkpt lat="41.640857" lon="2.628335">
        <ele>290.9</ele>
        <time>2019-11-08T16:23:13Z</time>
      </trkpt>
      <trkpt lat="41.640746" lon="2.628565">
        <ele>292.5</ele>
        <time>2019-11-08T16:23:21Z</time>
      </trkpt>
      <trkpt lat="41.64059" lon="2.628728">
        <ele>293.5</ele>
        <time>2019-11-08T16:23:28Z</time>
      </trkpt>
      <trkpt lat="41.640393" lon="2.628793">
        <ele>294.2</ele>
        <time>2019-11-08T16:23:35Z</time>
      </trkpt>
      <trkpt lat="41.640221" lon="2.628871">
        <ele>294.5</ele>
        <time>2019-11-08T16:23:42Z</time>
      </trkpt>
      <trkpt lat="41.640069" lon="2.629">
        <ele>294.4</ele>
        <time>2019-11-08T16:23:49Z</time>
      </trkpt>
      <trkpt lat="41.640048" lon="2.629023">
        <ele>294.4</ele>
        <time>2019-11-08T16:23:50Z</time>
      </trkpt>
      <trkpt lat="41.639883" lon="2.62917">
        <ele>293.8</ele>
        <time>2019-11-08T16:23:57Z</time>
      </trkpt>
      <trkpt lat="41.639829" lon="2.629169">
        <ele>293.5</ele>
        <time>2019-11-08T16:23:59Z</time>
      </trkpt>
      <trkpt lat="41.639781" lon="2.629035">
        <ele>292.8</ele>
        <time>2019-11-08T16:24:03Z</time>
      </trkpt>
      <trkpt lat="41.639786" lon="2.628787">
        <ele>291.9</ele>
        <time>2019-11-08T16:24:09Z</time>
      </trkpt>
      <trkpt lat="41.639802" lon="2.628507">
        <ele>290.4</ele>
        <time>2019-11-08T16:24:16Z</time>
      </trkpt>
      <trkpt lat="41.639795" lon="2.62826">
        <ele>288.9</ele>
        <time>2019-11-08T16:24:22Z</time>
      </trkpt>
      <trkpt lat="41.639798" lon="2.628098">
        <ele>287.6</ele>
        <time>2019-11-08T16:24:26Z</time>
      </trkpt>
      <trkpt lat="41.639802" lon="2.628016">
        <ele>286.6</ele>
        <time>2019-11-08T16:24:28Z</time>
      </trkpt>
      <trkpt lat="41.639776" lon="2.627767">
        <ele>284.1</ele>
        <time>2019-11-08T16:24:34Z</time>
      </trkpt>
      <trkpt lat="41.639727" lon="2.627525">
        <ele>281.9</ele>
        <time>2019-11-08T16:24:40Z</time>
      </trkpt>
      <trkpt lat="41.639666" lon="2.62727">
        <ele>279</ele>
        <time>2019-11-08T16:24:47Z</time>
      </trkpt>
      <trkpt lat="41.639564" lon="2.62703">
        <ele>276.2</ele>
        <time>2019-11-08T16:24:54Z</time>
      </trkpt>
      <trkpt lat="41.639435" lon="2.626815">
        <ele>273.4</ele>
        <time>2019-11-08T16:25:01Z</time>
      </trkpt>
      <trkpt lat="41.639309" lon="2.626617">
        <ele>271.3</ele>
        <time>2019-11-08T16:25:08Z</time>
      </trkpt>
      <trkpt lat="41.639296" lon="2.626359">
        <ele>270.1</ele>
        <time>2019-11-08T16:25:15Z</time>
      </trkpt>
      <trkpt lat="41.639343" lon="2.626101">
        <ele>269.3</ele>
        <time>2019-11-08T16:25:22Z</time>
      </trkpt>
      <trkpt lat="41.639404" lon="2.625861">
        <ele>268.7</ele>
        <time>2019-11-08T16:25:29Z</time>
      </trkpt>
      <trkpt lat="41.639435" lon="2.625626">
        <ele>268.3</ele>
        <time>2019-11-08T16:25:36Z</time>
      </trkpt>
      <trkpt lat="41.639416" lon="2.625401">
        <ele>268.3</ele>
        <time>2019-11-08T16:25:43Z</time>
      </trkpt>
      <trkpt lat="41.639345" lon="2.625163">
        <ele>268.6</ele>
        <time>2019-11-08T16:25:51Z</time>
      </trkpt>
      <trkpt lat="41.639176" lon="2.625113">
        <ele>269.2</ele>
        <time>2019-11-08T16:26:02Z</time>
      </trkpt>
      <trkpt lat="41.639054" lon="2.625177">
        <ele>269.7</ele>
        <time>2019-11-08T16:26:09Z</time>
      </trkpt>
      <trkpt lat="41.638935" lon="2.625001">
        <ele>270.7</ele>
        <time>2019-11-08T16:26:18Z</time>
      </trkpt>
      <trkpt lat="41.638907" lon="2.624951">
        <ele>270.9</ele>
        <time>2019-11-08T16:26:20Z</time>
      </trkpt>
      <trkpt lat="41.638877" lon="2.624896">
        <ele>271.1</ele>
        <time>2019-11-08T16:26:22Z</time>
      </trkpt>
      <trkpt lat="41.63871" lon="2.624787">
        <ele>271.7</ele>
        <time>2019-11-08T16:26:30Z</time>
      </trkpt>
      <trkpt lat="41.638525" lon="2.624698">
        <ele>272.1</ele>
        <time>2019-11-08T16:26:38Z</time>
      </trkpt>
      <trkpt lat="41.638502" lon="2.624688">
        <ele>272.1</ele>
        <time>2019-11-08T16:26:39Z</time>
      </trkpt>
      <trkpt lat="41.638342" lon="2.624651">
        <ele>272</ele>
        <time>2019-11-08T16:26:45Z</time>
      </trkpt>
      <trkpt lat="41.63814" lon="2.624638">
        <ele>271.5</ele>
        <time>2019-11-08T16:26:53Z</time>
      </trkpt>
      <trkpt lat="41.637953" lon="2.624572">
        <ele>270.6</ele>
        <time>2019-11-08T16:27:02Z</time>
      </trkpt>
      <trkpt lat="41.637902" lon="2.624542">
        <ele>270.4</ele>
        <time>2019-11-08T16:27:04Z</time>
      </trkpt>
      <trkpt lat="41.637717" lon="2.624424">
        <ele>270</ele>
        <time>2019-11-08T16:27:11Z</time>
      </trkpt>
      <trkpt lat="41.637576" lon="2.624255">
        <ele>269.8</ele>
        <time>2019-11-08T16:27:18Z</time>
      </trkpt>
      <trkpt lat="41.637471" lon="2.624042">
        <ele>269.5</ele>
        <time>2019-11-08T16:27:25Z</time>
      </trkpt>
      <trkpt lat="41.637335" lon="2.623881">
        <ele>269.4</ele>
        <time>2019-11-08T16:27:32Z</time>
      </trkpt>
      <trkpt lat="41.63715" lon="2.623873">
        <ele>269.3</ele>
        <time>2019-11-08T16:27:41Z</time>
      </trkpt>
      <trkpt lat="41.637103" lon="2.623915">
        <ele>269.2</ele>
        <time>2019-11-08T16:27:47Z</time>
      </trkpt>
      <trkpt lat="41.637082" lon="2.623947">
        <ele>269.2</ele>
        <time>2019-11-08T16:29:15Z</time>
      </trkpt>
      <trkpt lat="41.637083" lon="2.62395">
        <ele>269.2</ele>
        <time>2019-11-08T16:29:16Z</time>
      </trkpt>
      <trkpt lat="41.636963" lon="2.624173">
        <ele>269</ele>
        <time>2019-11-08T16:29:29Z</time>
      </trkpt>
      <trkpt lat="41.636905" lon="2.624261">
        <ele>268.8</ele>
        <time>2019-11-08T16:29:32Z</time>
      </trkpt>
      <trkpt lat="41.63684" lon="2.624342">
        <ele>268.2</ele>
        <time>2019-11-08T16:29:35Z</time>
      </trkpt>
      <trkpt lat="41.636647" lon="2.62448">
        <ele>266.8</ele>
        <time>2019-11-08T16:29:42Z</time>
      </trkpt>
      <trkpt lat="41.636535" lon="2.624653">
        <ele>265.3</ele>
        <time>2019-11-08T16:29:48Z</time>
      </trkpt>
      <trkpt lat="41.636557" lon="2.624911">
        <ele>264.1</ele>
        <time>2019-11-08T16:29:55Z</time>
      </trkpt>
      <trkpt lat="41.636587" lon="2.624989">
        <ele>263.8</ele>
        <time>2019-11-08T16:29:57Z</time>
      </trkpt>
      <trkpt lat="41.636655" lon="2.625234">
        <ele>262.9</ele>
        <time>2019-11-08T16:30:03Z</time>
      </trkpt>
      <trkpt lat="41.636709" lon="2.625471">
        <ele>261.5</ele>
        <time>2019-11-08T16:30:09Z</time>
      </trkpt>
      <trkpt lat="41.63675" lon="2.625709">
        <ele>260.2</ele>
        <time>2019-11-08T16:30:15Z</time>
      </trkpt>
      <trkpt lat="41.636617" lon="2.62587">
        <ele>258.7</ele>
        <time>2019-11-08T16:30:21Z</time>
      </trkpt>
      <trkpt lat="41.636435" lon="2.625918">
        <ele>257.4</ele>
        <time>2019-11-08T16:30:27Z</time>
      </trkpt>
      <trkpt lat="41.636248" lon="2.626003">
        <ele>255.9</ele>
        <time>2019-11-08T16:30:33Z</time>
      </trkpt>
      <trkpt lat="41.636076" lon="2.62608">
        <ele>254.5</ele>
        <time>2019-11-08T16:30:39Z</time>
      </trkpt>
      <trkpt lat="41.635881" lon="2.626125">
        <ele>253.1</ele>
        <time>2019-11-08T16:30:46Z</time>
      </trkpt>
      <trkpt lat="41.635688" lon="2.626098">
        <ele>251.6</ele>
        <time>2019-11-08T16:30:53Z</time>
      </trkpt>
      <trkpt lat="41.635546" lon="2.626037">
        <ele>250</ele>
        <time>2019-11-08T16:30:58Z</time>
      </trkpt>
      <trkpt lat="41.635346" lon="2.626014">
        <ele>247.9</ele>
        <time>2019-11-08T16:31:05Z</time>
      </trkpt>
      <trkpt lat="41.635158" lon="2.626008">
        <ele>246.5</ele>
        <time>2019-11-08T16:31:12Z</time>
      </trkpt>
      <trkpt lat="41.634993" lon="2.625895">
        <ele>245.2</ele>
        <time>2019-11-08T16:31:18Z</time>
      </trkpt>
      <trkpt lat="41.634802" lon="2.625823">
        <ele>244</ele>
        <time>2019-11-08T16:31:25Z</time>
      </trkpt>
      <trkpt lat="41.634604" lon="2.625814">
        <ele>239.4</ele>
        <time>2019-11-08T16:31:31Z</time>
      </trkpt>
      <trkpt lat="41.634422" lon="2.625869">
        <ele>236</ele>
        <time>2019-11-08T16:31:37Z</time>
      </trkpt>
      <trkpt lat="41.634348" lon="2.626119">
        <ele>236.6</ele>
        <time>2019-11-08T16:31:44Z</time>
      </trkpt>
      <trkpt lat="41.634353" lon="2.626368">
        <ele>236.7</ele>
        <time>2019-11-08T16:31:50Z</time>
      </trkpt>
      <trkpt lat="41.634257" lon="2.626626">
        <ele>236.8</ele>
        <time>2019-11-08T16:31:57Z</time>
      </trkpt>
      <trkpt lat="41.634127" lon="2.626805">
        <ele>236.8</ele>
        <time>2019-11-08T16:32:03Z</time>
      </trkpt>
      <trkpt lat="41.634083" lon="2.627044">
        <ele>236.6</ele>
        <time>2019-11-08T16:32:10Z</time>
      </trkpt>
      <trkpt lat="41.634222" lon="2.627201">
        <ele>236.3</ele>
        <time>2019-11-08T16:32:17Z</time>
      </trkpt>
      <trkpt lat="41.634344" lon="2.627256">
        <ele>236.1</ele>
        <time>2019-11-08T16:32:22Z</time>
      </trkpt>
      <trkpt lat="41.634476" lon="2.627458">
        <ele>235.6</ele>
        <time>2019-11-08T16:32:29Z</time>
      </trkpt>
      <trkpt lat="41.63455" lon="2.627701">
        <ele>235.3</ele>
        <time>2019-11-08T16:32:35Z</time>
      </trkpt>
      <trkpt lat="41.634555" lon="2.62795">
        <ele>235</ele>
        <time>2019-11-08T16:32:41Z</time>
      </trkpt>
      <trkpt lat="41.634588" lon="2.628212">
        <ele>234.7</ele>
        <time>2019-11-08T16:32:48Z</time>
      </trkpt>
      <trkpt lat="41.634763" lon="2.628296">
        <ele>235.2</ele>
        <time>2019-11-08T16:32:55Z</time>
      </trkpt>
      <trkpt lat="41.634814" lon="2.628324">
        <ele>237.4</ele>
        <time>2019-11-08T16:32:57Z</time>
      </trkpt>
      <trkpt lat="41.634687" lon="2.628397">
        <ele>232.8</ele>
        <time>2019-11-08T16:33:03Z</time>
      </trkpt>
      <trkpt lat="41.634481" lon="2.628413">
        <ele>227.6</ele>
        <time>2019-11-08T16:33:10Z</time>
      </trkpt>
      <trkpt lat="41.634318" lon="2.628263">
        <ele>223.3</ele>
        <time>2019-11-08T16:33:17Z</time>
      </trkpt>
      <trkpt lat="41.634322" lon="2.628006">
        <ele>220.1</ele>
        <time>2019-11-08T16:33:24Z</time>
      </trkpt>
      <trkpt lat="41.634285" lon="2.62781">
        <ele>217.3</ele>
        <time>2019-11-08T16:33:30Z</time>
      </trkpt>
      <trkpt lat="41.634129" lon="2.627698">
        <ele>213</ele>
        <time>2019-11-08T16:33:38Z</time>
      </trkpt>
      <trkpt lat="41.633933" lon="2.627743">
        <ele>208.4</ele>
        <time>2019-11-08T16:33:47Z</time>
      </trkpt>
      <trkpt lat="41.633762" lon="2.627847">
        <ele>204.2</ele>
        <time>2019-11-08T16:33:55Z</time>
      </trkpt>
      <trkpt lat="41.633615" lon="2.628032">
        <ele>200</ele>
        <time>2019-11-08T16:34:02Z</time>
      </trkpt>
      <trkpt lat="41.633426" lon="2.628081">
        <ele>196.8</ele>
        <time>2019-11-08T16:34:10Z</time>
      </trkpt>
      <trkpt lat="41.633249" lon="2.628085">
        <ele>193.1</ele>
        <time>2019-11-08T16:34:18Z</time>
      </trkpt>
      <trkpt lat="41.633134" lon="2.628268">
        <ele>188.7</ele>
        <time>2019-11-08T16:34:26Z</time>
      </trkpt>
      <trkpt lat="41.63313" lon="2.628283">
        <ele>188.7</ele>
        <time>2019-11-08T16:34:28Z</time>
      </trkpt>
      <trkpt lat="41.633128" lon="2.628286">
        <ele>188.7</ele>
        <time>2019-11-08T16:34:29Z</time>
      </trkpt>
      <trkpt lat="41.633202" lon="2.628296">
        <ele>187.5</ele>
        <time>2019-11-08T14:13:09Z</time>
      </trkpt>
      <trkpt lat="41.633213" lon="2.62845">
        <ele>185.6</ele>
        <time>2019-11-08T14:13:10Z</time>
      </trkpt>
      <trkpt lat="41.633233" lon="2.628483">
        <ele>185.1</ele>
        <time>2019-11-08T14:13:12Z</time>
      </trkpt>
      <trkpt lat="41.63327" lon="2.62853">
        <ele>184.2</ele>
        <time>2019-11-08T14:13:14Z</time>
      </trkpt>
      <trkpt lat="41.633339" lon="2.628579">
        <ele>183</ele>
        <time>2019-11-08T14:13:16Z</time>
      </trkpt>
      <trkpt lat="41.633364" lon="2.628594">
        <ele>182.5</ele>
        <time>2019-11-08T14:13:17Z</time>
      </trkpt>
      <trkpt lat="41.63339" lon="2.6286">
        <ele>182</ele>
        <time>2019-11-08T14:13:20Z</time>
      </trkpt>
      <trkpt lat="41.633435" lon="2.628606">
        <ele>181</ele>
        <time>2019-11-08T14:13:23Z</time>
      </trkpt>
      <trkpt lat="41.633486" lon="2.62865">
        <ele>179.9</ele>
        <time>2019-11-08T14:13:25Z</time>
      </trkpt>
      <trkpt lat="41.633507" lon="2.628682">
        <ele>179.3</ele>
        <time>2019-11-08T14:13:27Z</time>
      </trkpt>
      <trkpt lat="41.633522" lon="2.628743">
        <ele>178.4</ele>
        <time>2019-11-08T14:13:28Z</time>
      </trkpt>
      <trkpt lat="41.633518" lon="2.62884">
        <ele>177.1</ele>
        <time>2019-11-08T14:13:30Z</time>
      </trkpt>
      <trkpt lat="41.633511" lon="2.628889">
        <ele>176.4</ele>
        <time>2019-11-08T14:13:32Z</time>
      </trkpt>
      <trkpt lat="41.633503" lon="2.629">
        <ele>174.9</ele>
        <time>2019-11-08T14:13:34Z</time>
      </trkpt>
      <trkpt lat="41.633493" lon="2.629042">
        <ele>174.5</ele>
        <time>2019-11-08T14:13:35Z</time>
      </trkpt>
      <trkpt lat="41.633488" lon="2.62909">
        <ele>174</ele>
        <time>2019-11-08T14:13:37Z</time>
      </trkpt>
      <trkpt lat="41.633466" lon="2.629157">
        <ele>173.2</ele>
        <time>2019-11-08T14:13:39Z</time>
      </trkpt>
      <trkpt lat="41.633461" lon="2.62922">
        <ele>172.7</ele>
        <time>2019-11-08T14:13:41Z</time>
      </trkpt>
      <trkpt lat="41.633457" lon="2.629265">
        <ele>172.3</ele>
        <time>2019-11-08T14:13:43Z</time>
      </trkpt>
      <trkpt lat="41.633454" lon="2.629329">
        <ele>171.8</ele>
        <time>2019-11-08T14:13:46Z</time>
      </trkpt>
      <trkpt lat="41.633456" lon="2.62937">
        <ele>171.4</ele>
        <time>2019-11-08T14:13:47Z</time>
      </trkpt>
      <trkpt lat="41.633459" lon="2.629426">
        <ele>171</ele>
        <time>2019-11-08T14:13:49Z</time>
      </trkpt>
      <trkpt lat="41.633459" lon="2.629516">
        <ele>170.2</ele>
        <time>2019-11-08T14:13:52Z</time>
      </trkpt>
      <trkpt lat="41.633451" lon="2.629555">
        <ele>169.9</ele>
        <time>2019-11-08T14:13:53Z</time>
      </trkpt>
      <trkpt lat="41.633433" lon="2.62959">
        <ele>169.6</ele>
        <time>2019-11-08T14:13:54Z</time>
      </trkpt>
      <trkpt lat="41.633407" lon="2.629617">
        <ele>169.2</ele>
        <time>2019-11-08T14:13:55Z</time>
      </trkpt>
      <trkpt lat="41.633363" lon="2.62965">
        <ele>168.7</ele>
        <time>2019-11-08T14:13:57Z</time>
      </trkpt>
      <trkpt lat="41.633322" lon="2.629671">
        <ele>168.2</ele>
        <time>2019-11-08T14:13:59Z</time>
      </trkpt>
      <trkpt lat="41.633269" lon="2.629684">
        <ele>167.5</ele>
        <time>2019-11-08T14:14:01Z</time>
      </trkpt>
      <trkpt lat="41.633241" lon="2.629691">
        <ele>167.2</ele>
        <time>2019-11-08T14:14:02Z</time>
      </trkpt>
      <trkpt lat="41.633213" lon="2.629696">
        <ele>166.8</ele>
        <time>2019-11-08T14:14:03Z</time>
      </trkpt>
      <trkpt lat="41.633176" lon="2.629708">
        <ele>166.3</ele>
        <time>2019-11-08T14:14:04Z</time>
      </trkpt>
      <trkpt lat="41.633126" lon="2.629728">
        <ele>165.5</ele>
        <time>2019-11-08T14:14:07Z</time>
      </trkpt>
      <trkpt lat="41.633073" lon="2.629748">
        <ele>164.6</ele>
        <time>2019-11-08T14:14:09Z</time>
      </trkpt>
      <trkpt lat="41.633035" lon="2.629764">
        <ele>163.9</ele>
        <time>2019-11-08T14:14:11Z</time>
      </trkpt>
      <trkpt lat="41.633009" lon="2.629779">
        <ele>163.4</ele>
        <time>2019-11-08T14:14:12Z</time>
      </trkpt>
      <trkpt lat="41.632983" lon="2.629797">
        <ele>162.9</ele>
        <time>2019-11-08T14:14:13Z</time>
      </trkpt>
      <trkpt lat="41.632944" lon="2.629823">
        <ele>162.2</ele>
        <time>2019-11-08T14:14:15Z</time>
      </trkpt>
      <trkpt lat="41.632919" lon="2.629841">
        <ele>161.8</ele>
        <time>2019-11-08T14:14:16Z</time>
      </trkpt>
      <trkpt lat="41.632893" lon="2.629857">
        <ele>161.4</ele>
        <time>2019-11-08T14:14:17Z</time>
      </trkpt>
      <trkpt lat="41.632838" lon="2.629922">
        <ele>159.7</ele>
        <time>2019-11-08T14:15:34Z</time>
      </trkpt>
      <trkpt lat="41.632783" lon="2.629943">
        <ele>158.3</ele>
        <time>2019-11-08T14:15:36Z</time>
      </trkpt>
      <trkpt lat="41.63275" lon="2.629886">
        <ele>157</ele>
        <time>2019-11-08T14:15:38Z</time>
      </trkpt>
      <trkpt lat="41.632676" lon="2.629887">
        <ele>155.1</ele>
        <time>2019-11-08T14:15:42Z</time>
      </trkpt>
      <trkpt lat="41.632649" lon="2.629895">
        <ele>154.3</ele>
        <time>2019-11-08T14:15:43Z</time>
      </trkpt>
      <trkpt lat="41.632623" lon="2.629916">
        <ele>153.6</ele>
        <time>2019-11-08T14:15:44Z</time>
      </trkpt>
      <trkpt lat="41.632596" lon="2.629945">
        <ele>152.7</ele>
        <time>2019-11-08T14:15:45Z</time>
      </trkpt>
      <trkpt lat="41.632573" lon="2.629974">
        <ele>151.9</ele>
        <time>2019-11-08T14:15:46Z</time>
      </trkpt>
      <trkpt lat="41.632549" lon="2.630004">
        <ele>151.1</ele>
        <time>2019-11-08T14:15:47Z</time>
      </trkpt>
      <trkpt lat="41.632525" lon="2.630036">
        <ele>150.3</ele>
        <time>2019-11-08T14:15:49Z</time>
      </trkpt>
      <trkpt lat="41.632485" lon="2.630074">
        <ele>149.3</ele>
        <time>2019-11-08T14:15:50Z</time>
      </trkpt>
      <trkpt lat="41.632455" lon="2.630102">
        <ele>148.7</ele>
        <time>2019-11-08T14:15:52Z</time>
      </trkpt>
      <trkpt lat="41.632399" lon="2.630153">
        <ele>147.8</ele>
        <time>2019-11-08T14:15:54Z</time>
      </trkpt>
      <trkpt lat="41.632372" lon="2.63018">
        <ele>147.4</ele>
        <time>2019-11-08T14:15:55Z</time>
      </trkpt>
      <trkpt lat="41.632349" lon="2.630207">
        <ele>147.1</ele>
        <time>2019-11-08T14:15:56Z</time>
      </trkpt>
      <trkpt lat="41.632316" lon="2.630242">
        <ele>146.7</ele>
        <time>2019-11-08T14:15:58Z</time>
      </trkpt>
      <trkpt lat="41.632264" lon="2.630294">
        <ele>146.1</ele>
        <time>2019-11-08T14:16:00Z</time>
      </trkpt>
      <trkpt lat="41.63221" lon="2.630338">
        <ele>145.5</ele>
        <time>2019-11-08T14:16:03Z</time>
      </trkpt>
      <trkpt lat="41.632175" lon="2.630367">
        <ele>145.2</ele>
        <time>2019-11-08T14:16:05Z</time>
      </trkpt>
      <trkpt lat="41.632131" lon="2.630402">
        <ele>145</ele>
        <time>2019-11-08T14:16:07Z</time>
      </trkpt>
      <trkpt lat="41.632088" lon="2.630448">
        <ele>144.7</ele>
        <time>2019-11-08T14:16:10Z</time>
      </trkpt>
      <trkpt lat="41.632052" lon="2.630488">
        <ele>144.5</ele>
        <time>2019-11-08T14:16:12Z</time>
      </trkpt>
      <trkpt lat="41.632012" lon="2.63053">
        <ele>144.2</ele>
        <time>2019-11-08T14:16:15Z</time>
      </trkpt>
      <trkpt lat="41.631967" lon="2.630579">
        <ele>143.9</ele>
        <time>2019-11-08T14:16:18Z</time>
      </trkpt>
      <trkpt lat="41.631917" lon="2.630637">
        <ele>143.5</ele>
        <time>2019-11-08T14:16:21Z</time>
      </trkpt>
      <trkpt lat="41.631896" lon="2.630663">
        <ele>143.4</ele>
        <time>2019-11-08T14:16:22Z</time>
      </trkpt>
      <trkpt lat="41.631864" lon="2.630702">
        <ele>143.2</ele>
        <time>2019-11-08T14:16:23Z</time>
      </trkpt>
      <trkpt lat="41.63184" lon="2.630725">
        <ele>143.1</ele>
        <time>2019-11-08T14:16:25Z</time>
      </trkpt>
      <trkpt lat="41.631815" lon="2.630748">
        <ele>143</ele>
        <time>2019-11-08T14:16:26Z</time>
      </trkpt>
      <trkpt lat="41.631791" lon="2.630767">
        <ele>143</ele>
        <time>2019-11-08T14:16:27Z</time>
      </trkpt>
      <trkpt lat="41.631751" lon="2.630798">
        <ele>142.8</ele>
        <time>2019-11-08T14:16:28Z</time>
      </trkpt>
      <trkpt lat="41.631713" lon="2.630823">
        <ele>142.7</ele>
        <time>2019-11-08T14:16:30Z</time>
      </trkpt>
      <trkpt lat="41.631675" lon="2.630848">
        <ele>142.6</ele>
        <time>2019-11-08T14:16:32Z</time>
      </trkpt>
      <trkpt lat="41.63165" lon="2.630865">
        <ele>142.5</ele>
        <time>2019-11-08T14:16:33Z</time>
      </trkpt>
      <trkpt lat="41.631601" lon="2.630934">
        <ele>142.3</ele>
        <time>2019-11-08T14:16:36Z</time>
      </trkpt>
      <trkpt lat="41.631589" lon="2.630967">
        <ele>142.2</ele>
        <time>2019-11-08T14:16:37Z</time>
      </trkpt>
      <trkpt lat="41.631569" lon="2.631041">
        <ele>142.1</ele>
        <time>2019-11-08T14:16:39Z</time>
      </trkpt>
      <trkpt lat="41.631558" lon="2.631079">
        <ele>142</ele>
        <time>2019-11-08T14:16:40Z</time>
      </trkpt>
      <trkpt lat="41.63155" lon="2.63112">
        <ele>142</ele>
        <time>2019-11-08T14:16:41Z</time>
      </trkpt>
      <trkpt lat="41.631542" lon="2.631161">
        <ele>141.9</ele>
        <time>2019-11-08T14:16:42Z</time>
      </trkpt>
      <trkpt lat="41.631525" lon="2.631219">
        <ele>141.7</ele>
        <time>2019-11-08T14:16:44Z</time>
      </trkpt>
      <trkpt lat="41.631504" lon="2.631279">
        <ele>141.6</ele>
        <time>2019-11-08T14:16:46Z</time>
      </trkpt>
      <trkpt lat="41.63149" lon="2.631315">
        <ele>141.5</ele>
        <time>2019-11-08T14:16:47Z</time>
      </trkpt>
      <trkpt lat="41.631474" lon="2.63135">
        <ele>141.4</ele>
        <time>2019-11-08T14:16:48Z</time>
      </trkpt>
      <trkpt lat="41.631443" lon="2.631408">
        <ele>141.2</ele>
        <time>2019-11-08T14:16:49Z</time>
      </trkpt>
      <trkpt lat="41.631409" lon="2.631463">
        <ele>141</ele>
        <time>2019-11-08T14:16:51Z</time>
      </trkpt>
      <trkpt lat="41.63137" lon="2.631516">
        <ele>140.8</ele>
        <time>2019-11-08T14:16:53Z</time>
      </trkpt>
      <trkpt lat="41.631305" lon="2.631585">
        <ele>140.6</ele>
        <time>2019-11-08T14:16:55Z</time>
      </trkpt>
      <trkpt lat="41.63126" lon="2.631636">
        <ele>140.4</ele>
        <time>2019-11-08T14:16:56Z</time>
      </trkpt>
      <trkpt lat="41.63123" lon="2.631679">
        <ele>140.3</ele>
        <time>2019-11-08T14:16:58Z</time>
      </trkpt>
      <trkpt lat="41.631188" lon="2.631769">
        <ele>140.2</ele>
        <time>2019-11-08T14:16:59Z</time>
      </trkpt>
      <trkpt lat="41.631171" lon="2.631818">
        <ele>140.2</ele>
        <time>2019-11-08T14:17:01Z</time>
      </trkpt>
      <trkpt lat="41.631159" lon="2.631864">
        <ele>140.1</ele>
        <time>2019-11-08T14:17:02Z</time>
      </trkpt>
      <trkpt lat="41.631147" lon="2.631931">
        <ele>140.1</ele>
        <time>2019-11-08T14:17:04Z</time>
      </trkpt>
      <trkpt lat="41.631141" lon="2.631973">
        <ele>140.1</ele>
        <time>2019-11-08T14:17:05Z</time>
      </trkpt>
      <trkpt lat="41.631133" lon="2.632017">
        <ele>140</ele>
        <time>2019-11-08T14:17:06Z</time>
      </trkpt>
      <trkpt lat="41.631123" lon="2.632059">
        <ele>140</ele>
        <time>2019-11-08T14:17:07Z</time>
      </trkpt>
      <trkpt lat="41.631111" lon="2.632099">
        <ele>140</ele>
        <time>2019-11-08T14:17:08Z</time>
      </trkpt>
      <trkpt lat="41.631086" lon="2.632158">
        <ele>139.7</ele>
        <time>2019-11-08T14:17:10Z</time>
      </trkpt>
      <trkpt lat="41.631071" lon="2.632193">
        <ele>139.7</ele>
        <time>2019-11-08T14:17:11Z</time>
      </trkpt>
      <trkpt lat="41.631055" lon="2.63223">
        <ele>139.6</ele>
        <time>2019-11-08T14:17:12Z</time>
      </trkpt>
      <trkpt lat="41.631032" lon="2.632284">
        <ele>139.5</ele>
        <time>2019-11-08T14:17:14Z</time>
      </trkpt>
      <trkpt lat="41.63101" lon="2.632334">
        <ele>139.4</ele>
        <time>2019-11-08T14:17:15Z</time>
      </trkpt>
      <trkpt lat="41.63099" lon="2.632386">
        <ele>139.3</ele>
        <time>2019-11-08T14:17:17Z</time>
      </trkpt>
      <trkpt lat="41.63097" lon="2.632444">
        <ele>139.2</ele>
        <time>2019-11-08T14:17:19Z</time>
      </trkpt>
      <trkpt lat="41.630952" lon="2.632501">
        <ele>139.1</ele>
        <time>2019-11-08T14:17:20Z</time>
      </trkpt>
      <trkpt lat="41.63094" lon="2.632539">
        <ele>139.1</ele>
        <time>2019-11-08T14:17:21Z</time>
      </trkpt>
      <trkpt lat="41.630926" lon="2.632577">
        <ele>139</ele>
        <time>2019-11-08T14:17:22Z</time>
      </trkpt>
      <trkpt lat="41.630909" lon="2.632611">
        <ele>138.9</ele>
        <time>2019-11-08T14:17:24Z</time>
      </trkpt>
      <trkpt lat="41.63089" lon="2.63264">
        <ele>138.8</ele>
        <time>2019-11-08T14:17:25Z</time>
      </trkpt>
      <trkpt lat="41.630869" lon="2.632668">
        <ele>138.8</ele>
        <time>2019-11-08T14:17:26Z</time>
      </trkpt>
      <trkpt lat="41.630813" lon="2.632725">
        <ele>138.6</ele>
        <time>2019-11-08T14:17:28Z</time>
      </trkpt>
      <trkpt lat="41.630767" lon="2.632772">
        <ele>138.4</ele>
        <time>2019-11-08T14:17:31Z</time>
      </trkpt>
      <trkpt lat="41.630749" lon="2.632806">
        <ele>138.3</ele>
        <time>2019-11-08T14:17:32Z</time>
      </trkpt>
      <trkpt lat="41.630733" lon="2.632864">
        <ele>138.2</ele>
        <time>2019-11-08T14:17:34Z</time>
      </trkpt>
      <trkpt lat="41.630733" lon="2.632903">
        <ele>138.1</ele>
        <time>2019-11-08T14:17:35Z</time>
      </trkpt>
      <trkpt lat="41.630741" lon="2.632938">
        <ele>137.9</ele>
        <time>2019-11-08T14:17:36Z</time>
      </trkpt>
      <trkpt lat="41.630767" lon="2.632982">
        <ele>137.8</ele>
        <time>2019-11-08T14:17:38Z</time>
      </trkpt>
      <trkpt lat="41.630801" lon="2.633022">
        <ele>137.6</ele>
        <time>2019-11-08T14:17:39Z</time>
      </trkpt>
      <trkpt lat="41.630823" lon="2.633053">
        <ele>137.3</ele>
        <time>2019-11-08T14:17:40Z</time>
      </trkpt>
      <trkpt lat="41.630855" lon="2.633103">
        <ele>136.9</ele>
        <time>2019-11-08T14:17:42Z</time>
      </trkpt>
      <trkpt lat="41.630871" lon="2.633138">
        <ele>136.5</ele>
        <time>2019-11-08T14:17:43Z</time>
      </trkpt>
      <trkpt lat="41.630885" lon="2.633179">
        <ele>136.2</ele>
        <time>2019-11-08T14:17:44Z</time>
      </trkpt>
      <trkpt lat="41.630895" lon="2.63324">
        <ele>135.6</ele>
        <time>2019-11-08T14:17:46Z</time>
      </trkpt>
      <trkpt lat="41.63091" lon="2.633433">
        <ele>133.9</ele>
        <time>2019-11-08T14:17:48Z</time>
      </trkpt>
      <trkpt lat="41.630927" lon="2.63347">
        <ele>133.6</ele>
        <time>2019-11-08T14:17:54Z</time>
      </trkpt>
      <trkpt lat="41.630909" lon="2.633542">
        <ele>133.1</ele>
        <time>2019-11-08T14:17:56Z</time>
      </trkpt>
      <trkpt lat="41.630896" lon="2.633598">
        <ele>132.7</ele>
        <time>2019-11-08T14:17:57Z</time>
      </trkpt>
      <trkpt lat="41.630875" lon="2.633653">
        <ele>132.4</ele>
        <time>2019-11-08T14:17:59Z</time>
      </trkpt>
      <trkpt lat="41.630855" lon="2.633712">
        <ele>132</ele>
        <time>2019-11-08T14:18:01Z</time>
      </trkpt>
      <trkpt lat="41.63084" lon="2.633771">
        <ele>131.7</ele>
        <time>2019-11-08T14:18:02Z</time>
      </trkpt>
      <trkpt lat="41.630821" lon="2.633835">
        <ele>131.4</ele>
        <time>2019-11-08T14:18:04Z</time>
      </trkpt>
      <trkpt lat="41.630794" lon="2.633905">
        <ele>131</ele>
        <time>2019-11-08T14:18:06Z</time>
      </trkpt>
      <trkpt lat="41.630737" lon="2.634003">
        <ele>130.6</ele>
        <time>2019-11-08T14:18:08Z</time>
      </trkpt>
      <trkpt lat="41.630713" lon="2.634038">
        <ele>130.5</ele>
        <time>2019-11-08T14:18:09Z</time>
      </trkpt>
      <trkpt lat="41.630688" lon="2.634073">
        <ele>130.4</ele>
        <time>2019-11-08T14:18:11Z</time>
      </trkpt>
      <trkpt lat="41.630657" lon="2.634131">
        <ele>130.3</ele>
        <time>2019-11-08T14:18:13Z</time>
      </trkpt>
      <trkpt lat="41.630632" lon="2.634172">
        <ele>130.2</ele>
        <time>2019-11-08T14:18:14Z</time>
      </trkpt>
      <trkpt lat="41.630603" lon="2.634232">
        <ele>129.9</ele>
        <time>2019-11-08T14:18:16Z</time>
      </trkpt>
      <trkpt lat="41.630564" lon="2.634324">
        <ele>129.3</ele>
        <time>2019-11-08T14:18:18Z</time>
      </trkpt>
      <trkpt lat="41.630551" lon="2.634383">
        <ele>128.8</ele>
        <time>2019-11-08T14:18:19Z</time>
      </trkpt>
      <trkpt lat="41.630545" lon="2.634425">
        <ele>128.5</ele>
        <time>2019-11-08T14:18:21Z</time>
      </trkpt>
      <trkpt lat="41.630533" lon="2.634502">
        <ele>127.7</ele>
        <time>2019-11-08T14:18:23Z</time>
      </trkpt>
      <trkpt lat="41.630526" lon="2.634557">
        <ele>127.1</ele>
        <time>2019-11-08T14:18:24Z</time>
      </trkpt>
      <trkpt lat="41.630517" lon="2.634615">
        <ele>126.4</ele>
        <time>2019-11-08T14:18:26Z</time>
      </trkpt>
      <trkpt lat="41.630505" lon="2.634671">
        <ele>125.7</ele>
        <time>2019-11-08T14:18:27Z</time>
      </trkpt>
      <trkpt lat="41.630497" lon="2.634708">
        <ele>125.3</ele>
        <time>2019-11-08T14:18:29Z</time>
      </trkpt>
      <trkpt lat="41.630486" lon="2.634768">
        <ele>124.5</ele>
        <time>2019-11-08T14:18:30Z</time>
      </trkpt>
      <trkpt lat="41.63047" lon="2.634818">
        <ele>123.8</ele>
        <time>2019-11-08T14:18:32Z</time>
      </trkpt>
      <trkpt lat="41.630456" lon="2.634857">
        <ele>123.4</ele>
        <time>2019-11-08T14:18:33Z</time>
      </trkpt>
      <trkpt lat="41.630436" lon="2.634912">
        <ele>122.9</ele>
        <time>2019-11-08T14:18:35Z</time>
      </trkpt>
      <trkpt lat="41.630419" lon="2.63497">
        <ele>122.4</ele>
        <time>2019-11-08T14:18:37Z</time>
      </trkpt>
      <trkpt lat="41.630387" lon="2.635039">
        <ele>121.9</ele>
        <time>2019-11-08T14:18:39Z</time>
      </trkpt>
      <trkpt lat="41.630367" lon="2.635097">
        <ele>121.6</ele>
        <time>2019-11-08T14:18:40Z</time>
      </trkpt>
      <trkpt lat="41.630345" lon="2.635154">
        <ele>121.3</ele>
        <time>2019-11-08T14:18:42Z</time>
      </trkpt>
      <trkpt lat="41.630327" lon="2.635213">
        <ele>121</ele>
        <time>2019-11-08T14:18:44Z</time>
      </trkpt>
      <trkpt lat="41.630317" lon="2.635255">
        <ele>120.8</ele>
        <time>2019-11-08T14:18:45Z</time>
      </trkpt>
      <trkpt lat="41.630305" lon="2.635318">
        <ele>120.5</ele>
        <time>2019-11-08T14:18:47Z</time>
      </trkpt>
      <trkpt lat="41.630303" lon="2.635384">
        <ele>120.2</ele>
        <time>2019-11-08T14:18:48Z</time>
      </trkpt>
      <trkpt lat="41.630306" lon="2.635431">
        <ele>120</ele>
        <time>2019-11-08T14:18:50Z</time>
      </trkpt>
      <trkpt lat="41.63031" lon="2.635478">
        <ele>119.8</ele>
        <time>2019-11-08T14:18:51Z</time>
      </trkpt>
      <trkpt lat="41.630315" lon="2.63552">
        <ele>119.6</ele>
        <time>2019-11-08T14:18:52Z</time>
      </trkpt>
      <trkpt lat="41.630317" lon="2.635565">
        <ele>119.4</ele>
        <time>2019-11-08T14:18:53Z</time>
      </trkpt>
      <trkpt lat="41.630319" lon="2.635636">
        <ele>119.1</ele>
        <time>2019-11-08T14:18:54Z</time>
      </trkpt>
      <trkpt lat="41.63032" lon="2.635688">
        <ele>118.8</ele>
        <time>2019-11-08T14:18:55Z</time>
      </trkpt>
      <trkpt lat="41.630321" lon="2.635757">
        <ele>118.4</ele>
        <time>2019-11-08T14:18:57Z</time>
      </trkpt>
      <trkpt lat="41.630319" lon="2.635824">
        <ele>117.9</ele>
        <time>2019-11-08T14:18:59Z</time>
      </trkpt>
      <trkpt lat="41.630315" lon="2.635865">
        <ele>117.7</ele>
        <time>2019-11-08T14:19:00Z</time>
      </trkpt>
      <trkpt lat="41.630312" lon="2.635908">
        <ele>117.4</ele>
        <time>2019-11-08T14:19:01Z</time>
      </trkpt>
      <trkpt lat="41.630311" lon="2.635971">
        <ele>117</ele>
        <time>2019-11-08T14:19:02Z</time>
      </trkpt>
      <trkpt lat="41.630311" lon="2.636034">
        <ele>116.6</ele>
        <time>2019-11-08T14:19:04Z</time>
      </trkpt>
      <trkpt lat="41.630313" lon="2.636094">
        <ele>116.2</ele>
        <time>2019-11-08T14:19:06Z</time>
      </trkpt>
      <trkpt lat="41.630315" lon="2.636133">
        <ele>115.9</ele>
        <time>2019-11-08T14:19:07Z</time>
      </trkpt>
      <trkpt lat="41.630315" lon="2.636198">
        <ele>115.4</ele>
        <time>2019-11-08T14:19:08Z</time>
      </trkpt>
      <trkpt lat="41.630309" lon="2.636263">
        <ele>115</ele>
        <time>2019-11-08T14:19:10Z</time>
      </trkpt>
      <trkpt lat="41.630301" lon="2.636306">
        <ele>114.8</ele>
        <time>2019-11-08T14:19:11Z</time>
      </trkpt>
      <trkpt lat="41.630293" lon="2.636349">
        <ele>114.5</ele>
        <time>2019-11-08T14:19:13Z</time>
      </trkpt>
      <trkpt lat="41.630281" lon="2.636417">
        <ele>114.2</ele>
        <time>2019-11-08T14:19:14Z</time>
      </trkpt>
      <trkpt lat="41.630273" lon="2.636462">
        <ele>114</ele>
        <time>2019-11-08T14:19:15Z</time>
      </trkpt>
      <trkpt lat="41.630262" lon="2.63653">
        <ele>113.7</ele>
        <time>2019-11-08T14:19:17Z</time>
      </trkpt>
      <trkpt lat="41.630257" lon="2.636581">
        <ele>113.4</ele>
        <time>2019-11-08T14:19:18Z</time>
      </trkpt>
      <trkpt lat="41.630254" lon="2.636648">
        <ele>113.1</ele>
        <time>2019-11-08T14:19:20Z</time>
      </trkpt>
      <trkpt lat="41.630256" lon="2.636716">
        <ele>112.7</ele>
        <time>2019-11-08T14:19:21Z</time>
      </trkpt>
      <trkpt lat="41.63026" lon="2.636767">
        <ele>112.3</ele>
        <time>2019-11-08T14:19:22Z</time>
      </trkpt>
      <trkpt lat="41.630272" lon="2.636833">
        <ele>111.7</ele>
        <time>2019-11-08T14:19:24Z</time>
      </trkpt>
      <trkpt lat="41.630287" lon="2.636898">
        <ele>111.2</ele>
        <time>2019-11-08T14:19:26Z</time>
      </trkpt>
      <trkpt lat="41.6303" lon="2.636938">
        <ele>110.8</ele>
        <time>2019-11-08T14:19:27Z</time>
      </trkpt>
      <trkpt lat="41.630314" lon="2.636982">
        <ele>110.5</ele>
        <time>2019-11-08T14:19:28Z</time>
      </trkpt>
      <trkpt lat="41.630332" lon="2.637045">
        <ele>110.1</ele>
        <time>2019-11-08T14:19:30Z</time>
      </trkpt>
      <trkpt lat="41.63034" lon="2.637092">
        <ele>109.8</ele>
        <time>2019-11-08T14:19:31Z</time>
      </trkpt>
      <trkpt lat="41.630343" lon="2.637135">
        <ele>109.6</ele>
        <time>2019-11-08T14:19:32Z</time>
      </trkpt>
      <trkpt lat="41.630344" lon="2.637183">
        <ele>109.3</ele>
        <time>2019-11-08T14:19:33Z</time>
      </trkpt>
      <trkpt lat="41.630342" lon="2.63725">
        <ele>109</ele>
        <time>2019-11-08T14:19:35Z</time>
      </trkpt>
      <trkpt lat="41.630332" lon="2.637313">
        <ele>108.8</ele>
        <time>2019-11-08T14:19:36Z</time>
      </trkpt>
      <trkpt lat="41.630317" lon="2.63738">
        <ele>108.7</ele>
        <time>2019-11-08T14:19:38Z</time>
      </trkpt>
      <trkpt lat="41.630298" lon="2.637443">
        <ele>108.3</ele>
        <time>2019-11-08T14:19:39Z</time>
      </trkpt>
      <trkpt lat="41.630275" lon="2.637504">
        <ele>108.1</ele>
        <time>2019-11-08T14:19:41Z</time>
      </trkpt>
      <trkpt lat="41.630253" lon="2.637567">
        <ele>107.8</ele>
        <time>2019-11-08T14:19:43Z</time>
      </trkpt>
      <trkpt lat="41.630236" lon="2.637614">
        <ele>107.6</ele>
        <time>2019-11-08T14:19:44Z</time>
      </trkpt>
      <trkpt lat="41.630215" lon="2.63768">
        <ele>107.3</ele>
        <time>2019-11-08T14:19:46Z</time>
      </trkpt>
      <trkpt lat="41.630201" lon="2.637726">
        <ele>107.1</ele>
        <time>2019-11-08T14:19:47Z</time>
      </trkpt>
      <trkpt lat="41.630187" lon="2.637779">
        <ele>106.8</ele>
        <time>2019-11-08T14:19:48Z</time>
      </trkpt>
      <trkpt lat="41.630163" lon="2.637847">
        <ele>106.6</ele>
        <time>2019-11-08T14:19:49Z</time>
      </trkpt>
      <trkpt lat="41.630139" lon="2.637907">
        <ele>106.3</ele>
        <time>2019-11-08T14:19:51Z</time>
      </trkpt>
      <trkpt lat="41.630122" lon="2.637946">
        <ele>106.2</ele>
        <time>2019-11-08T14:19:52Z</time>
      </trkpt>
      <trkpt lat="41.630095" lon="2.637998">
        <ele>106</ele>
        <time>2019-11-08T14:19:54Z</time>
      </trkpt>
      <trkpt lat="41.630064" lon="2.638047">
        <ele>105.8</ele>
        <time>2019-11-08T14:19:56Z</time>
      </trkpt>
      <trkpt lat="41.630044" lon="2.638074">
        <ele>105.6</ele>
        <time>2019-11-08T14:19:57Z</time>
      </trkpt>
      <trkpt lat="41.630019" lon="2.638102">
        <ele>105.4</ele>
        <time>2019-11-08T14:19:58Z</time>
      </trkpt>
      <trkpt lat="41.629997" lon="2.638127">
        <ele>105.3</ele>
        <time>2019-11-08T14:19:59Z</time>
      </trkpt>
      <trkpt lat="41.629962" lon="2.638164">
        <ele>105.1</ele>
        <time>2019-11-08T14:20:00Z</time>
      </trkpt>
      <trkpt lat="41.629936" lon="2.638188">
        <ele>105</ele>
        <time>2019-11-08T14:20:01Z</time>
      </trkpt>
      <trkpt lat="41.629909" lon="2.638209">
        <ele>104.8</ele>
        <time>2019-11-08T14:20:03Z</time>
      </trkpt>
      <trkpt lat="41.629882" lon="2.638232">
        <ele>104.7</ele>
        <time>2019-11-08T14:20:04Z</time>
      </trkpt>
      <trkpt lat="41.629843" lon="2.638266">
        <ele>104.5</ele>
        <time>2019-11-08T14:20:06Z</time>
      </trkpt>
      <trkpt lat="41.629802" lon="2.638302">
        <ele>104.1</ele>
        <time>2019-11-08T14:20:07Z</time>
      </trkpt>
      <trkpt lat="41.629763" lon="2.638343">
        <ele>103.8</ele>
        <time>2019-11-08T14:20:09Z</time>
      </trkpt>
      <trkpt lat="41.629733" lon="2.638374">
        <ele>103.7</ele>
        <time>2019-11-08T14:20:10Z</time>
      </trkpt>
      <trkpt lat="41.62969" lon="2.63842">
        <ele>103.4</ele>
        <time>2019-11-08T14:20:12Z</time>
      </trkpt>
      <trkpt lat="41.629661" lon="2.638449">
        <ele>103.3</ele>
        <time>2019-11-08T14:20:13Z</time>
      </trkpt>
      <trkpt lat="41.629617" lon="2.63849">
        <ele>103</ele>
        <time>2019-11-08T14:20:14Z</time>
      </trkpt>
      <trkpt lat="41.629585" lon="2.638514">
        <ele>102.8</ele>
        <time>2019-11-08T14:20:16Z</time>
      </trkpt>
      <trkpt lat="41.629534" lon="2.63854">
        <ele>102.6</ele>
        <time>2019-11-08T14:20:17Z</time>
      </trkpt>
      <trkpt lat="41.629483" lon="2.638559">
        <ele>102.4</ele>
        <time>2019-11-08T14:20:19Z</time>
      </trkpt>
      <trkpt lat="41.629427" lon="2.63858">
        <ele>102.2</ele>
        <time>2019-11-08T14:20:21Z</time>
      </trkpt>
      <trkpt lat="41.629377" lon="2.638594">
        <ele>102</ele>
        <time>2019-11-08T14:20:22Z</time>
      </trkpt>
      <trkpt lat="41.629344" lon="2.638598">
        <ele>101.9</ele>
        <time>2019-11-08T14:20:23Z</time>
      </trkpt>
      <trkpt lat="41.629285" lon="2.638604">
        <ele>101.6</ele>
        <time>2019-11-08T14:20:25Z</time>
      </trkpt>
      <trkpt lat="41.629248" lon="2.638605">
        <ele>101.4</ele>
        <time>2019-11-08T14:20:26Z</time>
      </trkpt>
      <trkpt lat="41.629184" lon="2.638611">
        <ele>101.2</ele>
        <time>2019-11-08T14:20:28Z</time>
      </trkpt>
      <trkpt lat="41.629092" lon="2.638628">
        <ele>100.8</ele>
        <time>2019-11-08T14:20:29Z</time>
      </trkpt>
      <trkpt lat="41.628998" lon="2.638643">
        <ele>100.5</ele>
        <time>2019-11-08T14:20:30Z</time>
      </trkpt>
      <trkpt lat="41.628897" lon="2.638654">
        <ele>100.1</ele>
        <time>2019-11-08T14:20:32Z</time>
      </trkpt>
      <trkpt lat="41.628823" lon="2.638661">
        <ele>99.7</ele>
        <time>2019-11-08T14:20:33Z</time>
      </trkpt>
      <trkpt lat="41.62876" lon="2.638662">
        <ele>99.4</ele>
        <time>2019-11-08T14:20:35Z</time>
      </trkpt>
      <trkpt lat="41.628723" lon="2.638661">
        <ele>99.3</ele>
        <time>2019-11-08T14:20:36Z</time>
      </trkpt>
      <trkpt lat="41.628679" lon="2.638661">
        <ele>99.2</ele>
        <time>2019-11-08T14:20:38Z</time>
      </trkpt>
      <trkpt lat="41.628649" lon="2.638663">
        <ele>99.1</ele>
        <time>2019-11-08T14:20:39Z</time>
      </trkpt>
      <trkpt lat="41.628602" lon="2.638667">
        <ele>98.9</ele>
        <time>2019-11-08T14:20:41Z</time>
      </trkpt>
      <trkpt lat="41.628534" lon="2.638673">
        <ele>98.7</ele>
        <time>2019-11-08T14:20:43Z</time>
      </trkpt>
      <trkpt lat="41.628505" lon="2.638676">
        <ele>98.6</ele>
        <time>2019-11-08T14:20:45Z</time>
      </trkpt>
      <trkpt lat="41.628457" lon="2.638686">
        <ele>98.5</ele>
        <time>2019-11-08T14:20:48Z</time>
      </trkpt>
      <trkpt lat="41.628429" lon="2.638692">
        <ele>98.4</ele>
        <time>2019-11-08T14:20:49Z</time>
      </trkpt>
      <trkpt lat="41.628383" lon="2.638709">
        <ele>98.2</ele>
        <time>2019-11-08T14:20:51Z</time>
      </trkpt>
      <trkpt lat="41.628339" lon="2.638734">
        <ele>98</ele>
        <time>2019-11-08T14:20:52Z</time>
      </trkpt>
      <trkpt lat="41.628312" lon="2.638761">
        <ele>97.8</ele>
        <time>2019-11-08T14:20:53Z</time>
      </trkpt>
      <trkpt lat="41.628271" lon="2.638802">
        <ele>97.5</ele>
        <time>2019-11-08T14:20:55Z</time>
      </trkpt>
      <trkpt lat="41.628212" lon="2.638851">
        <ele>97.1</ele>
        <time>2019-11-08T14:20:57Z</time>
      </trkpt>
      <trkpt lat="41.628206" lon="2.638892">
        <ele>97</ele>
        <time>2019-11-08T14:20:59Z</time>
      </trkpt>
      <trkpt lat="41.62819" lon="2.638924">
        <ele>96.9</ele>
        <time>2019-11-08T14:21:00Z</time>
      </trkpt>
      <trkpt lat="41.628173" lon="2.638957">
        <ele>96.8</ele>
        <time>2019-11-08T14:21:02Z</time>
      </trkpt>
      <trkpt lat="41.628135" lon="2.639021">
        <ele>96.6</ele>
        <time>2019-11-08T14:21:05Z</time>
      </trkpt>
      <trkpt lat="41.628118" lon="2.639049">
        <ele>96.5</ele>
        <time>2019-11-08T14:21:06Z</time>
      </trkpt>
      <trkpt lat="41.62809" lon="2.639098">
        <ele>96.3</ele>
        <time>2019-11-08T14:21:07Z</time>
      </trkpt>
      <trkpt lat="41.628064" lon="2.63915">
        <ele>96.2</ele>
        <time>2019-11-08T14:21:09Z</time>
      </trkpt>
      <trkpt lat="41.628038" lon="2.639203">
        <ele>96</ele>
        <time>2019-11-08T14:21:11Z</time>
      </trkpt>
      <trkpt lat="41.62801" lon="2.639257">
        <ele>95.9</ele>
        <time>2019-11-08T14:21:12Z</time>
      </trkpt>
      <trkpt lat="41.627981" lon="2.639328">
        <ele>95.7</ele>
        <time>2019-11-08T14:21:14Z</time>
      </trkpt>
      <trkpt lat="41.627968" lon="2.639359">
        <ele>95.6</ele>
        <time>2019-11-08T14:21:15Z</time>
      </trkpt>
      <trkpt lat="41.627945" lon="2.639429">
        <ele>95.4</ele>
        <time>2019-11-08T14:21:17Z</time>
      </trkpt>
      <trkpt lat="41.627929" lon="2.639478">
        <ele>95.3</ele>
        <time>2019-11-08T14:21:18Z</time>
      </trkpt>
      <trkpt lat="41.627909" lon="2.639556">
        <ele>95.1</ele>
        <time>2019-11-08T14:21:20Z</time>
      </trkpt>
      <trkpt lat="41.627883" lon="2.639657">
        <ele>94.9</ele>
        <time>2019-11-08T14:21:21Z</time>
      </trkpt>
      <trkpt lat="41.627871" lon="2.639705">
        <ele>94.8</ele>
        <time>2019-11-08T14:21:23Z</time>
      </trkpt>
      <trkpt lat="41.627849" lon="2.639773">
        <ele>94.7</ele>
        <time>2019-11-08T14:21:24Z</time>
      </trkpt>
      <trkpt lat="41.627835" lon="2.639815">
        <ele>94.6</ele>
        <time>2019-11-08T14:21:25Z</time>
      </trkpt>
      <trkpt lat="41.627826" lon="2.639852">
        <ele>94.5</ele>
        <time>2019-11-08T14:21:27Z</time>
      </trkpt>
      <trkpt lat="41.627807" lon="2.639913">
        <ele>94.3</ele>
        <time>2019-11-08T14:21:28Z</time>
      </trkpt>
      <trkpt lat="41.627795" lon="2.639951">
        <ele>94.2</ele>
        <time>2019-11-08T14:21:30Z</time>
      </trkpt>
      <trkpt lat="41.627778" lon="2.640018">
        <ele>94.1</ele>
        <time>2019-11-08T14:21:32Z</time>
      </trkpt>
      <trkpt lat="41.627761" lon="2.640079">
        <ele>94</ele>
        <time>2019-11-08T14:21:33Z</time>
      </trkpt>
      <trkpt lat="41.627744" lon="2.640136">
        <ele>93.6</ele>
        <time>2019-11-08T14:21:35Z</time>
      </trkpt>
      <trkpt lat="41.627731" lon="2.640175">
        <ele>93.5</ele>
        <time>2019-11-08T14:21:36Z</time>
      </trkpt>
      <trkpt lat="41.627709" lon="2.640225">
        <ele>93.2</ele>
        <time>2019-11-08T14:21:38Z</time>
      </trkpt>
      <trkpt lat="41.627686" lon="2.640276">
        <ele>92.9</ele>
        <time>2019-11-08T14:21:40Z</time>
      </trkpt>
      <trkpt lat="41.627662" lon="2.640324">
        <ele>92.6</ele>
        <time>2019-11-08T14:21:42Z</time>
      </trkpt>
      <trkpt lat="41.627646" lon="2.640356">
        <ele>92.4</ele>
        <time>2019-11-08T14:21:43Z</time>
      </trkpt>
      <trkpt lat="41.62763" lon="2.640393">
        <ele>92.2</ele>
        <time>2019-11-08T14:21:45Z</time>
      </trkpt>
      <trkpt lat="41.627614" lon="2.64046">
        <ele>91.9</ele>
        <time>2019-11-08T14:21:48Z</time>
      </trkpt>
      <trkpt lat="41.627603" lon="2.640519">
        <ele>91.7</ele>
        <time>2019-11-08T14:21:51Z</time>
      </trkpt>
      <trkpt lat="41.627589" lon="2.64058">
        <ele>91.5</ele>
        <time>2019-11-08T14:21:53Z</time>
      </trkpt>
      <trkpt lat="41.627573" lon="2.640644">
        <ele>91.3</ele>
        <time>2019-11-08T14:21:55Z</time>
      </trkpt>
      <trkpt lat="41.627561" lon="2.640686">
        <ele>91.2</ele>
        <time>2019-11-08T14:21:56Z</time>
      </trkpt>
      <trkpt lat="41.627538" lon="2.640754">
        <ele>91.1</ele>
        <time>2019-11-08T14:21:57Z</time>
      </trkpt>
      <trkpt lat="41.627516" lon="2.640825">
        <ele>90.9</ele>
        <time>2019-11-08T14:21:59Z</time>
      </trkpt>
      <trkpt lat="41.627502" lon="2.640869">
        <ele>90.9</ele>
        <time>2019-11-08T14:22:00Z</time>
      </trkpt>
      <trkpt lat="41.627483" lon="2.64093">
        <ele>90.6</ele>
        <time>2019-11-08T14:22:02Z</time>
      </trkpt>
      <trkpt lat="41.627469" lon="2.640971">
        <ele>90.4</ele>
        <time>2019-11-08T14:22:03Z</time>
      </trkpt>
      <trkpt lat="41.627457" lon="2.64101">
        <ele>90.3</ele>
        <time>2019-11-08T14:22:04Z</time>
      </trkpt>
      <trkpt lat="41.627446" lon="2.641047">
        <ele>90.2</ele>
        <time>2019-11-08T14:22:05Z</time>
      </trkpt>
      <trkpt lat="41.627432" lon="2.641104">
        <ele>90</ele>
        <time>2019-11-08T14:22:07Z</time>
      </trkpt>
      <trkpt lat="41.627415" lon="2.641173">
        <ele>89.6</ele>
        <time>2019-11-08T14:22:09Z</time>
      </trkpt>
      <trkpt lat="41.627405" lon="2.641246">
        <ele>89.3</ele>
        <time>2019-11-08T14:22:11Z</time>
      </trkpt>
      <trkpt lat="41.627397" lon="2.641302">
        <ele>89.1</ele>
        <time>2019-11-08T14:22:13Z</time>
      </trkpt>
      <trkpt lat="41.627382" lon="2.641382">
        <ele>88.4</ele>
        <time>2019-11-08T14:22:16Z</time>
      </trkpt>
      <trkpt lat="41.627372" lon="2.641425">
        <ele>88</ele>
        <time>2019-11-08T14:22:17Z</time>
      </trkpt>
      <trkpt lat="41.627368" lon="2.64148">
        <ele>87.6</ele>
        <time>2019-11-08T14:22:19Z</time>
      </trkpt>
      <trkpt lat="41.62737" lon="2.641522">
        <ele>87.3</ele>
        <time>2019-11-08T14:22:20Z</time>
      </trkpt>
      <trkpt lat="41.627374" lon="2.641565">
        <ele>87</ele>
        <time>2019-11-08T14:22:21Z</time>
      </trkpt>
      <trkpt lat="41.627394" lon="2.641634">
        <ele>86.5</ele>
        <time>2019-11-08T14:22:23Z</time>
      </trkpt>
      <trkpt lat="41.627411" lon="2.641699">
        <ele>86.1</ele>
        <time>2019-11-08T14:22:24Z</time>
      </trkpt>
      <trkpt lat="41.627425" lon="2.641748">
        <ele>85.8</ele>
        <time>2019-11-08T14:22:26Z</time>
      </trkpt>
      <trkpt lat="41.627449" lon="2.641827">
        <ele>85.3</ele>
        <time>2019-11-08T14:22:27Z</time>
      </trkpt>
      <trkpt lat="41.627466" lon="2.641908">
        <ele>84.9</ele>
        <time>2019-11-08T14:22:29Z</time>
      </trkpt>
      <trkpt lat="41.627474" lon="2.641975">
        <ele>84.5</ele>
        <time>2019-11-08T14:22:30Z</time>
      </trkpt>
      <trkpt lat="41.627482" lon="2.64202">
        <ele>84.3</ele>
        <time>2019-11-08T14:22:32Z</time>
      </trkpt>
      <trkpt lat="41.62749" lon="2.642069">
        <ele>84</ele>
        <time>2019-11-08T14:22:33Z</time>
      </trkpt>
      <trkpt lat="41.627494" lon="2.642139">
        <ele>83.7</ele>
        <time>2019-11-08T14:22:34Z</time>
      </trkpt>
      <trkpt lat="41.627492" lon="2.642239">
        <ele>83.2</ele>
        <time>2019-11-08T14:22:36Z</time>
      </trkpt>
      <trkpt lat="41.627481" lon="2.642367">
        <ele>82.6</ele>
        <time>2019-11-08T14:22:37Z</time>
      </trkpt>
      <trkpt lat="41.627474" lon="2.642549">
        <ele>81.8</ele>
        <time>2019-11-08T14:22:39Z</time>
      </trkpt>
      <trkpt lat="41.627466" lon="2.642678">
        <ele>81.4</ele>
        <time>2019-11-08T14:22:40Z</time>
      </trkpt>
      <trkpt lat="41.627465" lon="2.642743">
        <ele>81.2</ele>
        <time>2019-11-08T14:22:42Z</time>
      </trkpt>
      <trkpt lat="41.627472" lon="2.642783">
        <ele>81</ele>
        <time>2019-11-08T14:22:43Z</time>
      </trkpt>
      <trkpt lat="41.627475" lon="2.642824">
        <ele>80.8</ele>
        <time>2019-11-08T14:22:46Z</time>
      </trkpt>
      <trkpt lat="41.627467" lon="2.642874">
        <ele>80.5</ele>
        <time>2019-11-08T14:22:47Z</time>
      </trkpt>
      <trkpt lat="41.62745" lon="2.642935">
        <ele>80.2</ele>
        <time>2019-11-08T14:22:49Z</time>
      </trkpt>
      <trkpt lat="41.627424" lon="2.642998">
        <ele>79.9</ele>
        <time>2019-11-08T14:22:50Z</time>
      </trkpt>
      <trkpt lat="41.627399" lon="2.643041">
        <ele>79.7</ele>
        <time>2019-11-08T14:22:52Z</time>
      </trkpt>
      <trkpt lat="41.62737" lon="2.643084">
        <ele>79.4</ele>
        <time>2019-11-08T14:22:53Z</time>
      </trkpt>
      <trkpt lat="41.627337" lon="2.643123">
        <ele>79.2</ele>
        <time>2019-11-08T14:22:54Z</time>
      </trkpt>
      <trkpt lat="41.62729" lon="2.643172">
        <ele>79</ele>
        <time>2019-11-08T14:22:56Z</time>
      </trkpt>
      <trkpt lat="41.62724" lon="2.643211">
        <ele>78.8</ele>
        <time>2019-11-08T14:22:57Z</time>
      </trkpt>
      <trkpt lat="41.627193" lon="2.643244">
        <ele>78.6</ele>
        <time>2019-11-08T14:22:59Z</time>
      </trkpt>
      <trkpt lat="41.627148" lon="2.643274">
        <ele>78.4</ele>
        <time>2019-11-08T14:23:01Z</time>
      </trkpt>
      <trkpt lat="41.627102" lon="2.643303">
        <ele>78.2</ele>
        <time>2019-11-08T14:23:02Z</time>
      </trkpt>
      <trkpt lat="41.627059" lon="2.643331">
        <ele>78.1</ele>
        <time>2019-11-08T14:23:04Z</time>
      </trkpt>
      <trkpt lat="41.627017" lon="2.643362">
        <ele>77.9</ele>
        <time>2019-11-08T14:23:05Z</time>
      </trkpt>
      <trkpt lat="41.62699" lon="2.643383">
        <ele>77.9</ele>
        <time>2019-11-08T14:23:07Z</time>
      </trkpt>
      <trkpt lat="41.626964" lon="2.643403">
        <ele>77.8</ele>
        <time>2019-11-08T14:23:08Z</time>
      </trkpt>
      <trkpt lat="41.626924" lon="2.643434">
        <ele>77.6</ele>
        <time>2019-11-08T14:23:09Z</time>
      </trkpt>
      <trkpt lat="41.626897" lon="2.643455">
        <ele>77.4</ele>
        <time>2019-11-08T14:23:11Z</time>
      </trkpt>
      <trkpt lat="41.626859" lon="2.643488">
        <ele>77.2</ele>
        <time>2019-11-08T14:23:12Z</time>
      </trkpt>
      <trkpt lat="41.626822" lon="2.643517">
        <ele>77</ele>
        <time>2019-11-08T14:23:14Z</time>
      </trkpt>
      <trkpt lat="41.626786" lon="2.643552">
        <ele>76.8</ele>
        <time>2019-11-08T14:23:15Z</time>
      </trkpt>
      <trkpt lat="41.626763" lon="2.64358">
        <ele>76.7</ele>
        <time>2019-11-08T14:23:17Z</time>
      </trkpt>
      <trkpt lat="41.626743" lon="2.643607">
        <ele>76.7</ele>
        <time>2019-11-08T14:23:18Z</time>
      </trkpt>
      <trkpt lat="41.626711" lon="2.64365">
        <ele>76.7</ele>
        <time>2019-11-08T14:23:20Z</time>
      </trkpt>
      <trkpt lat="41.62669" lon="2.643676">
        <ele>76.7</ele>
        <time>2019-11-08T14:23:21Z</time>
      </trkpt>
      <trkpt lat="41.626649" lon="2.643731">
        <ele>76.6</ele>
        <time>2019-11-08T14:23:23Z</time>
      </trkpt>
      <trkpt lat="41.626617" lon="2.643772">
        <ele>76.3</ele>
        <time>2019-11-08T14:23:25Z</time>
      </trkpt>
      <trkpt lat="41.626595" lon="2.643795">
        <ele>76.1</ele>
        <time>2019-11-08T14:23:26Z</time>
      </trkpt>
      <trkpt lat="41.626557" lon="2.643831">
        <ele>75.8</ele>
        <time>2019-11-08T14:23:27Z</time>
      </trkpt>
      <trkpt lat="41.626523" lon="2.643867">
        <ele>75.6</ele>
        <time>2019-11-08T14:23:29Z</time>
      </trkpt>
      <trkpt lat="41.626488" lon="2.64391">
        <ele>75.3</ele>
        <time>2019-11-08T14:23:31Z</time>
      </trkpt>
      <trkpt lat="41.626444" lon="2.643968">
        <ele>74.9</ele>
        <time>2019-11-08T14:23:33Z</time>
      </trkpt>
      <trkpt lat="41.626408" lon="2.64401">
        <ele>74.6</ele>
        <time>2019-11-08T14:23:35Z</time>
      </trkpt>
      <trkpt lat="41.626382" lon="2.644043">
        <ele>74.5</ele>
        <time>2019-11-08T14:23:36Z</time>
      </trkpt>
      <trkpt lat="41.626345" lon="2.644088">
        <ele>74.3</ele>
        <time>2019-11-08T14:23:37Z</time>
      </trkpt>
      <trkpt lat="41.626311" lon="2.644131">
        <ele>74.1</ele>
        <time>2019-11-08T14:23:39Z</time>
      </trkpt>
      <trkpt lat="41.626277" lon="2.644175">
        <ele>73.9</ele>
        <time>2019-11-08T14:23:41Z</time>
      </trkpt>
      <trkpt lat="41.626256" lon="2.644205">
        <ele>73.8</ele>
        <time>2019-11-08T14:23:42Z</time>
      </trkpt>
      <trkpt lat="41.626214" lon="2.644269">
        <ele>73.6</ele>
        <time>2019-11-08T14:23:44Z</time>
      </trkpt>
      <trkpt lat="41.626178" lon="2.644316">
        <ele>73.5</ele>
        <time>2019-11-08T14:23:46Z</time>
      </trkpt>
      <trkpt lat="41.626143" lon="2.644358">
        <ele>73.3</ele>
        <time>2019-11-08T14:23:47Z</time>
      </trkpt>
      <trkpt lat="41.626101" lon="2.644399">
        <ele>73.1</ele>
        <time>2019-11-08T14:23:49Z</time>
      </trkpt>
      <trkpt lat="41.626074" lon="2.644421">
        <ele>72.9</ele>
        <time>2019-11-08T14:23:50Z</time>
      </trkpt>
      <trkpt lat="41.626047" lon="2.644446">
        <ele>72.7</ele>
        <time>2019-11-08T14:23:51Z</time>
      </trkpt>
      <trkpt lat="41.626006" lon="2.64448">
        <ele>72.3</ele>
        <time>2019-11-08T14:23:53Z</time>
      </trkpt>
      <trkpt lat="41.625979" lon="2.644503">
        <ele>72</ele>
        <time>2019-11-08T14:23:54Z</time>
      </trkpt>
      <trkpt lat="41.625937" lon="2.644545">
        <ele>71.4</ele>
        <time>2019-11-08T14:23:56Z</time>
      </trkpt>
      <trkpt lat="41.625907" lon="2.644579">
        <ele>71</ele>
        <time>2019-11-08T14:23:57Z</time>
      </trkpt>
      <trkpt lat="41.625866" lon="2.644627">
        <ele>70.3</ele>
        <time>2019-11-08T14:23:58Z</time>
      </trkpt>
      <trkpt lat="41.625826" lon="2.644678">
        <ele>69.6</ele>
        <time>2019-11-08T14:24:00Z</time>
      </trkpt>
      <trkpt lat="41.625786" lon="2.644729">
        <ele>68.9</ele>
        <time>2019-11-08T14:24:01Z</time>
      </trkpt>
      <trkpt lat="41.625763" lon="2.644757">
        <ele>68.6</ele>
        <time>2019-11-08T14:24:03Z</time>
      </trkpt>
      <trkpt lat="41.625739" lon="2.644788">
        <ele>68.3</ele>
        <time>2019-11-08T14:24:04Z</time>
      </trkpt>
      <trkpt lat="41.625715" lon="2.64482">
        <ele>68</ele>
        <time>2019-11-08T14:24:05Z</time>
      </trkpt>
      <trkpt lat="41.625687" lon="2.644858">
        <ele>67.7</ele>
        <time>2019-11-08T14:24:06Z</time>
      </trkpt>
      <trkpt lat="41.62565" lon="2.644913">
        <ele>67.4</ele>
        <time>2019-11-08T14:24:08Z</time>
      </trkpt>
      <trkpt lat="41.625614" lon="2.644961">
        <ele>67.2</ele>
        <time>2019-11-08T14:24:10Z</time>
      </trkpt>
      <trkpt lat="41.62559" lon="2.644992">
        <ele>67.1</ele>
        <time>2019-11-08T14:24:11Z</time>
      </trkpt>
      <trkpt lat="41.625533" lon="2.645066">
        <ele>66.9</ele>
        <time>2019-11-08T14:24:12Z</time>
      </trkpt>
      <trkpt lat="41.625459" lon="2.64516">
        <ele>66.7</ele>
        <time>2019-11-08T14:24:14Z</time>
      </trkpt>
      <trkpt lat="41.62542" lon="2.645209">
        <ele>66.7</ele>
        <time>2019-11-08T14:24:15Z</time>
      </trkpt>
      <trkpt lat="41.625396" lon="2.645226">
        <ele>66.7</ele>
        <time>2019-11-08T14:24:17Z</time>
      </trkpt>
      <trkpt lat="41.625367" lon="2.645267">
        <ele>66.6</ele>
        <time>2019-11-08T14:24:19Z</time>
      </trkpt>
      <trkpt lat="41.62534" lon="2.645303">
        <ele>66.6</ele>
        <time>2019-11-08T14:24:21Z</time>
      </trkpt>
      <trkpt lat="41.625277" lon="2.645381">
        <ele>66.5</ele>
        <time>2019-11-08T14:24:23Z</time>
      </trkpt>
      <trkpt lat="41.625253" lon="2.645422">
        <ele>66.4</ele>
        <time>2019-11-08T14:24:24Z</time>
      </trkpt>
      <trkpt lat="41.625216" lon="2.645478">
        <ele>66.2</ele>
        <time>2019-11-08T14:24:26Z</time>
      </trkpt>
      <trkpt lat="41.625169" lon="2.645555">
        <ele>66</ele>
        <time>2019-11-08T14:24:28Z</time>
      </trkpt>
      <trkpt lat="41.625142" lon="2.645607">
        <ele>65.9</ele>
        <time>2019-11-08T14:24:29Z</time>
      </trkpt>
      <trkpt lat="41.625119" lon="2.645659">
        <ele>65.7</ele>
        <time>2019-11-08T14:24:31Z</time>
      </trkpt>
      <trkpt lat="41.625099" lon="2.645713">
        <ele>65.6</ele>
        <time>2019-11-08T14:24:33Z</time>
      </trkpt>
      <trkpt lat="41.62508" lon="2.645768">
        <ele>65.5</ele>
        <time>2019-11-08T14:24:34Z</time>
      </trkpt>
      <trkpt lat="41.625061" lon="2.645828">
        <ele>65.3</ele>
        <time>2019-11-08T14:24:36Z</time>
      </trkpt>
      <trkpt lat="41.625048" lon="2.64587">
        <ele>65.2</ele>
        <time>2019-11-08T14:24:37Z</time>
      </trkpt>
      <trkpt lat="41.625037" lon="2.645908">
        <ele>65.1</ele>
        <time>2019-11-08T14:24:38Z</time>
      </trkpt>
      <trkpt lat="41.625019" lon="2.645967">
        <ele>64.9</ele>
        <time>2019-11-08T14:24:40Z</time>
      </trkpt>
      <trkpt lat="41.625" lon="2.646024">
        <ele>64.8</ele>
        <time>2019-11-08T14:24:41Z</time>
      </trkpt>
      <trkpt lat="41.624997" lon="2.646096">
        <ele>64.7</ele>
        <time>2019-11-08T14:24:46Z</time>
      </trkpt>
      <trkpt lat="41.624985" lon="2.646139">
        <ele>64.6</ele>
        <time>2019-11-08T14:24:47Z</time>
      </trkpt>
      <trkpt lat="41.624962" lon="2.646206">
        <ele>64.5</ele>
        <time>2019-11-08T14:24:49Z</time>
      </trkpt>
      <trkpt lat="41.624938" lon="2.646273">
        <ele>64.3</ele>
        <time>2019-11-08T14:24:51Z</time>
      </trkpt>
      <trkpt lat="41.624912" lon="2.646337">
        <ele>64.1</ele>
        <time>2019-11-08T14:24:52Z</time>
      </trkpt>
      <trkpt lat="41.624889" lon="2.646399">
        <ele>63.9</ele>
        <time>2019-11-08T14:24:54Z</time>
      </trkpt>
      <trkpt lat="41.624875" lon="2.646444">
        <ele>63.8</ele>
        <time>2019-11-08T14:24:55Z</time>
      </trkpt>
      <trkpt lat="41.624861" lon="2.646487">
        <ele>63.5</ele>
        <time>2019-11-08T14:24:56Z</time>
      </trkpt>
      <trkpt lat="41.624842" lon="2.646545">
        <ele>63</ele>
        <time>2019-11-08T14:24:58Z</time>
      </trkpt>
      <trkpt lat="41.624826" lon="2.6466">
        <ele>62.6</ele>
        <time>2019-11-08T14:24:59Z</time>
      </trkpt>
      <trkpt lat="41.624814" lon="2.646641">
        <ele>62.4</ele>
        <time>2019-11-08T14:25:01Z</time>
      </trkpt>
      <trkpt lat="41.624802" lon="2.646684">
        <ele>62.1</ele>
        <time>2019-11-08T14:25:02Z</time>
      </trkpt>
      <trkpt lat="41.624788" lon="2.646723">
        <ele>62</ele>
        <time>2019-11-08T14:25:03Z</time>
      </trkpt>
      <trkpt lat="41.624765" lon="2.646784">
        <ele>61.8</ele>
        <time>2019-11-08T14:25:05Z</time>
      </trkpt>
      <trkpt lat="41.624732" lon="2.64687">
        <ele>61.6</ele>
        <time>2019-11-08T14:25:07Z</time>
      </trkpt>
      <trkpt lat="41.624716" lon="2.646911">
        <ele>61.5</ele>
        <time>2019-11-08T14:25:08Z</time>
      </trkpt>
      <trkpt lat="41.624713" lon="2.646968">
        <ele>61.4</ele>
        <time>2019-11-08T14:25:11Z</time>
      </trkpt>
      <trkpt lat="41.624699" lon="2.64702">
        <ele>61.2</ele>
        <time>2019-11-08T14:25:13Z</time>
      </trkpt>
      <trkpt lat="41.62468" lon="2.647086">
        <ele>61</ele>
        <time>2019-11-08T14:25:15Z</time>
      </trkpt>
      <trkpt lat="41.624617" lon="2.647239">
        <ele>60.5</ele>
        <time>2019-11-08T14:25:17Z</time>
      </trkpt>
      <trkpt lat="41.624588" lon="2.647313">
        <ele>60.2</ele>
        <time>2019-11-08T14:25:18Z</time>
      </trkpt>
      <trkpt lat="41.624558" lon="2.647388">
        <ele>60</ele>
        <time>2019-11-08T14:25:19Z</time>
      </trkpt>
      <trkpt lat="41.624518" lon="2.647483">
        <ele>59.8</ele>
        <time>2019-11-08T14:25:21Z</time>
      </trkpt>
      <trkpt lat="41.624487" lon="2.647559">
        <ele>59.7</ele>
        <time>2019-11-08T14:25:22Z</time>
      </trkpt>
      <trkpt lat="41.624468" lon="2.647604">
        <ele>59.7</ele>
        <time>2019-11-08T14:25:24Z</time>
      </trkpt>
      <trkpt lat="41.624452" lon="2.647702">
        <ele>59.5</ele>
        <time>2019-11-08T14:25:26Z</time>
      </trkpt>
      <trkpt lat="41.624445" lon="2.647746">
        <ele>59.4</ele>
        <time>2019-11-08T14:25:27Z</time>
      </trkpt>
      <trkpt lat="41.62444" lon="2.647788">
        <ele>59.2</ele>
        <time>2019-11-08T14:25:28Z</time>
      </trkpt>
      <trkpt lat="41.624436" lon="2.647829">
        <ele>59.1</ele>
        <time>2019-11-08T14:25:29Z</time>
      </trkpt>
      <trkpt lat="41.624431" lon="2.647885">
        <ele>58.9</ele>
        <time>2019-11-08T14:25:31Z</time>
      </trkpt>
      <trkpt lat="41.624424" lon="2.647933">
        <ele>58.8</ele>
        <time>2019-11-08T14:25:32Z</time>
      </trkpt>
      <trkpt lat="41.624417" lon="2.64797">
        <ele>58.7</ele>
        <time>2019-11-08T14:25:34Z</time>
      </trkpt>
      <trkpt lat="41.624413" lon="2.64803">
        <ele>58.5</ele>
        <time>2019-11-08T14:25:36Z</time>
      </trkpt>
      <trkpt lat="41.624395" lon="2.648129">
        <ele>58.1</ele>
        <time>2019-11-08T14:25:40Z</time>
      </trkpt>
      <trkpt lat="41.62439" lon="2.648153">
        <ele>58</ele>
        <time>2019-11-08T14:25:41Z</time>
      </trkpt>
      <trkpt lat="41.624379" lon="2.648192">
        <ele>57.9</ele>
        <time>2019-11-08T14:25:42Z</time>
      </trkpt>
      <trkpt lat="41.62436" lon="2.64825">
        <ele>57.6</ele>
        <time>2019-11-08T14:25:44Z</time>
      </trkpt>
      <trkpt lat="41.624346" lon="2.648285">
        <ele>57.5</ele>
        <time>2019-11-08T14:25:45Z</time>
      </trkpt>
      <trkpt lat="41.624324" lon="2.648337">
        <ele>57.3</ele>
        <time>2019-11-08T14:25:47Z</time>
      </trkpt>
      <trkpt lat="41.624298" lon="2.64839">
        <ele>57.1</ele>
        <time>2019-11-08T14:25:48Z</time>
      </trkpt>
      <trkpt lat="41.624282" lon="2.648423">
        <ele>57.1</ele>
        <time>2019-11-08T14:25:50Z</time>
      </trkpt>
      <trkpt lat="41.624264" lon="2.648454">
        <ele>57</ele>
        <time>2019-11-08T14:25:51Z</time>
      </trkpt>
      <trkpt lat="41.624235" lon="2.648499">
        <ele>56.9</ele>
        <time>2019-11-08T14:25:53Z</time>
      </trkpt>
      <trkpt lat="41.624195" lon="2.648548">
        <ele>56.8</ele>
        <time>2019-11-08T14:25:55Z</time>
      </trkpt>
      <trkpt lat="41.624163" lon="2.648596">
        <ele>56.8</ele>
        <time>2019-11-08T14:25:56Z</time>
      </trkpt>
      <trkpt lat="41.624144" lon="2.648623">
        <ele>56.7</ele>
        <time>2019-11-08T14:25:57Z</time>
      </trkpt>
      <trkpt lat="41.62411" lon="2.648662">
        <ele>56.6</ele>
        <time>2019-11-08T14:26:00Z</time>
      </trkpt>
      <trkpt lat="41.624082" lon="2.648703">
        <ele>56.5</ele>
        <time>2019-11-08T14:26:01Z</time>
      </trkpt>
      <trkpt lat="41.624056" lon="2.648737">
        <ele>56.4</ele>
        <time>2019-11-08T14:26:03Z</time>
      </trkpt>
      <trkpt lat="41.624026" lon="2.648776">
        <ele>56.2</ele>
        <time>2019-11-08T14:26:05Z</time>
      </trkpt>
      <trkpt lat="41.623984" lon="2.648842">
        <ele>56.1</ele>
        <time>2019-11-08T14:26:07Z</time>
      </trkpt>
      <trkpt lat="41.623964" lon="2.648874">
        <ele>56</ele>
        <time>2019-11-08T14:26:08Z</time>
      </trkpt>
      <trkpt lat="41.623934" lon="2.648928">
        <ele>55.9</ele>
        <time>2019-11-08T14:26:09Z</time>
      </trkpt>
      <trkpt lat="41.623913" lon="2.648964">
        <ele>55.9</ele>
        <time>2019-11-08T14:26:11Z</time>
      </trkpt>
      <trkpt lat="41.623893" lon="2.649003">
        <ele>55.8</ele>
        <time>2019-11-08T14:26:12Z</time>
      </trkpt>
      <trkpt lat="41.623873" lon="2.649049">
        <ele>55.8</ele>
        <time>2019-11-08T14:26:13Z</time>
      </trkpt>
      <trkpt lat="41.623845" lon="2.649122">
        <ele>55.6</ele>
        <time>2019-11-08T14:26:15Z</time>
      </trkpt>
      <trkpt lat="41.623871" lon="2.649164">
        <ele>55.5</ele>
        <time>2019-11-08T14:26:17Z</time>
      </trkpt>
      <trkpt lat="41.623864" lon="2.649192">
        <ele>55.4</ele>
        <time>2019-11-08T14:26:18Z</time>
      </trkpt>
      <trkpt lat="41.623848" lon="2.64926">
        <ele>55.2</ele>
        <time>2019-11-08T14:26:20Z</time>
      </trkpt>
      <trkpt lat="41.62383" lon="2.649347">
        <ele>54.9</ele>
        <time>2019-11-08T14:26:22Z</time>
      </trkpt>
      <trkpt lat="41.623811" lon="2.64943">
        <ele>54.5</ele>
        <time>2019-11-08T14:26:23Z</time>
      </trkpt>
      <trkpt lat="41.623791" lon="2.649485">
        <ele>54.2</ele>
        <time>2019-11-08T14:26:25Z</time>
      </trkpt>
      <trkpt lat="41.623741" lon="2.649602">
        <ele>53.4</ele>
        <time>2019-11-08T14:26:27Z</time>
      </trkpt>
      <trkpt lat="41.623716" lon="2.649659">
        <ele>53</ele>
        <time>2019-11-08T14:26:28Z</time>
      </trkpt>
      <trkpt lat="41.623688" lon="2.649721">
        <ele>52.6</ele>
        <time>2019-11-08T14:26:29Z</time>
      </trkpt>
      <trkpt lat="41.623646" lon="2.649805">
        <ele>52.1</ele>
        <time>2019-11-08T14:26:31Z</time>
      </trkpt>
      <trkpt lat="41.623617" lon="2.649852">
        <ele>51.8</ele>
        <time>2019-11-08T14:26:32Z</time>
      </trkpt>
      <trkpt lat="41.623574" lon="2.649917">
        <ele>51.4</ele>
        <time>2019-11-08T14:26:34Z</time>
      </trkpt>
      <trkpt lat="41.623534" lon="2.649973">
        <ele>51.1</ele>
        <time>2019-11-08T14:26:35Z</time>
      </trkpt>
      <trkpt lat="41.623491" lon="2.650026">
        <ele>50.6</ele>
        <time>2019-11-08T14:26:37Z</time>
      </trkpt>
      <trkpt lat="41.62346" lon="2.650061">
        <ele>50.3</ele>
        <time>2019-11-08T14:26:38Z</time>
      </trkpt>
      <trkpt lat="41.623397" lon="2.650144">
        <ele>49.8</ele>
        <time>2019-11-08T14:26:40Z</time>
      </trkpt>
      <trkpt lat="41.623375" lon="2.650175">
        <ele>49.6</ele>
        <time>2019-11-08T14:26:41Z</time>
      </trkpt>
      <trkpt lat="41.623367" lon="2.65012">
        <ele>49.4</ele>
        <time>2019-11-08T14:26:42Z</time>
      </trkpt>
      <trkpt lat="41.623332" lon="2.650141">
        <ele>49.2</ele>
        <time>2019-11-08T14:26:47Z</time>
      </trkpt>
      <trkpt lat="41.623304" lon="2.650191">
        <ele>49.1</ele>
        <time>2019-11-08T14:26:49Z</time>
      </trkpt>
      <trkpt lat="41.623278" lon="2.650253">
        <ele>48.9</ele>
        <time>2019-11-08T14:26:51Z</time>
      </trkpt>
      <trkpt lat="41.62324" lon="2.650374">
        <ele>48.7</ele>
        <time>2019-11-08T14:26:53Z</time>
      </trkpt>
      <trkpt lat="41.623221" lon="2.650433">
        <ele>48.5</ele>
        <time>2019-11-08T14:26:54Z</time>
      </trkpt>
      <trkpt lat="41.623194" lon="2.650516">
        <ele>48.3</ele>
        <time>2019-11-08T14:26:56Z</time>
      </trkpt>
      <trkpt lat="41.623176" lon="2.650573">
        <ele>48.1</ele>
        <time>2019-11-08T14:26:57Z</time>
      </trkpt>
      <trkpt lat="41.62315" lon="2.650645">
        <ele>47.8</ele>
        <time>2019-11-08T14:26:59Z</time>
      </trkpt>
      <trkpt lat="41.623114" lon="2.650732">
        <ele>47.5</ele>
        <time>2019-11-08T14:27:01Z</time>
      </trkpt>
      <trkpt lat="41.623087" lon="2.650798">
        <ele>47.3</ele>
        <time>2019-11-08T14:27:02Z</time>
      </trkpt>
      <trkpt lat="41.623067" lon="2.650837">
        <ele>47.2</ele>
        <time>2019-11-08T14:27:04Z</time>
      </trkpt>
      <trkpt lat="41.623047" lon="2.650878">
        <ele>47.1</ele>
        <time>2019-11-08T14:27:05Z</time>
      </trkpt>
      <trkpt lat="41.623027" lon="2.650914">
        <ele>47</ele>
        <time>2019-11-08T14:27:06Z</time>
      </trkpt>
      <trkpt lat="41.622999" lon="2.650964">
        <ele>46.9</ele>
        <time>2019-11-08T14:27:08Z</time>
      </trkpt>
      <trkpt lat="41.622978" lon="2.650996">
        <ele>46.8</ele>
        <time>2019-11-08T14:27:09Z</time>
      </trkpt>
      <trkpt lat="41.622956" lon="2.65103">
        <ele>46.7</ele>
        <time>2019-11-08T14:27:10Z</time>
      </trkpt>
      <trkpt lat="41.622922" lon="2.651083">
        <ele>46.5</ele>
        <time>2019-11-08T14:27:12Z</time>
      </trkpt>
      <trkpt lat="41.622875" lon="2.651151">
        <ele>46.2</ele>
        <time>2019-11-08T14:27:14Z</time>
      </trkpt>
      <trkpt lat="41.622851" lon="2.651187">
        <ele>46</ele>
        <time>2019-11-08T14:27:15Z</time>
      </trkpt>
      <trkpt lat="41.622822" lon="2.651237">
        <ele>45.8</ele>
        <time>2019-11-08T14:27:17Z</time>
      </trkpt>
      <trkpt lat="41.622801" lon="2.651277">
        <ele>45.6</ele>
        <time>2019-11-08T14:27:18Z</time>
      </trkpt>
      <trkpt lat="41.622782" lon="2.651314">
        <ele>45.4</ele>
        <time>2019-11-08T14:27:19Z</time>
      </trkpt>
      <trkpt lat="41.622757" lon="2.651371">
        <ele>45.1</ele>
        <time>2019-11-08T14:27:21Z</time>
      </trkpt>
      <trkpt lat="41.622731" lon="2.651429">
        <ele>44.8</ele>
        <time>2019-11-08T14:27:22Z</time>
      </trkpt>
      <trkpt lat="41.622702" lon="2.651489">
        <ele>44.5</ele>
        <time>2019-11-08T14:27:24Z</time>
      </trkpt>
      <trkpt lat="41.62268" lon="2.65156">
        <ele>44.2</ele>
        <time>2019-11-08T14:27:25Z</time>
      </trkpt>
      <trkpt lat="41.622654" lon="2.651635">
        <ele>43.8</ele>
        <time>2019-11-08T14:27:27Z</time>
      </trkpt>
      <trkpt lat="41.622644" lon="2.651698">
        <ele>43.6</ele>
        <time>2019-11-08T14:27:28Z</time>
      </trkpt>
      <trkpt lat="41.622618" lon="2.651763">
        <ele>43.4</ele>
        <time>2019-11-08T14:27:29Z</time>
      </trkpt>
      <trkpt lat="41.622594" lon="2.651807">
        <ele>43.2</ele>
        <time>2019-11-08T14:27:31Z</time>
      </trkpt>
      <trkpt lat="41.622561" lon="2.651876">
        <ele>43</ele>
        <time>2019-11-08T14:27:32Z</time>
      </trkpt>
      <trkpt lat="41.622548" lon="2.651932">
        <ele>42.9</ele>
        <time>2019-11-08T14:27:34Z</time>
      </trkpt>
      <trkpt lat="41.62253" lon="2.652001">
        <ele>42.8</ele>
        <time>2019-11-08T14:27:37Z</time>
      </trkpt>
      <trkpt lat="41.622475" lon="2.652018">
        <ele>42.6</ele>
        <time>2019-11-08T14:27:39Z</time>
      </trkpt>
      <trkpt lat="41.62242" lon="2.652037">
        <ele>42.5</ele>
        <time>2019-11-08T14:27:40Z</time>
      </trkpt>
      <trkpt lat="41.622371" lon="2.652043">
        <ele>42.3</ele>
        <time>2019-11-08T14:27:42Z</time>
      </trkpt>
      <trkpt lat="41.622329" lon="2.65205">
        <ele>42.2</ele>
        <time>2019-11-08T14:27:45Z</time>
      </trkpt>
      <trkpt lat="41.62226" lon="2.652088">
        <ele>42.1</ele>
        <time>2019-11-08T14:27:48Z</time>
      </trkpt>
      <trkpt lat="41.622233" lon="2.652108">
        <ele>42</ele>
        <time>2019-11-08T14:27:49Z</time>
      </trkpt>
      <trkpt lat="41.622205" lon="2.652134">
        <ele>42</ele>
        <time>2019-11-08T14:27:50Z</time>
      </trkpt>
      <trkpt lat="41.622168" lon="2.652172">
        <ele>41.9</ele>
        <time>2019-11-08T14:27:52Z</time>
      </trkpt>
      <trkpt lat="41.622148" lon="2.652197">
        <ele>41.8</ele>
        <time>2019-11-08T14:27:53Z</time>
      </trkpt>
      <trkpt lat="41.622105" lon="2.652255">
        <ele>41.7</ele>
        <time>2019-11-08T14:27:55Z</time>
      </trkpt>
      <trkpt lat="41.622086" lon="2.652287">
        <ele>41.6</ele>
        <time>2019-11-08T14:27:56Z</time>
      </trkpt>
      <trkpt lat="41.622068" lon="2.652317">
        <ele>41.5</ele>
        <time>2019-11-08T14:27:57Z</time>
      </trkpt>
      <trkpt lat="41.622043" lon="2.652362">
        <ele>41.3</ele>
        <time>2019-11-08T14:27:59Z</time>
      </trkpt>
      <trkpt lat="41.622014" lon="2.6524">
        <ele>41.2</ele>
        <time>2019-11-08T14:28:00Z</time>
      </trkpt>
      <trkpt lat="41.621986" lon="2.652434">
        <ele>41</ele>
        <time>2019-11-08T14:28:02Z</time>
      </trkpt>
      <trkpt lat="41.621953" lon="2.652467">
        <ele>40.8</ele>
        <time>2019-11-08T14:28:04Z</time>
      </trkpt>
      <trkpt lat="41.621898" lon="2.652526">
        <ele>40.5</ele>
        <time>2019-11-08T14:28:06Z</time>
      </trkpt>
      <trkpt lat="41.621862" lon="2.652567">
        <ele>40.3</ele>
        <time>2019-11-08T14:28:08Z</time>
      </trkpt>
      <trkpt lat="41.621838" lon="2.652591">
        <ele>40.2</ele>
        <time>2019-11-08T14:28:09Z</time>
      </trkpt>
      <trkpt lat="41.621813" lon="2.652616">
        <ele>40.1</ele>
        <time>2019-11-08T14:28:10Z</time>
      </trkpt>
      <trkpt lat="41.621786" lon="2.652638">
        <ele>40</ele>
        <time>2019-11-08T14:28:11Z</time>
      </trkpt>
      <trkpt lat="41.621762" lon="2.652663">
        <ele>39.8</ele>
        <time>2019-11-08T14:28:13Z</time>
      </trkpt>
      <trkpt lat="41.621712" lon="2.652716">
        <ele>39.6</ele>
        <time>2019-11-08T14:28:15Z</time>
      </trkpt>
      <trkpt lat="41.621683" lon="2.652741">
        <ele>39.5</ele>
        <time>2019-11-08T14:28:16Z</time>
      </trkpt>
      <trkpt lat="41.621655" lon="2.652766">
        <ele>39.3</ele>
        <time>2019-11-08T14:28:17Z</time>
      </trkpt>
      <trkpt lat="41.621611" lon="2.652807">
        <ele>39.1</ele>
        <time>2019-11-08T14:28:19Z</time>
      </trkpt>
      <trkpt lat="41.621584" lon="2.652834">
        <ele>38.9</ele>
        <time>2019-11-08T14:28:20Z</time>
      </trkpt>
      <trkpt lat="41.621556" lon="2.652865">
        <ele>38.8</ele>
        <time>2019-11-08T14:28:21Z</time>
      </trkpt>
      <trkpt lat="41.621531" lon="2.652892">
        <ele>38.6</ele>
        <time>2019-11-08T14:28:22Z</time>
      </trkpt>
      <trkpt lat="41.621503" lon="2.652917">
        <ele>38.5</ele>
        <time>2019-11-08T14:28:24Z</time>
      </trkpt>
      <trkpt lat="41.621462" lon="2.652945">
        <ele>38.3</ele>
        <time>2019-11-08T14:28:25Z</time>
      </trkpt>
      <trkpt lat="41.621418" lon="2.652972">
        <ele>38.1</ele>
        <time>2019-11-08T14:28:27Z</time>
      </trkpt>
      <trkpt lat="41.621366" lon="2.653015">
        <ele>37.8</ele>
        <time>2019-11-08T14:28:29Z</time>
      </trkpt>
      <trkpt lat="41.621329" lon="2.653057">
        <ele>37.6</ele>
        <time>2019-11-08T14:28:30Z</time>
      </trkpt>
      <trkpt lat="41.621308" lon="2.653085">
        <ele>37.5</ele>
        <time>2019-11-08T14:28:32Z</time>
      </trkpt>
      <trkpt lat="41.62128" lon="2.653124">
        <ele>37.4</ele>
        <time>2019-11-08T14:28:33Z</time>
      </trkpt>
      <trkpt lat="41.62125" lon="2.653165">
        <ele>37.2</ele>
        <time>2019-11-08T14:28:35Z</time>
      </trkpt>
      <trkpt lat="41.621214" lon="2.653208">
        <ele>37</ele>
        <time>2019-11-08T14:28:37Z</time>
      </trkpt>
      <trkpt lat="41.621164" lon="2.653268">
        <ele>36.7</ele>
        <time>2019-11-08T14:28:39Z</time>
      </trkpt>
      <trkpt lat="41.621124" lon="2.653314">
        <ele>36.5</ele>
        <time>2019-11-08T14:28:41Z</time>
      </trkpt>
      <trkpt lat="41.621073" lon="2.65336">
        <ele>36.3</ele>
        <time>2019-11-08T14:28:43Z</time>
      </trkpt>
      <trkpt lat="41.621044" lon="2.653388">
        <ele>36.3</ele>
        <time>2019-11-08T14:28:44Z</time>
      </trkpt>
      <trkpt lat="41.621001" lon="2.653427">
        <ele>36.2</ele>
        <time>2019-11-08T14:28:46Z</time>
      </trkpt>
      <trkpt lat="41.620969" lon="2.653452">
        <ele>36.1</ele>
        <time>2019-11-08T14:28:47Z</time>
      </trkpt>
      <trkpt lat="41.62092" lon="2.653488">
        <ele>36</ele>
        <time>2019-11-08T14:28:48Z</time>
      </trkpt>
      <trkpt lat="41.620891" lon="2.653507">
        <ele>36</ele>
        <time>2019-11-08T14:28:49Z</time>
      </trkpt>
      <trkpt lat="41.620861" lon="2.653522">
        <ele>35.9</ele>
        <time>2019-11-08T14:28:51Z</time>
      </trkpt>
      <trkpt lat="41.620831" lon="2.653537">
        <ele>35.9</ele>
        <time>2019-11-08T14:28:52Z</time>
      </trkpt>
      <trkpt lat="41.620766" lon="2.653567">
        <ele>35.7</ele>
        <time>2019-11-08T14:28:54Z</time>
      </trkpt>
      <trkpt lat="41.620735" lon="2.653562">
        <ele>35.6</ele>
        <time>2019-11-08T14:28:55Z</time>
      </trkpt>
      <trkpt lat="41.620655" lon="2.653594">
        <ele>35.4</ele>
        <time>2019-11-08T14:28:59Z</time>
      </trkpt>
      <trkpt lat="41.62062" lon="2.653605">
        <ele>35.3</ele>
        <time>2019-11-08T14:29:00Z</time>
      </trkpt>
      <trkpt lat="41.620571" lon="2.653625">
        <ele>35.2</ele>
        <time>2019-11-08T14:29:02Z</time>
      </trkpt>
      <trkpt lat="41.620528" lon="2.653643">
        <ele>35.1</ele>
        <time>2019-11-08T14:29:04Z</time>
      </trkpt>
      <trkpt lat="41.620464" lon="2.653671">
        <ele>35</ele>
        <time>2019-11-08T14:29:06Z</time>
      </trkpt>
      <trkpt lat="41.620425" lon="2.653702">
        <ele>34.9</ele>
        <time>2019-11-08T14:29:08Z</time>
      </trkpt>
      <trkpt lat="41.620394" lon="2.653731">
        <ele>34.8</ele>
        <time>2019-11-08T14:29:10Z</time>
      </trkpt>
      <trkpt lat="41.620361" lon="2.653758">
        <ele>34.7</ele>
        <time>2019-11-08T14:29:12Z</time>
      </trkpt>
      <trkpt lat="41.620319" lon="2.653781">
        <ele>34.6</ele>
        <time>2019-11-08T14:29:13Z</time>
      </trkpt>
      <trkpt lat="41.620291" lon="2.653793">
        <ele>34.5</ele>
        <time>2019-11-08T14:29:14Z</time>
      </trkpt>
      <trkpt lat="41.620245" lon="2.653812">
        <ele>34.4</ele>
        <time>2019-11-08T14:29:17Z</time>
      </trkpt>
      <trkpt lat="41.620195" lon="2.653822">
        <ele>34.3</ele>
        <time>2019-11-08T14:29:19Z</time>
      </trkpt>
      <trkpt lat="41.62015" lon="2.653827">
        <ele>34.2</ele>
        <time>2019-11-08T14:29:21Z</time>
      </trkpt>
      <trkpt lat="41.620086" lon="2.653835">
        <ele>34.1</ele>
        <time>2019-11-08T14:29:24Z</time>
      </trkpt>
      <trkpt lat="41.620047" lon="2.653843">
        <ele>34.1</ele>
        <time>2019-11-08T14:29:26Z</time>
      </trkpt>
      <trkpt lat="41.620005" lon="2.653855">
        <ele>34</ele>
        <time>2019-11-08T14:29:27Z</time>
      </trkpt>
      <trkpt lat="41.619974" lon="2.653863">
        <ele>33.9</ele>
        <time>2019-11-08T14:29:28Z</time>
      </trkpt>
      <trkpt lat="41.619929" lon="2.653876">
        <ele>33.8</ele>
        <time>2019-11-08T14:29:30Z</time>
      </trkpt>
      <trkpt lat="41.619886" lon="2.653886">
        <ele>33.6</ele>
        <time>2019-11-08T14:29:32Z</time>
      </trkpt>
      <trkpt lat="41.619842" lon="2.653896">
        <ele>33.5</ele>
        <time>2019-11-08T14:29:33Z</time>
      </trkpt>
      <trkpt lat="41.619813" lon="2.653903">
        <ele>33.4</ele>
        <time>2019-11-08T14:29:34Z</time>
      </trkpt>
      <trkpt lat="41.619785" lon="2.65391">
        <ele>33.2</ele>
        <time>2019-11-08T14:29:36Z</time>
      </trkpt>
      <trkpt lat="41.619754" lon="2.653916">
        <ele>33.1</ele>
        <time>2019-11-08T14:29:37Z</time>
      </trkpt>
      <trkpt lat="41.619727" lon="2.653924">
        <ele>32.9</ele>
        <time>2019-11-08T14:29:38Z</time>
      </trkpt>
      <trkpt lat="41.619682" lon="2.653935">
        <ele>32.7</ele>
        <time>2019-11-08T14:29:40Z</time>
      </trkpt>
      <trkpt lat="41.619638" lon="2.653946">
        <ele>32.4</ele>
        <time>2019-11-08T14:29:41Z</time>
      </trkpt>
      <trkpt lat="41.619594" lon="2.653958">
        <ele>32.2</ele>
        <time>2019-11-08T14:29:43Z</time>
      </trkpt>
      <trkpt lat="41.61955" lon="2.653972">
        <ele>31.7</ele>
        <time>2019-11-08T14:29:44Z</time>
      </trkpt>
      <trkpt lat="41.619508" lon="2.653989">
        <ele>31.5</ele>
        <time>2019-11-08T14:29:46Z</time>
      </trkpt>
      <trkpt lat="41.619479" lon="2.654001">
        <ele>31.4</ele>
        <time>2019-11-08T14:29:48Z</time>
      </trkpt>
      <trkpt lat="41.619435" lon="2.654025">
        <ele>31.2</ele>
        <time>2019-11-08T14:29:49Z</time>
      </trkpt>
      <trkpt lat="41.619391" lon="2.654045">
        <ele>31</ele>
        <time>2019-11-08T14:29:51Z</time>
      </trkpt>
      <trkpt lat="41.619333" lon="2.65407">
        <ele>30.8</ele>
        <time>2019-11-08T14:29:53Z</time>
      </trkpt>
      <trkpt lat="41.619304" lon="2.654081">
        <ele>30.7</ele>
        <time>2019-11-08T14:29:54Z</time>
      </trkpt>
      <trkpt lat="41.619261" lon="2.654099">
        <ele>30.5</ele>
        <time>2019-11-08T14:29:55Z</time>
      </trkpt>
      <trkpt lat="41.619206" lon="2.654122">
        <ele>30.1</ele>
        <time>2019-11-08T14:29:57Z</time>
      </trkpt>
      <trkpt lat="41.61918" lon="2.65413">
        <ele>30</ele>
        <time>2019-11-08T14:29:58Z</time>
      </trkpt>
      <trkpt lat="41.619129" lon="2.654142">
        <ele>29.7</ele>
        <time>2019-11-08T14:30:00Z</time>
      </trkpt>
      <trkpt lat="41.619078" lon="2.654148">
        <ele>29.4</ele>
        <time>2019-11-08T14:30:02Z</time>
      </trkpt>
      <trkpt lat="41.619044" lon="2.654149">
        <ele>29.3</ele>
        <time>2019-11-08T14:30:03Z</time>
      </trkpt>
      <trkpt lat="41.618996" lon="2.654146">
        <ele>29.1</ele>
        <time>2019-11-08T14:30:05Z</time>
      </trkpt>
      <trkpt lat="41.618935" lon="2.654134">
        <ele>28.9</ele>
        <time>2019-11-08T14:30:07Z</time>
      </trkpt>
      <trkpt lat="41.618902" lon="2.654125">
        <ele>28.8</ele>
        <time>2019-11-08T14:30:08Z</time>
      </trkpt>
      <trkpt lat="41.618852" lon="2.65411">
        <ele>28.6</ele>
        <time>2019-11-08T14:30:10Z</time>
      </trkpt>
      <trkpt lat="41.618805" lon="2.654094">
        <ele>28.5</ele>
        <time>2019-11-08T14:30:11Z</time>
      </trkpt>
      <trkpt lat="41.618776" lon="2.654082">
        <ele>28.4</ele>
        <time>2019-11-08T14:30:13Z</time>
      </trkpt>
      <trkpt lat="41.618747" lon="2.654071">
        <ele>28.4</ele>
        <time>2019-11-08T14:30:14Z</time>
      </trkpt>
      <trkpt lat="41.618691" lon="2.654049">
        <ele>28.3</ele>
        <time>2019-11-08T14:30:16Z</time>
      </trkpt>
      <trkpt lat="41.618645" lon="2.654031">
        <ele>28.3</ele>
        <time>2019-11-08T14:30:18Z</time>
      </trkpt>
      <trkpt lat="41.618582" lon="2.654007">
        <ele>28.3</ele>
        <time>2019-11-08T14:30:20Z</time>
      </trkpt>
      <trkpt lat="41.618535" lon="2.65399">
        <ele>28.3</ele>
        <time>2019-11-08T14:30:21Z</time>
      </trkpt>
      <trkpt lat="41.618507" lon="2.65398">
        <ele>28.3</ele>
        <time>2019-11-08T14:30:23Z</time>
      </trkpt>
      <trkpt lat="41.618479" lon="2.65397">
        <ele>28.3</ele>
        <time>2019-11-08T14:30:24Z</time>
      </trkpt>
      <trkpt lat="41.618421" lon="2.653954">
        <ele>28.3</ele>
        <time>2019-11-08T14:30:26Z</time>
      </trkpt>
      <trkpt lat="41.618377" lon="2.653941">
        <ele>28.3</ele>
        <time>2019-11-08T14:30:28Z</time>
      </trkpt>
      <trkpt lat="41.618333" lon="2.65393">
        <ele>28.3</ele>
        <time>2019-11-08T14:30:29Z</time>
      </trkpt>
      <trkpt lat="41.618289" lon="2.653919">
        <ele>28.3</ele>
        <time>2019-11-08T14:30:31Z</time>
      </trkpt>
      <trkpt lat="41.618256" lon="2.65391">
        <ele>28.3</ele>
        <time>2019-11-08T14:30:32Z</time>
      </trkpt>
      <trkpt lat="41.618211" lon="2.653897">
        <ele>28.3</ele>
        <time>2019-11-08T14:30:33Z</time>
      </trkpt>
      <trkpt lat="41.618167" lon="2.653885">
        <ele>28.3</ele>
        <time>2019-11-08T14:30:35Z</time>
      </trkpt>
      <trkpt lat="41.618124" lon="2.653868">
        <ele>28.2</ele>
        <time>2019-11-08T14:30:37Z</time>
      </trkpt>
      <trkpt lat="41.618094" lon="2.653856">
        <ele>28.2</ele>
        <time>2019-11-08T14:30:38Z</time>
      </trkpt>
      <trkpt lat="41.618053" lon="2.65384">
        <ele>28.1</ele>
        <time>2019-11-08T14:30:40Z</time>
      </trkpt>
      <trkpt lat="41.618011" lon="2.653824">
        <ele>27.9</ele>
        <time>2019-11-08T14:30:41Z</time>
      </trkpt>
      <trkpt lat="41.61797" lon="2.653807">
        <ele>27.8</ele>
        <time>2019-11-08T14:30:43Z</time>
      </trkpt>
      <trkpt lat="41.617925" lon="2.653786">
        <ele>27.6</ele>
        <time>2019-11-08T14:30:44Z</time>
      </trkpt>
      <trkpt lat="41.617878" lon="2.653762">
        <ele>27.3</ele>
        <time>2019-11-08T14:30:46Z</time>
      </trkpt>
      <trkpt lat="41.617845" lon="2.653744">
        <ele>27.1</ele>
        <time>2019-11-08T14:30:47Z</time>
      </trkpt>
      <trkpt lat="41.6178" lon="2.65372">
        <ele>26.9</ele>
        <time>2019-11-08T14:30:49Z</time>
      </trkpt>
      <trkpt lat="41.617757" lon="2.653695">
        <ele>26.6</ele>
        <time>2019-11-08T14:30:51Z</time>
      </trkpt>
      <trkpt lat="41.617727" lon="2.653678">
        <ele>26.3</ele>
        <time>2019-11-08T14:30:52Z</time>
      </trkpt>
      <trkpt lat="41.617685" lon="2.653652">
        <ele>26</ele>
        <time>2019-11-08T14:30:53Z</time>
      </trkpt>
      <trkpt lat="41.617641" lon="2.653624">
        <ele>25.6</ele>
        <time>2019-11-08T14:30:55Z</time>
      </trkpt>
      <trkpt lat="41.617613" lon="2.653607">
        <ele>25.3</ele>
        <time>2019-11-08T14:30:56Z</time>
      </trkpt>
      <trkpt lat="41.617584" lon="2.65359">
        <ele>25</ele>
        <time>2019-11-08T14:30:57Z</time>
      </trkpt>
      <trkpt lat="41.61754" lon="2.653563">
        <ele>24.6</ele>
        <time>2019-11-08T14:30:59Z</time>
      </trkpt>
      <trkpt lat="41.617495" lon="2.653536">
        <ele>24.2</ele>
        <time>2019-11-08T14:31:01Z</time>
      </trkpt>
      <trkpt lat="41.617448" lon="2.653509">
        <ele>23.8</ele>
        <time>2019-11-08T14:31:02Z</time>
      </trkpt>
      <trkpt lat="41.617402" lon="2.653483">
        <ele>23.3</ele>
        <time>2019-11-08T14:31:04Z</time>
      </trkpt>
      <trkpt lat="41.617354" lon="2.653458">
        <ele>22.9</ele>
        <time>2019-11-08T14:31:05Z</time>
      </trkpt>
      <trkpt lat="41.617306" lon="2.653437">
        <ele>22.5</ele>
        <time>2019-11-08T14:31:07Z</time>
      </trkpt>
      <trkpt lat="41.617271" lon="2.653421">
        <ele>22.2</ele>
        <time>2019-11-08T14:31:08Z</time>
      </trkpt>
      <trkpt lat="41.617221" lon="2.6534">
        <ele>21.8</ele>
        <time>2019-11-08T14:31:10Z</time>
      </trkpt>
      <trkpt lat="41.617189" lon="2.653385">
        <ele>21.6</ele>
        <time>2019-11-08T14:31:11Z</time>
      </trkpt>
      <trkpt lat="41.617151" lon="2.653369">
        <ele>21.4</ele>
        <time>2019-11-08T14:31:12Z</time>
      </trkpt>
      <trkpt lat="41.617111" lon="2.653353">
        <ele>21.2</ele>
        <time>2019-11-08T14:31:14Z</time>
      </trkpt>
      <trkpt lat="41.617051" lon="2.653328">
        <ele>20.9</ele>
        <time>2019-11-08T14:31:15Z</time>
      </trkpt>
      <trkpt lat="41.617014" lon="2.653309">
        <ele>20.8</ele>
        <time>2019-11-08T14:31:16Z</time>
      </trkpt>
      <trkpt lat="41.616973" lon="2.653287">
        <ele>20.7</ele>
        <time>2019-11-08T14:31:17Z</time>
      </trkpt>
      <trkpt lat="41.616921" lon="2.653253">
        <ele>20.6</ele>
        <time>2019-11-08T14:31:19Z</time>
      </trkpt>
      <trkpt lat="41.616867" lon="2.653215">
        <ele>20.5</ele>
        <time>2019-11-08T14:31:21Z</time>
      </trkpt>
      <trkpt lat="41.616835" lon="2.653191">
        <ele>20.5</ele>
        <time>2019-11-08T14:31:22Z</time>
      </trkpt>
      <trkpt lat="41.616787" lon="2.653157">
        <ele>20.5</ele>
        <time>2019-11-08T14:31:24Z</time>
      </trkpt>
      <trkpt lat="41.616757" lon="2.653139">
        <ele>20.5</ele>
        <time>2019-11-08T14:31:25Z</time>
      </trkpt>
      <trkpt lat="41.616725" lon="2.653122">
        <ele>20.5</ele>
        <time>2019-11-08T14:31:26Z</time>
      </trkpt>
      <trkpt lat="41.61668" lon="2.653102">
        <ele>20.4</ele>
        <time>2019-11-08T14:31:28Z</time>
      </trkpt>
      <trkpt lat="41.616635" lon="2.653087">
        <ele>20.3</ele>
        <time>2019-11-08T14:31:29Z</time>
      </trkpt>
      <trkpt lat="41.616589" lon="2.653072">
        <ele>20.2</ele>
        <time>2019-11-08T14:31:31Z</time>
      </trkpt>
      <trkpt lat="41.61654" lon="2.653056">
        <ele>20.1</ele>
        <time>2019-11-08T14:31:32Z</time>
      </trkpt>
      <trkpt lat="41.616507" lon="2.653049">
        <ele>20.1</ele>
        <time>2019-11-08T14:31:34Z</time>
      </trkpt>
      <trkpt lat="41.616457" lon="2.653039">
        <ele>20</ele>
        <time>2019-11-08T14:31:35Z</time>
      </trkpt>
      <trkpt lat="41.616427" lon="2.653037">
        <ele>19.9</ele>
        <time>2019-11-08T14:31:37Z</time>
      </trkpt>
      <trkpt lat="41.616397" lon="2.653035">
        <ele>19.8</ele>
        <time>2019-11-08T14:31:38Z</time>
      </trkpt>
      <trkpt lat="41.616331" lon="2.653031">
        <ele>19.7</ele>
        <time>2019-11-08T14:31:40Z</time>
      </trkpt>
      <trkpt lat="41.616298" lon="2.653027">
        <ele>19.6</ele>
        <time>2019-11-08T14:31:41Z</time>
      </trkpt>
      <trkpt lat="41.61625" lon="2.65302">
        <ele>19.4</ele>
        <time>2019-11-08T14:31:43Z</time>
      </trkpt>
      <trkpt lat="41.616202" lon="2.653014">
        <ele>19.3</ele>
        <time>2019-11-08T14:31:44Z</time>
      </trkpt>
      <trkpt lat="41.616167" lon="2.65301">
        <ele>19.2</ele>
        <time>2019-11-08T14:31:45Z</time>
      </trkpt>
      <trkpt lat="41.616135" lon="2.653006">
        <ele>19.2</ele>
        <time>2019-11-08T14:31:47Z</time>
      </trkpt>
      <trkpt lat="41.616101" lon="2.653002">
        <ele>19.1</ele>
        <time>2019-11-08T14:31:48Z</time>
      </trkpt>
      <trkpt lat="41.61607" lon="2.652997">
        <ele>19.1</ele>
        <time>2019-11-08T14:31:49Z</time>
      </trkpt>
      <trkpt lat="41.616038" lon="2.652991">
        <ele>19.1</ele>
        <time>2019-11-08T14:31:50Z</time>
      </trkpt>
      <trkpt lat="41.615991" lon="2.65298">
        <ele>19.1</ele>
        <time>2019-11-08T14:31:52Z</time>
      </trkpt>
      <trkpt lat="41.61596" lon="2.652972">
        <ele>19.1</ele>
        <time>2019-11-08T14:31:53Z</time>
      </trkpt>
      <trkpt lat="41.615916" lon="2.652961">
        <ele>19.1</ele>
        <time>2019-11-08T14:31:54Z</time>
      </trkpt>
      <trkpt lat="41.61587" lon="2.652951">
        <ele>19.1</ele>
        <time>2019-11-08T14:31:56Z</time>
      </trkpt>
      <trkpt lat="41.615824" lon="2.652944">
        <ele>19.1</ele>
        <time>2019-11-08T14:31:58Z</time>
      </trkpt>
      <trkpt lat="41.615764" lon="2.652934">
        <ele>19.1</ele>
        <time>2019-11-08T14:32:00Z</time>
      </trkpt>
      <trkpt lat="41.615722" lon="2.652929">
        <ele>19.2</ele>
        <time>2019-11-08T14:32:01Z</time>
      </trkpt>
      <trkpt lat="41.615693" lon="2.652926">
        <ele>19.2</ele>
        <time>2019-11-08T14:32:03Z</time>
      </trkpt>
      <trkpt lat="41.61561" lon="2.652921">
        <ele>19.2</ele>
        <time>2019-11-08T14:32:06Z</time>
      </trkpt>
      <trkpt lat="41.615567" lon="2.652923">
        <ele>19.3</ele>
        <time>2019-11-08T14:32:07Z</time>
      </trkpt>
      <trkpt lat="41.615538" lon="2.652926">
        <ele>19.3</ele>
        <time>2019-11-08T14:32:08Z</time>
      </trkpt>
      <trkpt lat="41.615489" lon="2.652931">
        <ele>19.3</ele>
        <time>2019-11-08T14:32:10Z</time>
      </trkpt>
      <trkpt lat="41.615438" lon="2.65294">
        <ele>19.4</ele>
        <time>2019-11-08T14:32:12Z</time>
      </trkpt>
      <trkpt lat="41.61539" lon="2.652952">
        <ele>19.4</ele>
        <time>2019-11-08T14:32:13Z</time>
      </trkpt>
      <trkpt lat="41.615357" lon="2.652961">
        <ele>19.5</ele>
        <time>2019-11-08T14:32:14Z</time>
      </trkpt>
      <trkpt lat="41.615324" lon="2.652976">
        <ele>19.6</ele>
        <time>2019-11-08T14:32:16Z</time>
      </trkpt>
      <trkpt lat="41.615257" lon="2.653007">
        <ele>19.8</ele>
        <time>2019-11-08T14:32:18Z</time>
      </trkpt>
      <trkpt lat="41.615227" lon="2.653021">
        <ele>19.9</ele>
        <time>2019-11-08T14:32:19Z</time>
      </trkpt>
      <trkpt lat="41.615178" lon="2.653045">
        <ele>20.5</ele>
        <time>2019-11-08T14:32:21Z</time>
      </trkpt>
      <trkpt lat="41.61512" lon="2.653072">
        <ele>20.4</ele>
        <time>2019-11-08T14:32:23Z</time>
      </trkpt>
      <trkpt lat="41.615077" lon="2.653089">
        <ele>20.3</ele>
        <time>2019-11-08T14:32:24Z</time>
      </trkpt>
      <trkpt lat="41.615034" lon="2.653105">
        <ele>20.2</ele>
        <time>2019-11-08T14:32:26Z</time>
      </trkpt>
      <trkpt lat="41.614992" lon="2.653118">
        <ele>20.1</ele>
        <time>2019-11-08T14:32:28Z</time>
      </trkpt>
      <trkpt lat="41.614964" lon="2.653126">
        <ele>20</ele>
        <time>2019-11-08T14:32:29Z</time>
      </trkpt>
      <trkpt lat="41.614937" lon="2.653133">
        <ele>20</ele>
        <time>2019-11-08T14:32:30Z</time>
      </trkpt>
      <trkpt lat="41.614895" lon="2.653142">
        <ele>19.9</ele>
        <time>2019-11-08T14:32:32Z</time>
      </trkpt>
      <trkpt lat="41.614841" lon="2.653152">
        <ele>19.8</ele>
        <time>2019-11-08T14:32:34Z</time>
      </trkpt>
      <trkpt lat="41.614799" lon="2.653159">
        <ele>19.7</ele>
        <time>2019-11-08T14:32:35Z</time>
      </trkpt>
      <trkpt lat="41.614757" lon="2.653165">
        <ele>19.7</ele>
        <time>2019-11-08T14:32:37Z</time>
      </trkpt>
      <trkpt lat="41.614712" lon="2.653171">
        <ele>19.6</ele>
        <time>2019-11-08T14:32:39Z</time>
      </trkpt>
      <trkpt lat="41.614669" lon="2.653179">
        <ele>19.5</ele>
        <time>2019-11-08T14:32:40Z</time>
      </trkpt>
      <trkpt lat="41.61464" lon="2.653187">
        <ele>19.5</ele>
        <time>2019-11-08T14:32:42Z</time>
      </trkpt>
      <trkpt lat="41.6146" lon="2.653199">
        <ele>19.4</ele>
        <time>2019-11-08T14:32:43Z</time>
      </trkpt>
      <trkpt lat="41.614549" lon="2.653213">
        <ele>19.3</ele>
        <time>2019-11-08T14:32:46Z</time>
      </trkpt>
      <trkpt lat="41.614507" lon="2.653225">
        <ele>19.3</ele>
        <time>2019-11-08T14:32:47Z</time>
      </trkpt>
      <trkpt lat="41.614481" lon="2.653234">
        <ele>19.2</ele>
        <time>2019-11-08T14:32:48Z</time>
      </trkpt>
      <trkpt lat="41.614438" lon="2.65325">
        <ele>19</ele>
        <time>2019-11-08T14:32:50Z</time>
      </trkpt>
      <trkpt lat="41.614408" lon="2.65326">
        <ele>18.9</ele>
        <time>2019-11-08T14:32:51Z</time>
      </trkpt>
      <trkpt lat="41.614379" lon="2.653268">
        <ele>18.7</ele>
        <time>2019-11-08T14:32:52Z</time>
      </trkpt>
      <trkpt lat="41.614336" lon="2.653282">
        <ele>18.5</ele>
        <time>2019-11-08T14:32:54Z</time>
      </trkpt>
      <trkpt lat="41.614307" lon="2.65329">
        <ele>18.3</ele>
        <time>2019-11-08T14:32:55Z</time>
      </trkpt>
      <trkpt lat="41.614259" lon="2.653302">
        <ele>18.1</ele>
        <time>2019-11-08T14:32:56Z</time>
      </trkpt>
      <trkpt lat="41.614229" lon="2.65331">
        <ele>18</ele>
        <time>2019-11-08T14:32:57Z</time>
      </trkpt>
      <trkpt lat="41.614198" lon="2.653317">
        <ele>17.9</ele>
        <time>2019-11-08T14:32:59Z</time>
      </trkpt>
      <trkpt lat="41.614149" lon="2.653327">
        <ele>17.6</ele>
        <time>2019-11-08T14:33:00Z</time>
      </trkpt>
      <trkpt lat="41.614102" lon="2.653333">
        <ele>17.5</ele>
        <time>2019-11-08T14:33:02Z</time>
      </trkpt>
      <trkpt lat="41.614057" lon="2.653338">
        <ele>17.3</ele>
        <time>2019-11-08T14:33:04Z</time>
      </trkpt>
      <trkpt lat="41.614007" lon="2.653346">
        <ele>17.2</ele>
        <time>2019-11-08T14:33:05Z</time>
      </trkpt>
      <trkpt lat="41.613965" lon="2.653354">
        <ele>17.1</ele>
        <time>2019-11-08T14:33:07Z</time>
      </trkpt>
      <trkpt lat="41.613919" lon="2.653365">
        <ele>16.9</ele>
        <time>2019-11-08T14:33:09Z</time>
      </trkpt>
      <trkpt lat="41.613857" lon="2.653375">
        <ele>16.8</ele>
        <time>2019-11-08T14:33:11Z</time>
      </trkpt>
      <trkpt lat="41.61381" lon="2.653386">
        <ele>16.7</ele>
        <time>2019-11-08T14:33:12Z</time>
      </trkpt>
      <trkpt lat="41.613766" lon="2.653398">
        <ele>16.7</ele>
        <time>2019-11-08T14:33:14Z</time>
      </trkpt>
      <trkpt lat="41.613737" lon="2.653407">
        <ele>16.6</ele>
        <time>2019-11-08T14:33:15Z</time>
      </trkpt>
      <trkpt lat="41.613706" lon="2.653419">
        <ele>16.6</ele>
        <time>2019-11-08T14:33:16Z</time>
      </trkpt>
      <trkpt lat="41.613659" lon="2.653437">
        <ele>16.6</ele>
        <time>2019-11-08T14:33:18Z</time>
      </trkpt>
      <trkpt lat="41.613629" lon="2.653455">
        <ele>16.5</ele>
        <time>2019-11-08T14:33:19Z</time>
      </trkpt>
      <trkpt lat="41.613603" lon="2.653486">
        <ele>16.5</ele>
        <time>2019-11-08T14:33:20Z</time>
      </trkpt>
      <trkpt lat="41.613569" lon="2.653541">
        <ele>16.4</ele>
        <time>2019-11-08T14:33:22Z</time>
      </trkpt>
      <trkpt lat="41.613532" lon="2.653585">
        <ele>16.4</ele>
        <time>2019-11-08T14:33:23Z</time>
      </trkpt>
      <trkpt lat="41.613508" lon="2.653609">
        <ele>16.3</ele>
        <time>2019-11-08T14:33:24Z</time>
      </trkpt>
      <trkpt lat="41.613482" lon="2.653629">
        <ele>16.2</ele>
        <time>2019-11-08T14:33:26Z</time>
      </trkpt>
      <trkpt lat="41.613456" lon="2.653645">
        <ele>16.2</ele>
        <time>2019-11-08T14:33:27Z</time>
      </trkpt>
      <trkpt lat="41.613416" lon="2.653662">
        <ele>16.2</ele>
        <time>2019-11-08T14:33:28Z</time>
      </trkpt>
      <trkpt lat="41.61335" lon="2.653674">
        <ele>16.2</ele>
        <time>2019-11-08T14:33:31Z</time>
      </trkpt>
      <trkpt lat="41.613323" lon="2.653679">
        <ele>16.2</ele>
        <time>2019-11-08T14:33:32Z</time>
      </trkpt>
      <trkpt lat="41.613283" lon="2.653686">
        <ele>16.2</ele>
        <time>2019-11-08T14:33:34Z</time>
      </trkpt>
      <trkpt lat="41.613256" lon="2.653693">
        <ele>16.1</ele>
        <time>2019-11-08T14:33:35Z</time>
      </trkpt>
      <trkpt lat="41.61323" lon="2.653701">
        <ele>16.1</ele>
        <time>2019-11-08T14:33:36Z</time>
      </trkpt>
      <trkpt lat="41.613188" lon="2.653722">
        <ele>16.1</ele>
        <time>2019-11-08T14:33:38Z</time>
      </trkpt>
      <trkpt lat="41.61315" lon="2.653746">
        <ele>15.9</ele>
        <time>2019-11-08T14:33:40Z</time>
      </trkpt>
      <trkpt lat="41.61311" lon="2.653776">
        <ele>15.7</ele>
        <time>2019-11-08T14:33:41Z</time>
      </trkpt>
      <trkpt lat="41.613071" lon="2.65381">
        <ele>15.5</ele>
        <time>2019-11-08T14:33:43Z</time>
      </trkpt>
      <trkpt lat="41.613031" lon="2.653841">
        <ele>15.3</ele>
        <time>2019-11-08T14:33:44Z</time>
      </trkpt>
      <trkpt lat="41.613005" lon="2.653861">
        <ele>15.3</ele>
        <time>2019-11-08T14:33:45Z</time>
      </trkpt>
      <trkpt lat="41.612982" lon="2.653884">
        <ele>15.2</ele>
        <time>2019-11-08T14:33:47Z</time>
      </trkpt>
      <trkpt lat="41.612958" lon="2.653909">
        <ele>15.2</ele>
        <time>2019-11-08T14:33:48Z</time>
      </trkpt>
      <trkpt lat="41.612932" lon="2.653932">
        <ele>15.1</ele>
        <time>2019-11-08T14:33:49Z</time>
      </trkpt>
      <trkpt lat="41.612908" lon="2.653957">
        <ele>15.1</ele>
        <time>2019-11-08T14:33:50Z</time>
      </trkpt>
      <trkpt lat="41.612871" lon="2.653995">
        <ele>15.1</ele>
        <time>2019-11-08T14:33:52Z</time>
      </trkpt>
      <trkpt lat="41.61285" lon="2.654024">
        <ele>15</ele>
        <time>2019-11-08T14:33:53Z</time>
      </trkpt>
      <trkpt lat="41.612826" lon="2.654054">
        <ele>15</ele>
        <time>2019-11-08T14:33:54Z</time>
      </trkpt>
      <trkpt lat="41.61279" lon="2.654096">
        <ele>15</ele>
        <time>2019-11-08T14:33:56Z</time>
      </trkpt>
      <trkpt lat="41.612743" lon="2.654153">
        <ele>15</ele>
        <time>2019-11-08T14:33:58Z</time>
      </trkpt>
      <trkpt lat="41.612707" lon="2.654196">
        <ele>14.9</ele>
        <time>2019-11-08T14:34:00Z</time>
      </trkpt>
      <trkpt lat="41.612658" lon="2.654257">
        <ele>14.7</ele>
        <time>2019-11-08T14:34:02Z</time>
      </trkpt>
      <trkpt lat="41.612634" lon="2.654285">
        <ele>14.6</ele>
        <time>2019-11-08T14:34:03Z</time>
      </trkpt>
      <trkpt lat="41.612598" lon="2.654324">
        <ele>14.5</ele>
        <time>2019-11-08T14:34:05Z</time>
      </trkpt>
      <trkpt lat="41.612573" lon="2.654349">
        <ele>14.5</ele>
        <time>2019-11-08T14:34:06Z</time>
      </trkpt>
      <trkpt lat="41.612533" lon="2.654387">
        <ele>14.4</ele>
        <time>2019-11-08T14:34:07Z</time>
      </trkpt>
      <trkpt lat="41.612491" lon="2.654424">
        <ele>14.3</ele>
        <time>2019-11-08T14:34:09Z</time>
      </trkpt>
      <trkpt lat="41.612463" lon="2.654444">
        <ele>14.2</ele>
        <time>2019-11-08T14:34:10Z</time>
      </trkpt>
      <trkpt lat="41.612418" lon="2.654476">
        <ele>14.1</ele>
        <time>2019-11-08T14:34:12Z</time>
      </trkpt>
      <trkpt lat="41.612372" lon="2.654509">
        <ele>13.9</ele>
        <time>2019-11-08T14:34:13Z</time>
      </trkpt>
      <trkpt lat="41.612339" lon="2.654527">
        <ele>13.8</ele>
        <time>2019-11-08T14:34:15Z</time>
      </trkpt>
      <trkpt lat="41.612307" lon="2.654545">
        <ele>13.7</ele>
        <time>2019-11-08T14:34:16Z</time>
      </trkpt>
      <trkpt lat="41.612259" lon="2.654568">
        <ele>13.6</ele>
        <time>2019-11-08T14:34:18Z</time>
      </trkpt>
      <trkpt lat="41.612228" lon="2.65458">
        <ele>13.5</ele>
        <time>2019-11-08T14:34:19Z</time>
      </trkpt>
      <trkpt lat="41.612196" lon="2.654593">
        <ele>13.2</ele>
        <time>2019-11-08T14:34:20Z</time>
      </trkpt>
      <trkpt lat="41.612149" lon="2.654616">
        <ele>13.2</ele>
        <time>2019-11-08T14:34:22Z</time>
      </trkpt>
      <trkpt lat="41.612085" lon="2.654641">
        <ele>13</ele>
        <time>2019-11-08T14:34:24Z</time>
      </trkpt>
      <trkpt lat="41.612038" lon="2.654661">
        <ele>12.8</ele>
        <time>2019-11-08T14:34:25Z</time>
      </trkpt>
      <trkpt lat="41.612006" lon="2.654671">
        <ele>12.6</ele>
        <time>2019-11-08T14:34:27Z</time>
      </trkpt>
      <trkpt lat="41.611961" lon="2.65469">
        <ele>12.4</ele>
        <time>2019-11-08T14:34:28Z</time>
      </trkpt>
      <trkpt lat="41.611917" lon="2.654708">
        <ele>12.2</ele>
        <time>2019-11-08T14:34:30Z</time>
      </trkpt>
      <trkpt lat="41.611889" lon="2.654721">
        <ele>12.1</ele>
        <time>2019-11-08T14:34:31Z</time>
      </trkpt>
      <trkpt lat="41.611861" lon="2.654733">
        <ele>11.9</ele>
        <time>2019-11-08T14:34:32Z</time>
      </trkpt>
      <trkpt lat="41.611817" lon="2.654749">
        <ele>11.8</ele>
        <time>2019-11-08T14:34:34Z</time>
      </trkpt>
      <trkpt lat="41.611788" lon="2.654759">
        <ele>11.7</ele>
        <time>2019-11-08T14:34:35Z</time>
      </trkpt>
      <trkpt lat="41.611761" lon="2.654769">
        <ele>11.6</ele>
        <time>2019-11-08T14:34:36Z</time>
      </trkpt>
      <trkpt lat="41.611715" lon="2.654785">
        <ele>11.4</ele>
        <time>2019-11-08T14:34:38Z</time>
      </trkpt>
      <trkpt lat="41.611686" lon="2.654796">
        <ele>11.3</ele>
        <time>2019-11-08T14:34:39Z</time>
      </trkpt>
      <trkpt lat="41.611657" lon="2.654807">
        <ele>11.1</ele>
        <time>2019-11-08T14:34:40Z</time>
      </trkpt>
      <trkpt lat="41.611613" lon="2.654823">
        <ele>10.9</ele>
        <time>2019-11-08T14:34:42Z</time>
      </trkpt>
      <trkpt lat="41.611568" lon="2.654838">
        <ele>10.7</ele>
        <time>2019-11-08T14:34:43Z</time>
      </trkpt>
      <trkpt lat="41.611536" lon="2.654846">
        <ele>10.5</ele>
        <time>2019-11-08T14:34:45Z</time>
      </trkpt>
      <trkpt lat="41.611505" lon="2.654856">
        <ele>10.3</ele>
        <time>2019-11-08T14:34:46Z</time>
      </trkpt>
      <trkpt lat="41.61144" lon="2.65487">
        <ele>9.9</ele>
        <time>2019-11-08T14:34:48Z</time>
      </trkpt>
      <trkpt lat="41.61141" lon="2.654874">
        <ele>9.6</ele>
        <time>2019-11-08T14:34:49Z</time>
      </trkpt>
      <trkpt lat="41.611373" lon="2.654872">
        <ele>9.4</ele>
        <time>2019-11-08T14:34:51Z</time>
      </trkpt>
      <trkpt lat="41.611313" lon="2.654884">
        <ele>9.4</ele>
        <time>2019-11-08T14:34:53Z</time>
      </trkpt>
      <trkpt lat="41.611277" lon="2.654899">
        <ele>8.4</ele>
        <time>2019-11-08T14:34:55Z</time>
      </trkpt>
      <trkpt lat="41.611251" lon="2.65491">
        <ele>8.3</ele>
        <time>2019-11-08T14:34:56Z</time>
      </trkpt>
      <trkpt lat="41.611191" lon="2.654948">
        <ele>8.3</ele>
        <time>2019-11-08T14:34:59Z</time>
      </trkpt>
      <trkpt lat="41.611167" lon="2.654967">
        <ele>8.3</ele>
        <time>2019-11-08T14:35:00Z</time>
      </trkpt>
      <trkpt lat="41.611142" lon="2.654984">
        <ele>8.3</ele>
        <time>2019-11-08T14:35:01Z</time>
      </trkpt>
      <trkpt lat="41.611107" lon="2.65501">
        <ele>8.3</ele>
        <time>2019-11-08T14:35:03Z</time>
      </trkpt>
      <trkpt lat="41.611076" lon="2.655047">
        <ele>8.3</ele>
        <time>2019-11-08T14:35:05Z</time>
      </trkpt>
      <trkpt lat="41.61106" lon="2.655104">
        <ele>8.4</ele>
        <time>2019-11-08T14:35:06Z</time>
      </trkpt>
      <trkpt lat="41.611053" lon="2.655143">
        <ele>8.4</ele>
        <time>2019-11-08T14:35:07Z</time>
      </trkpt>
      <trkpt lat="41.611049" lon="2.6552">
        <ele>8.6</ele>
        <time>2019-11-08T14:35:09Z</time>
      </trkpt>
      <trkpt lat="41.611048" lon="2.655239">
        <ele>8.7</ele>
        <time>2019-11-08T14:35:10Z</time>
      </trkpt>
      <trkpt lat="41.61105" lon="2.65528">
        <ele>8.8</ele>
        <time>2019-11-08T14:35:11Z</time>
      </trkpt>
      <trkpt lat="41.611054" lon="2.655339">
        <ele>8.9</ele>
        <time>2019-11-08T14:35:13Z</time>
      </trkpt>
      <trkpt lat="41.611058" lon="2.655378">
        <ele>9.1</ele>
        <time>2019-11-08T14:35:14Z</time>
      </trkpt>
      <trkpt lat="41.61107" lon="2.655414">
        <ele>9.3</ele>
        <time>2019-11-08T14:35:15Z</time>
      </trkpt>
      <trkpt lat="41.611083" lon="2.65545">
        <ele>9.4</ele>
        <time>2019-11-08T14:35:16Z</time>
      </trkpt>
      <trkpt lat="41.611099" lon="2.655485">
        <ele>9.6</ele>
        <time>2019-11-08T14:35:17Z</time>
      </trkpt>
      <trkpt lat="41.611118" lon="2.65552">
        <ele>9.7</ele>
        <time>2019-11-08T14:35:19Z</time>
      </trkpt>
      <trkpt lat="41.611134" lon="2.655553">
        <ele>9.9</ele>
        <time>2019-11-08T14:35:20Z</time>
      </trkpt>
      <trkpt lat="41.611157" lon="2.655585">
        <ele>10</ele>
        <time>2019-11-08T14:35:21Z</time>
      </trkpt>
      <trkpt lat="41.611197" lon="2.655659">
        <ele>10.2</ele>
        <time>2019-11-08T14:35:23Z</time>
      </trkpt>
      <trkpt lat="41.611217" lon="2.655691">
        <ele>10.3</ele>
        <time>2019-11-08T14:35:25Z</time>
      </trkpt>
      <trkpt lat="41.611233" lon="2.655724">
        <ele>10.3</ele>
        <time>2019-11-08T14:35:26Z</time>
      </trkpt>
      <trkpt lat="41.61125" lon="2.655754">
        <ele>10.4</ele>
        <time>2019-11-08T14:35:27Z</time>
      </trkpt>
      <trkpt lat="41.611266" lon="2.655788">
        <ele>10.4</ele>
        <time>2019-11-08T14:35:28Z</time>
      </trkpt>
      <trkpt lat="41.611288" lon="2.655837">
        <ele>10.5</ele>
        <time>2019-11-08T14:35:29Z</time>
      </trkpt>
      <trkpt lat="41.611308" lon="2.655882">
        <ele>10.5</ele>
        <time>2019-11-08T14:35:31Z</time>
      </trkpt>
      <trkpt lat="41.611331" lon="2.655933">
        <ele>10.5</ele>
        <time>2019-11-08T14:35:33Z</time>
      </trkpt>
      <trkpt lat="41.611346" lon="2.655969">
        <ele>10.5</ele>
        <time>2019-11-08T14:35:34Z</time>
      </trkpt>
      <trkpt lat="41.611361" lon="2.656006">
        <ele>10.5</ele>
        <time>2019-11-08T14:35:35Z</time>
      </trkpt>
      <trkpt lat="41.611377" lon="2.656045">
        <ele>10.5</ele>
        <time>2019-11-08T14:35:36Z</time>
      </trkpt>
      <trkpt lat="41.6114" lon="2.656103">
        <ele>10.5</ele>
        <time>2019-11-08T14:35:38Z</time>
      </trkpt>
      <trkpt lat="41.61142" lon="2.656164">
        <ele>10.4</ele>
        <time>2019-11-08T14:35:39Z</time>
      </trkpt>
      <trkpt lat="41.61144" lon="2.656226">
        <ele>10.4</ele>
        <time>2019-11-08T14:35:41Z</time>
      </trkpt>
      <trkpt lat="41.611453" lon="2.656266">
        <ele>10.4</ele>
        <time>2019-11-08T14:35:42Z</time>
      </trkpt>
      <trkpt lat="41.611465" lon="2.656308">
        <ele>10.4</ele>
        <time>2019-11-08T14:35:43Z</time>
      </trkpt>
      <trkpt lat="41.611481" lon="2.656366">
        <ele>10.3</ele>
        <time>2019-11-08T14:35:45Z</time>
      </trkpt>
      <trkpt lat="41.611495" lon="2.656423">
        <ele>10.3</ele>
        <time>2019-11-08T14:35:47Z</time>
      </trkpt>
      <trkpt lat="41.611514" lon="2.656497">
        <ele>10.3</ele>
        <time>2019-11-08T14:35:49Z</time>
      </trkpt>
      <trkpt lat="41.611527" lon="2.65656">
        <ele>10.2</ele>
        <time>2019-11-08T14:35:51Z</time>
      </trkpt>
      <trkpt lat="41.611542" lon="2.656644">
        <ele>10.1</ele>
        <time>2019-11-08T14:35:53Z</time>
      </trkpt>
      <trkpt lat="41.611555" lon="2.656708">
        <ele>10.1</ele>
        <time>2019-11-08T14:35:54Z</time>
      </trkpt>
      <trkpt lat="41.611563" lon="2.656748">
        <ele>10</ele>
        <time>2019-11-08T14:35:56Z</time>
      </trkpt>
      <trkpt lat="41.611572" lon="2.656792">
        <ele>10</ele>
        <time>2019-11-08T14:35:57Z</time>
      </trkpt>
      <trkpt lat="41.611584" lon="2.656849">
        <ele>10</ele>
        <time>2019-11-08T14:35:58Z</time>
      </trkpt>
      <trkpt lat="41.611593" lon="2.656886">
        <ele>9.9</ele>
        <time>2019-11-08T14:35:59Z</time>
      </trkpt>
      <trkpt lat="41.61161" lon="2.656956">
        <ele>9.9</ele>
        <time>2019-11-08T14:36:01Z</time>
      </trkpt>
      <trkpt lat="41.611625" lon="2.657007">
        <ele>9.8</ele>
        <time>2019-11-08T14:36:03Z</time>
      </trkpt>
      <trkpt lat="41.611634" lon="2.657043">
        <ele>9.8</ele>
        <time>2019-11-08T14:36:04Z</time>
      </trkpt>
      <trkpt lat="41.611648" lon="2.6571">
        <ele>9.8</ele>
        <time>2019-11-08T14:36:06Z</time>
      </trkpt>
      <trkpt lat="41.611659" lon="2.657138">
        <ele>9.8</ele>
        <time>2019-11-08T14:36:07Z</time>
      </trkpt>
      <trkpt lat="41.611674" lon="2.657192">
        <ele>9.8</ele>
        <time>2019-11-08T14:36:09Z</time>
      </trkpt>
      <trkpt lat="41.611683" lon="2.657229">
        <ele>9.8</ele>
        <time>2019-11-08T14:36:10Z</time>
      </trkpt>
      <trkpt lat="41.611698" lon="2.657289">
        <ele>9.8</ele>
        <time>2019-11-08T14:36:12Z</time>
      </trkpt>
      <trkpt lat="41.611717" lon="2.657364">
        <ele>9.8</ele>
        <time>2019-11-08T14:36:14Z</time>
      </trkpt>
      <trkpt lat="41.611732" lon="2.657422">
        <ele>9.8</ele>
        <time>2019-11-08T14:36:16Z</time>
      </trkpt>
      <trkpt lat="41.611747" lon="2.65748">
        <ele>9.8</ele>
        <time>2019-11-08T14:36:17Z</time>
      </trkpt>
      <trkpt lat="41.611761" lon="2.657538">
        <ele>9.7</ele>
        <time>2019-11-08T14:36:19Z</time>
      </trkpt>
      <trkpt lat="41.611773" lon="2.657596">
        <ele>9.7</ele>
        <time>2019-11-08T14:36:20Z</time>
      </trkpt>
      <trkpt lat="41.611785" lon="2.657653">
        <ele>9.7</ele>
        <time>2019-11-08T14:36:22Z</time>
      </trkpt>
      <trkpt lat="41.611793" lon="2.657695">
        <ele>9.7</ele>
        <time>2019-11-08T14:36:23Z</time>
      </trkpt>
      <trkpt lat="41.611801" lon="2.657735">
        <ele>9.7</ele>
        <time>2019-11-08T14:36:24Z</time>
      </trkpt>
      <trkpt lat="41.611808" lon="2.657777">
        <ele>9.7</ele>
        <time>2019-11-08T14:36:26Z</time>
      </trkpt>
      <trkpt lat="41.611815" lon="2.657819">
        <ele>9.7</ele>
        <time>2019-11-08T14:36:27Z</time>
      </trkpt>
      <trkpt lat="41.611828" lon="2.6579">
        <ele>9.6</ele>
        <time>2019-11-08T14:36:28Z</time>
      </trkpt>
      <trkpt lat="41.61184" lon="2.657997">
        <ele>9.6</ele>
        <time>2019-11-08T14:36:30Z</time>
      </trkpt>
      <trkpt lat="41.611847" lon="2.658051">
        <ele>9.5</ele>
        <time>2019-11-08T14:36:31Z</time>
      </trkpt>
      <trkpt lat="41.611853" lon="2.6581">
        <ele>9.5</ele>
        <time>2019-11-08T14:36:32Z</time>
      </trkpt>
      <trkpt lat="41.611865" lon="2.658175">
        <ele>9.5</ele>
        <time>2019-11-08T14:36:34Z</time>
      </trkpt>
      <trkpt lat="41.611878" lon="2.658238">
        <ele>9.4</ele>
        <time>2019-11-08T14:36:36Z</time>
      </trkpt>
      <trkpt lat="41.611894" lon="2.658318">
        <ele>9.4</ele>
        <time>2019-11-08T14:36:38Z</time>
      </trkpt>
      <trkpt lat="41.611907" lon="2.658374">
        <ele>9.4</ele>
        <time>2019-11-08T14:36:39Z</time>
      </trkpt>
      <trkpt lat="41.611918" lon="2.65842">
        <ele>9.4</ele>
        <time>2019-11-08T14:36:41Z</time>
      </trkpt>
      <trkpt lat="41.611932" lon="2.658466">
        <ele>9.4</ele>
        <time>2019-11-08T14:36:43Z</time>
      </trkpt>
      <trkpt lat="41.611946" lon="2.658513">
        <ele>9.4</ele>
        <time>2019-11-08T14:36:44Z</time>
      </trkpt>
      <trkpt lat="41.611965" lon="2.658567">
        <ele>9.4</ele>
        <time>2019-11-08T14:36:47Z</time>
      </trkpt>
      <trkpt lat="41.61198" lon="2.658612">
        <ele>9.4</ele>
        <time>2019-11-08T14:36:48Z</time>
      </trkpt>
      <trkpt lat="41.612003" lon="2.658683">
        <ele>9.4</ele>
        <time>2019-11-08T14:36:51Z</time>
      </trkpt>
      <trkpt lat="41.612023" lon="2.658731">
        <ele>9.4</ele>
        <time>2019-11-08T14:36:53Z</time>
      </trkpt>
      <trkpt lat="41.612041" lon="2.658774">
        <ele>9.4</ele>
        <time>2019-11-08T14:36:54Z</time>
      </trkpt>
      <trkpt lat="41.612062" lon="2.658817">
        <ele>9.4</ele>
        <time>2019-11-08T14:36:56Z</time>
      </trkpt>
      <trkpt lat="41.612096" lon="2.658892">
        <ele>9.4</ele>
        <time>2019-11-08T14:36:59Z</time>
      </trkpt>
      <trkpt lat="41.612115" lon="2.658937">
        <ele>9.4</ele>
        <time>2019-11-08T14:37:01Z</time>
      </trkpt>
      <trkpt lat="41.61214" lon="2.658989">
        <ele>9.4</ele>
        <time>2019-11-08T14:37:03Z</time>
      </trkpt>
      <trkpt lat="41.61217" lon="2.65906">
        <ele>9.3</ele>
        <time>2019-11-08T14:37:05Z</time>
      </trkpt>
      <trkpt lat="41.612193" lon="2.659121">
        <ele>9.3</ele>
        <time>2019-11-08T14:37:08Z</time>
      </trkpt>
      <trkpt lat="41.612222" lon="2.659195">
        <ele>9.2</ele>
        <time>2019-11-08T14:37:11Z</time>
      </trkpt>
      <trkpt lat="41.612252" lon="2.659273">
        <ele>9.1</ele>
        <time>2019-11-08T14:37:14Z</time>
      </trkpt>
      <trkpt lat="41.612268" lon="2.65932">
        <ele>9.1</ele>
        <time>2019-11-08T14:37:15Z</time>
      </trkpt>
      <trkpt lat="41.612286" lon="2.659372">
        <ele>9</ele>
        <time>2019-11-08T14:37:17Z</time>
      </trkpt>
      <trkpt lat="41.612308" lon="2.659442">
        <ele>8.9</ele>
        <time>2019-11-08T14:37:19Z</time>
      </trkpt>
      <trkpt lat="41.612323" lon="2.659499">
        <ele>8.9</ele>
        <time>2019-11-08T14:37:21Z</time>
      </trkpt>
      <trkpt lat="41.612336" lon="2.659557">
        <ele>8.8</ele>
        <time>2019-11-08T14:37:22Z</time>
      </trkpt>
      <trkpt lat="41.612348" lon="2.659622">
        <ele>8.7</ele>
        <time>2019-11-08T14:37:24Z</time>
      </trkpt>
      <trkpt lat="41.612355" lon="2.659691">
        <ele>8.7</ele>
        <time>2019-11-08T14:37:26Z</time>
      </trkpt>
      <trkpt lat="41.612365" lon="2.65976">
        <ele>8.6</ele>
        <time>2019-11-08T14:37:27Z</time>
      </trkpt>
      <trkpt lat="41.612373" lon="2.659827">
        <ele>8.6</ele>
        <time>2019-11-08T14:37:29Z</time>
      </trkpt>
      <trkpt lat="41.612378" lon="2.659871">
        <ele>8.5</ele>
        <time>2019-11-08T14:37:30Z</time>
      </trkpt>
      <trkpt lat="41.612387" lon="2.659939">
        <ele>8.5</ele>
        <time>2019-11-08T14:37:32Z</time>
      </trkpt>
      <trkpt lat="41.612398" lon="2.660001">
        <ele>8.5</ele>
        <time>2019-11-08T14:37:34Z</time>
      </trkpt>
      <trkpt lat="41.612411" lon="2.660061">
        <ele>8.4</ele>
        <time>2019-11-08T14:37:35Z</time>
      </trkpt>
      <trkpt lat="41.61242" lon="2.660102">
        <ele>8.4</ele>
        <time>2019-11-08T14:37:36Z</time>
      </trkpt>
      <trkpt lat="41.612435" lon="2.66016">
        <ele>8.4</ele>
        <time>2019-11-08T14:37:37Z</time>
      </trkpt>
      <trkpt lat="41.612445" lon="2.660201">
        <ele>8.4</ele>
        <time>2019-11-08T14:37:39Z</time>
      </trkpt>
      <trkpt lat="41.612461" lon="2.660262">
        <ele>8.4</ele>
        <time>2019-11-08T14:37:40Z</time>
      </trkpt>
      <trkpt lat="41.612474" lon="2.660304">
        <ele>8.4</ele>
        <time>2019-11-08T14:37:41Z</time>
      </trkpt>
      <trkpt lat="41.612486" lon="2.660345">
        <ele>8.4</ele>
        <time>2019-11-08T14:37:43Z</time>
      </trkpt>
      <trkpt lat="41.612496" lon="2.660385">
        <ele>8.4</ele>
        <time>2019-11-08T14:37:44Z</time>
      </trkpt>
      <trkpt lat="41.612513" lon="2.660442">
        <ele>8.4</ele>
        <time>2019-11-08T14:37:45Z</time>
      </trkpt>
      <trkpt lat="41.612528" lon="2.66048">
        <ele>8.4</ele>
        <time>2019-11-08T14:37:47Z</time>
      </trkpt>
      <trkpt lat="41.61254" lon="2.660514">
        <ele>8.4</ele>
        <time>2019-11-08T14:37:48Z</time>
      </trkpt>
      <trkpt lat="41.612551" lon="2.660552">
        <ele>8.4</ele>
        <time>2019-11-08T14:37:49Z</time>
      </trkpt>
      <trkpt lat="41.612562" lon="2.660593">
        <ele>8.4</ele>
        <time>2019-11-08T14:37:50Z</time>
      </trkpt>
      <trkpt lat="41.612575" lon="2.660652">
        <ele>8.4</ele>
        <time>2019-11-08T14:37:51Z</time>
      </trkpt>
      <trkpt lat="41.612581" lon="2.660693">
        <ele>8.4</ele>
        <time>2019-11-08T14:37:53Z</time>
      </trkpt>
      <trkpt lat="41.612587" lon="2.660734">
        <ele>8.4</ele>
        <time>2019-11-08T14:37:54Z</time>
      </trkpt>
      <trkpt lat="41.612591" lon="2.660779">
        <ele>8.4</ele>
        <time>2019-11-08T14:37:55Z</time>
      </trkpt>
      <trkpt lat="41.612597" lon="2.660841">
        <ele>8.4</ele>
        <time>2019-11-08T14:37:56Z</time>
      </trkpt>
      <trkpt lat="41.6126" lon="2.6609">
        <ele>8.4</ele>
        <time>2019-11-08T14:37:58Z</time>
      </trkpt>
      <trkpt lat="41.612604" lon="2.660956">
        <ele>8.4</ele>
        <time>2019-11-08T14:38:00Z</time>
      </trkpt>
      <trkpt lat="41.612608" lon="2.660993">
        <ele>8.4</ele>
        <time>2019-11-08T14:38:01Z</time>
      </trkpt>
      <trkpt lat="41.612614" lon="2.661048">
        <ele>8.4</ele>
        <time>2019-11-08T14:38:02Z</time>
      </trkpt>
      <trkpt lat="41.612621" lon="2.661102">
        <ele>8.4</ele>
        <time>2019-11-08T14:38:04Z</time>
      </trkpt>
      <trkpt lat="41.612626" lon="2.661139">
        <ele>8.4</ele>
        <time>2019-11-08T14:38:05Z</time>
      </trkpt>
      <trkpt lat="41.612633" lon="2.661179">
        <ele>8.4</ele>
        <time>2019-11-08T14:38:06Z</time>
      </trkpt>
      <trkpt lat="41.612644" lon="2.661235">
        <ele>8.5</ele>
        <time>2019-11-08T14:38:08Z</time>
      </trkpt>
      <trkpt lat="41.61265" lon="2.661274">
        <ele>8.5</ele>
        <time>2019-11-08T14:38:09Z</time>
      </trkpt>
      <trkpt lat="41.612656" lon="2.66132">
        <ele>8.5</ele>
        <time>2019-11-08T14:38:10Z</time>
      </trkpt>
      <trkpt lat="41.612668" lon="2.661416">
        <ele>8.5</ele>
        <time>2019-11-08T14:38:12Z</time>
      </trkpt>
      <trkpt lat="41.612682" lon="2.661507">
        <ele>8.5</ele>
        <time>2019-11-08T14:38:13Z</time>
      </trkpt>
      <trkpt lat="41.612694" lon="2.66159">
        <ele>8.5</ele>
        <time>2019-11-08T14:38:15Z</time>
      </trkpt>
      <trkpt lat="41.612706" lon="2.661661">
        <ele>8.4</ele>
        <time>2019-11-08T14:38:17Z</time>
      </trkpt>
      <trkpt lat="41.612715" lon="2.661709">
        <ele>8.4</ele>
        <time>2019-11-08T14:38:18Z</time>
      </trkpt>
      <trkpt lat="41.612726" lon="2.661773">
        <ele>8.4</ele>
        <time>2019-11-08T14:38:19Z</time>
      </trkpt>
      <trkpt lat="41.612734" lon="2.661816">
        <ele>8.3</ele>
        <time>2019-11-08T14:38:21Z</time>
      </trkpt>
      <trkpt lat="41.61274" lon="2.661857">
        <ele>8.3</ele>
        <time>2019-11-08T14:38:22Z</time>
      </trkpt>
      <trkpt lat="41.612749" lon="2.661898">
        <ele>8.2</ele>
        <time>2019-11-08T14:38:23Z</time>
      </trkpt>
      <trkpt lat="41.612757" lon="2.661933">
        <ele>8.2</ele>
        <time>2019-11-08T14:38:24Z</time>
      </trkpt>
      <trkpt lat="41.612771" lon="2.661984">
        <ele>8.1</ele>
        <time>2019-11-08T14:38:26Z</time>
      </trkpt>
      <trkpt lat="41.612793" lon="2.662047">
        <ele>8.1</ele>
        <time>2019-11-08T14:38:28Z</time>
      </trkpt>
      <trkpt lat="41.612806" lon="2.662083">
        <ele>8</ele>
        <time>2019-11-08T14:38:29Z</time>
      </trkpt>
      <trkpt lat="41.612823" lon="2.66213">
        <ele>8</ele>
        <time>2019-11-08T14:38:31Z</time>
      </trkpt>
      <trkpt lat="41.612835" lon="2.662162">
        <ele>7.9</ele>
        <time>2019-11-08T14:38:32Z</time>
      </trkpt>
      <trkpt lat="41.612866" lon="2.662235">
        <ele>7.8</ele>
        <time>2019-11-08T14:38:35Z</time>
      </trkpt>
      <trkpt lat="41.612897" lon="2.662306">
        <ele>7.7</ele>
        <time>2019-11-08T14:38:37Z</time>
      </trkpt>
      <trkpt lat="41.612926" lon="2.662364">
        <ele>7.6</ele>
        <time>2019-11-08T14:38:40Z</time>
      </trkpt>
      <trkpt lat="41.612956" lon="2.662423">
        <ele>7.5</ele>
        <time>2019-11-08T14:38:42Z</time>
      </trkpt>
      <trkpt lat="41.612993" lon="2.662499">
        <ele>7.5</ele>
        <time>2019-11-08T14:38:45Z</time>
      </trkpt>
      <trkpt lat="41.61301" lon="2.662532">
        <ele>7.5</ele>
        <time>2019-11-08T14:38:46Z</time>
      </trkpt>
      <trkpt lat="41.613032" lon="2.662578">
        <ele>7.4</ele>
        <time>2019-11-08T14:38:47Z</time>
      </trkpt>
      <trkpt lat="41.613047" lon="2.66261">
        <ele>7.4</ele>
        <time>2019-11-08T14:38:49Z</time>
      </trkpt>
      <trkpt lat="41.613102" lon="2.662805">
        <ele>7.3</ele>
        <time>2019-11-08T14:39:34Z</time>
      </trkpt>
      <trkpt lat="41.613091" lon="2.662766">
        <ele>7.3</ele>
        <time>2019-11-08T14:39:35Z</time>
      </trkpt>
      <trkpt lat="41.613074" lon="2.662735">
        <ele>7.3</ele>
        <time>2019-11-08T14:39:37Z</time>
      </trkpt>
      <trkpt lat="41.613044" lon="2.66272">
        <ele>7.3</ele>
        <time>2019-11-08T14:39:42Z</time>
      </trkpt>
      <trkpt lat="41.613079" lon="2.66276">
        <ele>7.3</ele>
        <time>2019-11-08T14:40:07Z</time>
      </trkpt>
      <trkpt lat="41.613104" lon="2.662842">
        <ele>7.3</ele>
        <time>2019-11-08T14:40:10Z</time>
      </trkpt>
      <trkpt lat="41.613116" lon="2.662901">
        <ele>7.3</ele>
        <time>2019-11-08T14:40:12Z</time>
      </trkpt>
      <trkpt lat="41.61313" lon="2.662966">
        <ele>7.3</ele>
        <time>2019-11-08T14:40:13Z</time>
      </trkpt>
      <trkpt lat="41.613139" lon="2.663005">
        <ele>7.3</ele>
        <time>2019-11-08T14:40:14Z</time>
      </trkpt>
      <trkpt lat="41.613154" lon="2.66307">
        <ele>7.3</ele>
        <time>2019-11-08T14:40:16Z</time>
      </trkpt>
      <trkpt lat="41.61317" lon="2.663136">
        <ele>7.3</ele>
        <time>2019-11-08T14:40:17Z</time>
      </trkpt>
      <trkpt lat="41.613182" lon="2.663177">
        <ele>7.3</ele>
        <time>2019-11-08T14:40:19Z</time>
      </trkpt>
      <trkpt lat="41.613201" lon="2.663239">
        <ele>7.3</ele>
        <time>2019-11-08T14:40:20Z</time>
      </trkpt>
      <trkpt lat="41.613222" lon="2.663299">
        <ele>7.3</ele>
        <time>2019-11-08T14:40:22Z</time>
      </trkpt>
      <trkpt lat="41.613236" lon="2.66334">
        <ele>7.3</ele>
        <time>2019-11-08T14:40:23Z</time>
      </trkpt>
      <trkpt lat="41.613257" lon="2.663401">
        <ele>7.3</ele>
        <time>2019-11-08T14:40:25Z</time>
      </trkpt>
      <trkpt lat="41.613269" lon="2.663438">
        <ele>7.3</ele>
        <time>2019-11-08T14:40:26Z</time>
      </trkpt>
      <trkpt lat="41.613287" lon="2.663503">
        <ele>7.3</ele>
        <time>2019-11-08T14:40:28Z</time>
      </trkpt>
      <trkpt lat="41.613305" lon="2.663586">
        <ele>7.3</ele>
        <time>2019-11-08T14:40:30Z</time>
      </trkpt>
      <trkpt lat="41.613321" lon="2.663658">
        <ele>7.3</ele>
        <time>2019-11-08T14:40:32Z</time>
      </trkpt>
      <trkpt lat="41.613335" lon="2.663727">
        <ele>7.2</ele>
        <time>2019-11-08T14:40:33Z</time>
      </trkpt>
      <trkpt lat="41.613354" lon="2.663796">
        <ele>7.2</ele>
        <time>2019-11-08T14:40:35Z</time>
      </trkpt>
      <trkpt lat="41.613368" lon="2.66384">
        <ele>7.2</ele>
        <time>2019-11-08T14:40:36Z</time>
      </trkpt>
      <trkpt lat="41.613381" lon="2.66388">
        <ele>7.2</ele>
        <time>2019-11-08T14:40:37Z</time>
      </trkpt>
      <trkpt lat="41.613401" lon="2.663939">
        <ele>7.1</ele>
        <time>2019-11-08T14:40:39Z</time>
      </trkpt>
      <trkpt lat="41.613414" lon="2.663979">
        <ele>7.1</ele>
        <time>2019-11-08T14:40:40Z</time>
      </trkpt>
      <trkpt lat="41.613429" lon="2.66402">
        <ele>7.1</ele>
        <time>2019-11-08T14:40:41Z</time>
      </trkpt>
      <trkpt lat="41.613444" lon="2.664057">
        <ele>7.1</ele>
        <time>2019-11-08T14:40:42Z</time>
      </trkpt>
      <trkpt lat="41.613467" lon="2.664113">
        <ele>7</ele>
        <time>2019-11-08T14:40:44Z</time>
      </trkpt>
      <trkpt lat="41.613485" lon="2.664154">
        <ele>7</ele>
        <time>2019-11-08T14:40:45Z</time>
      </trkpt>
      <trkpt lat="41.613501" lon="2.664191">
        <ele>7</ele>
        <time>2019-11-08T14:40:46Z</time>
      </trkpt>
      <trkpt lat="41.613518" lon="2.664227">
        <ele>6.9</ele>
        <time>2019-11-08T14:40:47Z</time>
      </trkpt>
      <trkpt lat="41.613547" lon="2.66428">
        <ele>6.9</ele>
        <time>2019-11-08T14:40:49Z</time>
      </trkpt>
      <trkpt lat="41.613565" lon="2.664315">
        <ele>6.9</ele>
        <time>2019-11-08T14:40:50Z</time>
      </trkpt>
      <trkpt lat="41.613583" lon="2.664353">
        <ele>6.8</ele>
        <time>2019-11-08T14:40:51Z</time>
      </trkpt>
      <trkpt lat="41.613608" lon="2.664408">
        <ele>6.7</ele>
        <time>2019-11-08T14:40:53Z</time>
      </trkpt>
      <trkpt lat="41.613625" lon="2.664447">
        <ele>6.7</ele>
        <time>2019-11-08T14:40:54Z</time>
      </trkpt>
      <trkpt lat="41.613655" lon="2.664524">
        <ele>6.5</ele>
        <time>2019-11-08T14:40:56Z</time>
      </trkpt>
      <trkpt lat="41.613677" lon="2.664577">
        <ele>6.9</ele>
        <time>2019-11-08T14:40:58Z</time>
      </trkpt>
      <trkpt lat="41.6137" lon="2.664632">
        <ele>7.5</ele>
        <time>2019-11-08T14:40:59Z</time>
      </trkpt>
      <trkpt lat="41.613716" lon="2.664673">
        <ele>8.1</ele>
        <time>2019-11-08T14:41:00Z</time>
      </trkpt>
      <trkpt lat="41.613731" lon="2.664711">
        <ele>8.6</ele>
        <time>2019-11-08T14:41:01Z</time>
      </trkpt>
      <trkpt lat="41.613747" lon="2.664749">
        <ele>9.2</ele>
        <time>2019-11-08T14:41:02Z</time>
      </trkpt>
      <trkpt lat="41.61376" lon="2.664786">
        <ele>9.2</ele>
        <time>2019-11-08T14:41:04Z</time>
      </trkpt>
      <trkpt lat="41.613774" lon="2.664825">
        <ele>9.2</ele>
        <time>2019-11-08T14:41:05Z</time>
      </trkpt>
      <trkpt lat="41.613787" lon="2.664861">
        <ele>9.1</ele>
        <time>2019-11-08T14:41:06Z</time>
      </trkpt>
      <trkpt lat="41.6138" lon="2.664899">
        <ele>9.1</ele>
        <time>2019-11-08T14:41:07Z</time>
      </trkpt>
      <trkpt lat="41.613814" lon="2.664933">
        <ele>9.1</ele>
        <time>2019-11-08T14:41:08Z</time>
      </trkpt>
      <trkpt lat="41.613836" lon="2.664986">
        <ele>9</ele>
        <time>2019-11-08T14:41:10Z</time>
      </trkpt>
      <trkpt lat="41.613851" lon="2.665021">
        <ele>9</ele>
        <time>2019-11-08T14:41:11Z</time>
      </trkpt>
      <trkpt lat="41.613865" lon="2.665055">
        <ele>8.9</ele>
        <time>2019-11-08T14:41:12Z</time>
      </trkpt>
      <trkpt lat="41.613885" lon="2.665102">
        <ele>8.9</ele>
        <time>2019-11-08T14:41:13Z</time>
      </trkpt>
      <trkpt lat="41.6139" lon="2.665135">
        <ele>8.9</ele>
        <time>2019-11-08T14:41:15Z</time>
      </trkpt>
      <trkpt lat="41.613924" lon="2.665189">
        <ele>8.8</ele>
        <time>2019-11-08T14:41:16Z</time>
      </trkpt>
      <trkpt lat="41.613939" lon="2.665225">
        <ele>8.8</ele>
        <time>2019-11-08T14:41:17Z</time>
      </trkpt>
      <trkpt lat="41.613955" lon="2.665261">
        <ele>8.8</ele>
        <time>2019-11-08T14:41:19Z</time>
      </trkpt>
      <trkpt lat="41.61397" lon="2.665299">
        <ele>8.8</ele>
        <time>2019-11-08T14:41:20Z</time>
      </trkpt>
      <trkpt lat="41.613985" lon="2.665338">
        <ele>8.8</ele>
        <time>2019-11-08T14:41:21Z</time>
      </trkpt>
      <trkpt lat="41.613999" lon="2.665378">
        <ele>8.7</ele>
        <time>2019-11-08T14:41:22Z</time>
      </trkpt>
      <trkpt lat="41.61402" lon="2.665439">
        <ele>8.7</ele>
        <time>2019-11-08T14:41:24Z</time>
      </trkpt>
      <trkpt lat="41.614044" lon="2.665515">
        <ele>8.7</ele>
        <time>2019-11-08T14:41:26Z</time>
      </trkpt>
      <trkpt lat="41.614063" lon="2.665572">
        <ele>8.7</ele>
        <time>2019-11-08T14:41:28Z</time>
      </trkpt>
      <trkpt lat="41.614075" lon="2.665606">
        <ele>8.6</ele>
        <time>2019-11-08T14:41:29Z</time>
      </trkpt>
      <trkpt lat="41.614093" lon="2.66566">
        <ele>8.6</ele>
        <time>2019-11-08T14:41:30Z</time>
      </trkpt>
      <trkpt lat="41.614113" lon="2.665715">
        <ele>8.6</ele>
        <time>2019-11-08T14:41:32Z</time>
      </trkpt>
      <trkpt lat="41.614134" lon="2.665771">
        <ele>8.5</ele>
        <time>2019-11-08T14:41:33Z</time>
      </trkpt>
      <trkpt lat="41.614147" lon="2.665805">
        <ele>8.5</ele>
        <time>2019-11-08T14:41:35Z</time>
      </trkpt>
      <trkpt lat="41.61416" lon="2.66584">
        <ele>8.5</ele>
        <time>2019-11-08T14:41:36Z</time>
      </trkpt>
      <trkpt lat="41.61418" lon="2.665893">
        <ele>8.4</ele>
        <time>2019-11-08T14:41:37Z</time>
      </trkpt>
      <trkpt lat="41.614201" lon="2.665944">
        <ele>8.4</ele>
        <time>2019-11-08T14:41:39Z</time>
      </trkpt>
      <trkpt lat="41.614214" lon="2.665976">
        <ele>8.4</ele>
        <time>2019-11-08T14:41:40Z</time>
      </trkpt>
      <trkpt lat="41.614236" lon="2.666024">
        <ele>8.4</ele>
        <time>2019-11-08T14:41:42Z</time>
      </trkpt>
      <trkpt lat="41.614258" lon="2.666071">
        <ele>8.3</ele>
        <time>2019-11-08T14:41:43Z</time>
      </trkpt>
      <trkpt lat="41.614278" lon="2.666115">
        <ele>8.3</ele>
        <time>2019-11-08T14:41:45Z</time>
      </trkpt>
      <trkpt lat="41.614298" lon="2.666156">
        <ele>8.3</ele>
        <time>2019-11-08T14:41:47Z</time>
      </trkpt>
      <trkpt lat="41.614319" lon="2.666197">
        <ele>8.3</ele>
        <time>2019-11-08T14:41:48Z</time>
      </trkpt>
      <trkpt lat="41.614352" lon="2.666265">
        <ele>8.3</ele>
        <time>2019-11-08T14:41:51Z</time>
      </trkpt>
      <trkpt lat="41.61438" lon="2.666323">
        <ele>8.4</ele>
        <time>2019-11-08T14:41:53Z</time>
      </trkpt>
      <trkpt lat="41.614406" lon="2.666377">
        <ele>8.5</ele>
        <time>2019-11-08T14:41:55Z</time>
      </trkpt>
      <trkpt lat="41.614441" lon="2.666443">
        <ele>8.5</ele>
        <time>2019-11-08T14:41:58Z</time>
      </trkpt>
      <trkpt lat="41.614475" lon="2.666508">
        <ele>8.7</ele>
        <time>2019-11-08T14:42:01Z</time>
      </trkpt>
      <trkpt lat="41.614502" lon="2.666558">
        <ele>8.8</ele>
        <time>2019-11-08T14:42:03Z</time>
      </trkpt>
      <trkpt lat="41.614517" lon="2.666601">
        <ele>8.8</ele>
        <time>2019-11-08T14:42:05Z</time>
      </trkpt>
      <trkpt lat="41.614529" lon="2.666668">
        <ele>9</ele>
        <time>2019-11-08T14:42:07Z</time>
      </trkpt>
      <trkpt lat="41.614533" lon="2.666713">
        <ele>9.1</ele>
        <time>2019-11-08T14:42:09Z</time>
      </trkpt>
      <trkpt lat="41.614536" lon="2.666773">
        <ele>9.2</ele>
        <time>2019-11-08T14:42:11Z</time>
      </trkpt>
      <trkpt lat="41.614545" lon="2.666841">
        <ele>9.2</ele>
        <time>2019-11-08T14:42:13Z</time>
      </trkpt>
      <trkpt lat="41.61455" lon="2.666879">
        <ele>9.3</ele>
        <time>2019-11-08T14:42:14Z</time>
      </trkpt>
      <trkpt lat="41.614556" lon="2.666916">
        <ele>9.2</ele>
        <time>2019-11-08T14:42:15Z</time>
      </trkpt>
      <trkpt lat="41.614561" lon="2.666953">
        <ele>9.2</ele>
        <time>2019-11-08T14:42:16Z</time>
      </trkpt>
      <trkpt lat="41.614569" lon="2.66701">
        <ele>9.1</ele>
        <time>2019-11-08T14:42:18Z</time>
      </trkpt>
      <trkpt lat="41.614576" lon="2.667051">
        <ele>9.1</ele>
        <time>2019-11-08T14:42:19Z</time>
      </trkpt>
      <trkpt lat="41.61458" lon="2.667092">
        <ele>8.9</ele>
        <time>2019-11-08T14:42:20Z</time>
      </trkpt>
      <trkpt lat="41.614587" lon="2.667149">
        <ele>8.8</ele>
        <time>2019-11-08T14:42:22Z</time>
      </trkpt>
      <trkpt lat="41.61459" lon="2.667187">
        <ele>8.6</ele>
        <time>2019-11-08T14:42:23Z</time>
      </trkpt>
      <trkpt lat="41.614593" lon="2.667248">
        <ele>8.4</ele>
        <time>2019-11-08T14:42:25Z</time>
      </trkpt>
      <trkpt lat="41.614593" lon="2.667286">
        <ele>8.2</ele>
        <time>2019-11-08T14:42:26Z</time>
      </trkpt>
      <trkpt lat="41.614592" lon="2.667328">
        <ele>8.1</ele>
        <time>2019-11-08T14:42:27Z</time>
      </trkpt>
      <trkpt lat="41.61459" lon="2.66737">
        <ele>7.9</ele>
        <time>2019-11-08T14:42:28Z</time>
      </trkpt>
      <trkpt lat="41.614591" lon="2.66741">
        <ele>7.7</ele>
        <time>2019-11-08T14:42:29Z</time>
      </trkpt>
      <trkpt lat="41.614591" lon="2.667453">
        <ele>7.5</ele>
        <time>2019-11-08T14:42:30Z</time>
      </trkpt>
      <trkpt lat="41.614592" lon="2.667516">
        <ele>7.2</ele>
        <time>2019-11-08T14:42:32Z</time>
      </trkpt>
      <trkpt lat="41.614593" lon="2.667581">
        <ele>7</ele>
        <time>2019-11-08T14:42:34Z</time>
      </trkpt>
      <trkpt lat="41.614592" lon="2.667672">
        <ele>6.8</ele>
        <time>2019-11-08T14:42:36Z</time>
      </trkpt>
      <trkpt lat="41.614591" lon="2.667719">
        <ele>6.8</ele>
        <time>2019-11-08T14:42:37Z</time>
      </trkpt>
      <trkpt lat="41.614588" lon="2.667764">
        <ele>6.8</ele>
        <time>2019-11-08T14:42:38Z</time>
      </trkpt>
      <trkpt lat="41.614583" lon="2.66783">
        <ele>6.8</ele>
        <time>2019-11-08T14:42:40Z</time>
      </trkpt>
      <trkpt lat="41.61458" lon="2.667874">
        <ele>6.8</ele>
        <time>2019-11-08T14:42:41Z</time>
      </trkpt>
      <trkpt lat="41.614576" lon="2.667941">
        <ele>6.9</ele>
        <time>2019-11-08T14:42:42Z</time>
      </trkpt>
      <trkpt lat="41.614574" lon="2.667982">
        <ele>6.9</ele>
        <time>2019-11-08T14:42:43Z</time>
      </trkpt>
      <trkpt lat="41.614572" lon="2.668026">
        <ele>6.9</ele>
        <time>2019-11-08T14:42:45Z</time>
      </trkpt>
      <trkpt lat="41.614571" lon="2.668087">
        <ele>7</ele>
        <time>2019-11-08T14:42:46Z</time>
      </trkpt>
      <trkpt lat="41.614571" lon="2.668128">
        <ele>7.1</ele>
        <time>2019-11-08T14:42:47Z</time>
      </trkpt>
      <trkpt lat="41.614571" lon="2.668169">
        <ele>7.2</ele>
        <time>2019-11-08T14:42:49Z</time>
      </trkpt>
      <trkpt lat="41.614573" lon="2.668232">
        <ele>7.2</ele>
        <time>2019-11-08T14:42:50Z</time>
      </trkpt>
      <trkpt lat="41.614571" lon="2.66828">
        <ele>7.3</ele>
        <time>2019-11-08T14:42:51Z</time>
      </trkpt>
      <trkpt lat="41.614567" lon="2.668323">
        <ele>7.3</ele>
        <time>2019-11-08T14:42:53Z</time>
      </trkpt>
      <trkpt lat="41.614561" lon="2.668386">
        <ele>7.2</ele>
        <time>2019-11-08T14:42:54Z</time>
      </trkpt>
      <trkpt lat="41.614557" lon="2.668428">
        <ele>7.2</ele>
        <time>2019-11-08T14:42:55Z</time>
      </trkpt>
      <trkpt lat="41.61455" lon="2.668493">
        <ele>7</ele>
        <time>2019-11-08T14:42:57Z</time>
      </trkpt>
      <trkpt lat="41.614546" lon="2.668536">
        <ele>6.8</ele>
        <time>2019-11-08T14:42:58Z</time>
      </trkpt>
      <trkpt lat="41.614542" lon="2.668598">
        <ele>6.6</ele>
        <time>2019-11-08T14:43:00Z</time>
      </trkpt>
      <trkpt lat="41.61454" lon="2.668659">
        <ele>6.3</ele>
        <time>2019-11-08T14:43:01Z</time>
      </trkpt>
      <trkpt lat="41.614541" lon="2.6687">
        <ele>6.2</ele>
        <time>2019-11-08T14:43:02Z</time>
      </trkpt>
      <trkpt lat="41.614547" lon="2.668744">
        <ele>6.1</ele>
        <time>2019-11-08T14:43:04Z</time>
      </trkpt>
      <trkpt lat="41.614556" lon="2.66881">
        <ele>5.9</ele>
        <time>2019-11-08T14:43:05Z</time>
      </trkpt>
      <trkpt lat="41.614564" lon="2.668852">
        <ele>5.9</ele>
        <time>2019-11-08T14:43:07Z</time>
      </trkpt>
      <trkpt lat="41.614573" lon="2.668892">
        <ele>5.8</ele>
        <time>2019-11-08T14:43:08Z</time>
      </trkpt>
      <trkpt lat="41.614583" lon="2.668933">
        <ele>5.8</ele>
        <time>2019-11-08T14:43:09Z</time>
      </trkpt>
      <trkpt lat="41.614596" lon="2.668992">
        <ele>5.7</ele>
        <time>2019-11-08T14:43:11Z</time>
      </trkpt>
      <trkpt lat="41.614607" lon="2.669029">
        <ele>5.6</ele>
        <time>2019-11-08T14:43:12Z</time>
      </trkpt>
      <trkpt lat="41.614617" lon="2.669067">
        <ele>5.6</ele>
        <time>2019-11-08T14:43:13Z</time>
      </trkpt>
      <trkpt lat="41.614626" lon="2.669102">
        <ele>5.5</ele>
        <time>2019-11-08T14:43:14Z</time>
      </trkpt>
      <trkpt lat="41.614641" lon="2.669156">
        <ele>5.4</ele>
        <time>2019-11-08T14:43:16Z</time>
      </trkpt>
      <trkpt lat="41.614667" lon="2.669204">
        <ele>5.3</ele>
        <time>2019-11-08T14:43:17Z</time>
      </trkpt>
      <trkpt lat="41.6147" lon="2.669271">
        <ele>5.1</ele>
        <time>2019-11-08T14:43:18Z</time>
      </trkpt>
      <trkpt lat="41.61473" lon="2.669334">
        <ele>5</ele>
        <time>2019-11-08T14:43:20Z</time>
      </trkpt>
      <trkpt lat="41.614757" lon="2.669391">
        <ele>4.9</ele>
        <time>2019-11-08T14:43:22Z</time>
      </trkpt>
      <trkpt lat="41.614775" lon="2.669421">
        <ele>4.9</ele>
        <time>2019-11-08T14:43:23Z</time>
      </trkpt>
      <trkpt lat="41.614801" lon="2.669472">
        <ele>4.8</ele>
        <time>2019-11-08T14:43:24Z</time>
      </trkpt>
      <trkpt lat="41.614819" lon="2.669505">
        <ele>4.8</ele>
        <time>2019-11-08T14:43:25Z</time>
      </trkpt>
      <trkpt lat="41.614844" lon="2.66955">
        <ele>4.8</ele>
        <time>2019-11-08T14:43:27Z</time>
      </trkpt>
      <trkpt lat="41.614865" lon="2.669595">
        <ele>4.8</ele>
        <time>2019-11-08T14:43:29Z</time>
      </trkpt>
      <trkpt lat="41.614893" lon="2.669647">
        <ele>4.8</ele>
        <time>2019-11-08T14:43:31Z</time>
      </trkpt>
      <trkpt lat="41.614927" lon="2.669713">
        <ele>4.8</ele>
        <time>2019-11-08T14:43:33Z</time>
      </trkpt>
      <trkpt lat="41.614951" lon="2.669764">
        <ele>4.8</ele>
        <time>2019-11-08T14:43:34Z</time>
      </trkpt>
      <trkpt lat="41.614967" lon="2.669797">
        <ele>4.8</ele>
        <time>2019-11-08T14:43:36Z</time>
      </trkpt>
      <trkpt lat="41.614991" lon="2.669856">
        <ele>4.8</ele>
        <time>2019-11-08T14:43:38Z</time>
      </trkpt>
      <trkpt lat="41.615013" lon="2.669915">
        <ele>4.8</ele>
        <time>2019-11-08T14:43:40Z</time>
      </trkpt>
      <trkpt lat="41.615027" lon="2.669957">
        <ele>4.8</ele>
        <time>2019-11-08T14:43:42Z</time>
      </trkpt>
      <trkpt lat="41.615041" lon="2.67">
        <ele>4.9</ele>
        <time>2019-11-08T14:43:44Z</time>
      </trkpt>
      <trkpt lat="41.615059" lon="2.670055">
        <ele>5.1</ele>
        <time>2019-11-08T14:43:46Z</time>
      </trkpt>
      <trkpt lat="41.615087" lon="2.670131">
        <ele>5.1</ele>
        <time>2019-11-08T14:43:49Z</time>
      </trkpt>
      <trkpt lat="41.615108" lon="2.670192">
        <ele>5.2</ele>
        <time>2019-11-08T14:43:51Z</time>
      </trkpt>
      <trkpt lat="41.615124" lon="2.670241">
        <ele>5.1</ele>
        <time>2019-11-08T14:43:53Z</time>
      </trkpt>
      <trkpt lat="41.615146" lon="2.670321">
        <ele>5</ele>
        <time>2019-11-08T14:43:55Z</time>
      </trkpt>
      <trkpt lat="41.615159" lon="2.670371">
        <ele>4.9</ele>
        <time>2019-11-08T14:43:56Z</time>
      </trkpt>
      <trkpt lat="41.615168" lon="2.670405">
        <ele>4.9</ele>
        <time>2019-11-08T14:43:58Z</time>
      </trkpt>
      <trkpt lat="41.615192" lon="2.670493">
        <ele>4.8</ele>
        <time>2019-11-08T14:44:00Z</time>
      </trkpt>
      <trkpt lat="41.615202" lon="2.670532">
        <ele>4.7</ele>
        <time>2019-11-08T14:44:02Z</time>
      </trkpt>
      <trkpt lat="41.615212" lon="2.670573">
        <ele>4.5</ele>
        <time>2019-11-08T14:44:03Z</time>
      </trkpt>
      <trkpt lat="41.615233" lon="2.670656">
        <ele>4.2</ele>
        <time>2019-11-08T14:44:04Z</time>
      </trkpt>
      <trkpt lat="41.615251" lon="2.670725">
        <ele>4.2</ele>
        <time>2019-11-08T14:44:06Z</time>
      </trkpt>
      <trkpt lat="41.615261" lon="2.670766">
        <ele>4.2</ele>
        <time>2019-11-08T14:44:07Z</time>
      </trkpt>
      <trkpt lat="41.615269" lon="2.670806">
        <ele>4.2</ele>
        <time>2019-11-08T14:44:08Z</time>
      </trkpt>
      <trkpt lat="41.615277" lon="2.670841">
        <ele>4.2</ele>
        <time>2019-11-08T14:44:09Z</time>
      </trkpt>
      <trkpt lat="41.615289" lon="2.670894">
        <ele>4.2</ele>
        <time>2019-11-08T14:44:11Z</time>
      </trkpt>
      <trkpt lat="41.6153" lon="2.670945">
        <ele>4.2</ele>
        <time>2019-11-08T14:44:13Z</time>
      </trkpt>
      <trkpt lat="41.615334" lon="2.671051">
        <ele>4.2</ele>
        <time>2019-11-08T14:44:16Z</time>
      </trkpt>
      <trkpt lat="41.615357" lon="2.671108">
        <ele>4.2</ele>
        <time>2019-11-08T14:44:18Z</time>
      </trkpt>
      <trkpt lat="41.615387" lon="2.671178">
        <ele>4.2</ele>
        <time>2019-11-08T14:44:20Z</time>
      </trkpt>
      <trkpt lat="41.615398" lon="2.671211">
        <ele>4.2</ele>
        <time>2019-11-08T14:44:21Z</time>
      </trkpt>
      <trkpt lat="41.61542" lon="2.671272">
        <ele>4.2</ele>
        <time>2019-11-08T14:44:23Z</time>
      </trkpt>
      <trkpt lat="41.615435" lon="2.671315">
        <ele>4.3</ele>
        <time>2019-11-08T14:44:24Z</time>
      </trkpt>
      <trkpt lat="41.615464" lon="2.671389">
        <ele>4.3</ele>
        <time>2019-11-08T14:44:28Z</time>
      </trkpt>
      <trkpt lat="41.615487" lon="2.671447">
        <ele>4.3</ele>
        <time>2019-11-08T14:44:30Z</time>
      </trkpt>
      <trkpt lat="41.615504" lon="2.671496">
        <ele>4.3</ele>
        <time>2019-11-08T14:44:31Z</time>
      </trkpt>
      <trkpt lat="41.615524" lon="2.671555">
        <ele>4.4</ele>
        <time>2019-11-08T14:44:34Z</time>
      </trkpt>
      <trkpt lat="41.615536" lon="2.67159">
        <ele>4.4</ele>
        <time>2019-11-08T14:44:35Z</time>
      </trkpt>
      <trkpt lat="41.615553" lon="2.671641">
        <ele>4.4</ele>
        <time>2019-11-08T14:44:36Z</time>
      </trkpt>
      <trkpt lat="41.615571" lon="2.671691">
        <ele>4.5</ele>
        <time>2019-11-08T14:44:37Z</time>
      </trkpt>
      <trkpt lat="41.615592" lon="2.671757">
        <ele>4.5</ele>
        <time>2019-11-08T14:44:39Z</time>
      </trkpt>
      <trkpt lat="41.615619" lon="2.671848">
        <ele>4.6</ele>
        <time>2019-11-08T14:44:41Z</time>
      </trkpt>
      <trkpt lat="41.61564" lon="2.671909">
        <ele>4.7</ele>
        <time>2019-11-08T14:44:43Z</time>
      </trkpt>
      <trkpt lat="41.615657" lon="2.671948">
        <ele>4.7</ele>
        <time>2019-11-08T14:44:44Z</time>
      </trkpt>
      <trkpt lat="41.615677" lon="2.672006">
        <ele>4.8</ele>
        <time>2019-11-08T14:44:45Z</time>
      </trkpt>
      <trkpt lat="41.615694" lon="2.672063">
        <ele>4.8</ele>
        <time>2019-11-08T14:44:47Z</time>
      </trkpt>
      <trkpt lat="41.615705" lon="2.672099">
        <ele>4.8</ele>
        <time>2019-11-08T14:44:48Z</time>
      </trkpt>
      <trkpt lat="41.61573" lon="2.672179">
        <ele>4.9</ele>
        <time>2019-11-08T14:44:51Z</time>
      </trkpt>
      <trkpt lat="41.615749" lon="2.672242">
        <ele>4.9</ele>
        <time>2019-11-08T14:44:53Z</time>
      </trkpt>
      <trkpt lat="41.615776" lon="2.672313">
        <ele>5</ele>
        <time>2019-11-08T14:44:56Z</time>
      </trkpt>
      <trkpt lat="41.615825" lon="2.672342">
        <ele>5</ele>
        <time>2019-11-08T14:44:58Z</time>
      </trkpt>
      <trkpt lat="41.615877" lon="2.672321">
        <ele>5.3</ele>
        <time>2019-11-08T14:45:01Z</time>
      </trkpt>
      <trkpt lat="41.615925" lon="2.672274">
        <ele>5.5</ele>
        <time>2019-11-08T14:45:03Z</time>
      </trkpt>
      <trkpt lat="41.615949" lon="2.672253">
        <ele>5.5</ele>
        <time>2019-11-08T14:45:04Z</time>
      </trkpt>
      <trkpt lat="41.615972" lon="2.672231">
        <ele>5.6</ele>
        <time>2019-11-08T14:45:05Z</time>
      </trkpt>
      <trkpt lat="41.616006" lon="2.672201">
        <ele>5.6</ele>
        <time>2019-11-08T14:45:07Z</time>
      </trkpt>
      <trkpt lat="41.61603" lon="2.672185">
        <ele>5.7</ele>
        <time>2019-11-08T14:45:08Z</time>
      </trkpt>
      <trkpt lat="41.616056" lon="2.672166">
        <ele>5.7</ele>
        <time>2019-11-08T14:45:09Z</time>
      </trkpt>
      <trkpt lat="41.616091" lon="2.672142">
        <ele>5.7</ele>
        <time>2019-11-08T14:45:11Z</time>
      </trkpt>
      <trkpt lat="41.616135" lon="2.672113">
        <ele>5.8</ele>
        <time>2019-11-08T14:45:13Z</time>
      </trkpt>
      <trkpt lat="41.616169" lon="2.672102">
        <ele>5.9</ele>
        <time>2019-11-08T14:45:15Z</time>
      </trkpt>
      <trkpt lat="41.616205" lon="2.672114">
        <ele>5.9</ele>
        <time>2019-11-08T14:45:16Z</time>
      </trkpt>
      <trkpt lat="41.616257" lon="2.672131">
        <ele>6</ele>
        <time>2019-11-08T14:45:18Z</time>
      </trkpt>
      <trkpt lat="41.6163" lon="2.672149">
        <ele>6</ele>
        <time>2019-11-08T14:45:20Z</time>
      </trkpt>
      <trkpt lat="41.616325" lon="2.672163">
        <ele>6.1</ele>
        <time>2019-11-08T14:45:21Z</time>
      </trkpt>
      <trkpt lat="41.616349" lon="2.672184">
        <ele>6.1</ele>
        <time>2019-11-08T14:45:22Z</time>
      </trkpt>
      <trkpt lat="41.616372" lon="2.672282">
        <ele>6.2</ele>
        <time>2019-11-08T14:45:24Z</time>
      </trkpt>
      <trkpt lat="41.616378" lon="2.67235">
        <ele>6.3</ele>
        <time>2019-11-08T14:45:25Z</time>
      </trkpt>
      <trkpt lat="41.616383" lon="2.672416">
        <ele>6.4</ele>
        <time>2019-11-08T14:45:26Z</time>
      </trkpt>
      <trkpt lat="41.616388" lon="2.6725">
        <ele>6.5</ele>
        <time>2019-11-08T14:45:28Z</time>
      </trkpt>
      <trkpt lat="41.616393" lon="2.672549">
        <ele>6.5</ele>
        <time>2019-11-08T14:45:29Z</time>
      </trkpt>
      <trkpt lat="41.616395" lon="2.672599">
        <ele>6.6</ele>
        <time>2019-11-08T14:45:30Z</time>
      </trkpt>
      <trkpt lat="41.616399" lon="2.67266">
        <ele>6.7</ele>
        <time>2019-11-08T14:45:32Z</time>
      </trkpt>
      <trkpt lat="41.616404" lon="2.672698">
        <ele>6.7</ele>
        <time>2019-11-08T14:45:33Z</time>
      </trkpt>
      <trkpt lat="41.616413" lon="2.672784">
        <ele>6.8</ele>
        <time>2019-11-08T14:45:36Z</time>
      </trkpt>
      <trkpt lat="41.616425" lon="2.672851">
        <ele>7.2</ele>
        <time>2019-11-08T14:45:38Z</time>
      </trkpt>
      <trkpt lat="41.616439" lon="2.672915">
        <ele>7.1</ele>
        <time>2019-11-08T14:45:41Z</time>
      </trkpt>
    </trkseg>
  </trk>
</gpx>
